<?xml version="1.0" encoding="UTF-8" standalone="no" ?>
<gpx xmlns="http://www.topografix.com/GPX/1/1" xmlns:xsi="http://www.w3.org/2001/XMLSchema-instance" xsi:schemaLocation="http://www.topografix.com/GPX/1/1 http://www.topografix.com/GPX/1/1/gpx.xsd" version="1.1" creator="VisuGPX - https://www.visugpx.com">
  <metadata>
    <name>Pierlas - Lauvet d'Ilonse - Ilonse - Pierlas</name>
    <desc><![CDATA[Pierlas - Baisse de Tavanieres - Lauvet d'Ilonse - Col des Fourches - Ilonse - Col de la Sinne - Pierlas
]]></desc>
  </metadata>
  <trk>
    <name><![CDATA[Pierlas-Ilonse]]></name>
    <trkseg>
      <trkpt lat="44.03248" lon="7.03521">
        <ele>1082.8000488281</ele>
        <time>2010-06-13T07:32:06.000Z</time>
      </trkpt>
      <trkpt lat="44.03249" lon="7.03521">
        <ele>1083</ele>
        <time>2010-06-13T07:32:16.000Z</time>
      </trkpt>
      <trkpt lat="44.03248" lon="7.0352">
        <ele>1082.5999755859</ele>
        <time>2010-06-13T07:32:20.000Z</time>
      </trkpt>
      <trkpt lat="44.03248" lon="7.0352">
        <ele>1082.5999755859</ele>
        <time>2010-06-13T07:32:24.000Z</time>
      </trkpt>
      <trkpt lat="44.03248" lon="7.03521">
        <ele>1082.8000488281</ele>
        <time>2010-06-13T07:32:29.000Z</time>
      </trkpt>
      <trkpt lat="44.03248" lon="7.03521">
        <ele>1082.8000488281</ele>
        <time>2010-06-13T07:32:35.000Z</time>
      </trkpt>
      <trkpt lat="44.03247" lon="7.03521">
        <ele>1082.8000488281</ele>
        <time>2010-06-13T07:32:38.000Z</time>
      </trkpt>
      <trkpt lat="44.03247" lon="7.03521">
        <ele>1082.8000488281</ele>
        <time>2010-06-13T07:32:46.000Z</time>
      </trkpt>
      <trkpt lat="44.03247" lon="7.03521">
        <ele>1082.8000488281</ele>
        <time>2010-06-13T07:32:57.000Z</time>
      </trkpt>
      <trkpt lat="44.03247" lon="7.03521">
        <ele>1082.8000488281</ele>
        <time>2010-06-13T07:33:13.000Z</time>
      </trkpt>
      <trkpt lat="44.03249" lon="7.03521">
        <ele>1083</ele>
        <time>2010-06-13T07:33:44.000Z</time>
      </trkpt>
      <trkpt lat="44.03249" lon="7.03522">
        <ele>1083</ele>
        <time>2010-06-13T07:34:49.000Z</time>
      </trkpt>
      <trkpt lat="44.03252" lon="7.03524">
        <ele>1084.4000244141</ele>
        <time>2010-06-13T07:35:03.000Z</time>
      </trkpt>
      <trkpt lat="44.03251" lon="7.03521">
        <ele>1083.1999511719</ele>
        <time>2010-06-13T07:35:22.000Z</time>
      </trkpt>
      <trkpt lat="44.03251" lon="7.03521">
        <ele>1083.1999511719</ele>
        <time>2010-06-13T07:35:23.000Z</time>
      </trkpt>
      <trkpt lat="44.03251" lon="7.03521">
        <ele>1083.1999511719</ele>
        <time>2010-06-13T07:35:36.000Z</time>
      </trkpt>
      <trkpt lat="44.03251" lon="7.03521">
        <ele>1083</ele>
        <time>2010-06-13T07:35:53.000Z</time>
      </trkpt>
      <trkpt lat="44.03253" lon="7.03523">
        <ele>1084</ele>
        <time>2010-06-13T07:36:06.000Z</time>
      </trkpt>
      <trkpt lat="44.03255" lon="7.03524">
        <ele>1084.5999755859</ele>
        <time>2010-06-13T07:39:10.000Z</time>
      </trkpt>
      <trkpt lat="44.03254" lon="7.03522">
        <ele>1084</ele>
        <time>2010-06-13T07:39:45.000Z</time>
      </trkpt>
      <trkpt lat="44.03254" lon="7.03521">
        <ele>1083.5999755859</ele>
        <time>2010-06-13T07:39:47.000Z</time>
      </trkpt>
      <trkpt lat="44.03252" lon="7.03516">
        <ele>1081.5999755859</ele>
        <time>2010-06-13T07:39:53.000Z</time>
      </trkpt>
      <trkpt lat="44.03243" lon="7.03519">
        <ele>1082</ele>
        <time>2010-06-13T07:40:06.000Z</time>
      </trkpt>
      <trkpt lat="44.03244" lon="7.03519">
        <ele>1081.8000488281</ele>
        <time>2010-06-13T07:41:38.000Z</time>
      </trkpt>
      <trkpt lat="44.03244" lon="7.03518">
        <ele>1081.4000244141</ele>
        <time>2010-06-13T07:42:03.000Z</time>
      </trkpt>
      <trkpt lat="44.03246" lon="7.03519">
        <ele>1082</ele>
        <time>2010-06-13T07:42:06.000Z</time>
      </trkpt>
      <trkpt lat="44.03254" lon="7.03514">
        <ele>1081.4000244141</ele>
        <time>2010-06-13T07:42:11.000Z</time>
      </trkpt>
      <trkpt lat="44.03267" lon="7.03497">
        <ele>1078.5999755859</ele>
        <time>2010-06-13T07:42:21.000Z</time>
      </trkpt>
      <trkpt lat="44.03298" lon="7.03483">
        <ele>1083.8000488281</ele>
        <time>2010-06-13T07:42:31.000Z</time>
      </trkpt>
      <trkpt lat="44.03333" lon="7.03471">
        <ele>1087.5999755859</ele>
        <time>2010-06-13T07:42:48.000Z</time>
      </trkpt>
      <trkpt lat="44.03336" lon="7.0347">
        <ele>1088</ele>
        <time>2010-06-13T07:42:50.000Z</time>
      </trkpt>
      <trkpt lat="44.03366" lon="7.03458">
        <ele>1091</ele>
        <time>2010-06-13T07:43:05.000Z</time>
      </trkpt>
      <trkpt lat="44.03397" lon="7.03451">
        <ele>1093.5999755859</ele>
        <time>2010-06-13T07:43:21.000Z</time>
      </trkpt>
      <trkpt lat="44.03419" lon="7.03453">
        <ele>1095.5999755859</ele>
        <time>2010-06-13T07:43:33.000Z</time>
      </trkpt>
      <trkpt lat="44.03441" lon="7.03456">
        <ele>1099</ele>
        <time>2010-06-13T07:43:47.000Z</time>
      </trkpt>
      <trkpt lat="44.0345" lon="7.03462">
        <ele>1101</ele>
        <time>2010-06-13T07:43:53.000Z</time>
      </trkpt>
      <trkpt lat="44.03449" lon="7.03476">
        <ele>1102.5999755859</ele>
        <time>2010-06-13T07:43:59.000Z</time>
      </trkpt>
      <trkpt lat="44.03419" lon="7.03492">
        <ele>1099.5999755859</ele>
        <time>2010-06-13T07:44:17.000Z</time>
      </trkpt>
      <trkpt lat="44.03383" lon="7.03517">
        <ele>1103.1999511719</ele>
        <time>2010-06-13T07:44:36.000Z</time>
      </trkpt>
      <trkpt lat="44.03353" lon="7.03534">
        <ele>1105.4000244141</ele>
        <time>2010-06-13T07:44:53.000Z</time>
      </trkpt>
      <trkpt lat="44.03329" lon="7.03555">
        <ele>1110.4000244141</ele>
        <time>2010-06-13T07:45:08.000Z</time>
      </trkpt>
      <trkpt lat="44.03317" lon="7.03568">
        <ele>1113.5999755859</ele>
        <time>2010-06-13T07:45:17.000Z</time>
      </trkpt>
      <trkpt lat="44.03314" lon="7.03573">
        <ele>1115.1999511719</ele>
        <time>2010-06-13T07:45:20.000Z</time>
      </trkpt>
      <trkpt lat="44.03285" lon="7.03593">
        <ele>1116.1999511719</ele>
        <time>2010-06-13T07:45:39.000Z</time>
      </trkpt>
      <trkpt lat="44.03254" lon="7.03611">
        <ele>1113.4000244141</ele>
        <time>2010-06-13T07:45:57.000Z</time>
      </trkpt>
      <trkpt lat="44.03227" lon="7.03619">
        <ele>1109.1999511719</ele>
        <time>2010-06-13T07:46:13.000Z</time>
      </trkpt>
      <trkpt lat="44.03204" lon="7.03618">
        <ele>1103.8000488281</ele>
        <time>2010-06-13T07:46:27.000Z</time>
      </trkpt>
      <trkpt lat="44.03212" lon="7.03623">
        <ele>1106.5999755859</ele>
        <time>2010-06-13T07:46:37.000Z</time>
      </trkpt>
      <trkpt lat="44.03234" lon="7.03631">
        <ele>1113.8000488281</ele>
        <time>2010-06-13T07:46:53.000Z</time>
      </trkpt>
      <trkpt lat="44.03264" lon="7.03632">
        <ele>1123.1999511719</ele>
        <time>2010-06-13T07:47:12.000Z</time>
      </trkpt>
      <trkpt lat="44.03273" lon="7.0363">
        <ele>1125.4000244141</ele>
        <time>2010-06-13T07:47:17.000Z</time>
      </trkpt>
      <trkpt lat="44.03291" lon="7.03631">
        <ele>1131.8000488281</ele>
        <time>2010-06-13T07:47:31.000Z</time>
      </trkpt>
      <trkpt lat="44.03303" lon="7.0363">
        <ele>1135.4000244141</ele>
        <time>2010-06-13T07:47:40.000Z</time>
      </trkpt>
      <trkpt lat="44.03299" lon="7.03641">
        <ele>1138.1999511719</ele>
        <time>2010-06-13T07:47:50.000Z</time>
      </trkpt>
      <trkpt lat="44.03276" lon="7.03651">
        <ele>1133.5999755859</ele>
        <time>2010-06-13T07:48:05.000Z</time>
      </trkpt>
      <trkpt lat="44.03248" lon="7.03668">
        <ele>1128.5999755859</ele>
        <time>2010-06-13T07:48:24.000Z</time>
      </trkpt>
      <trkpt lat="44.03241" lon="7.03703">
        <ele>1132.4000244141</ele>
        <time>2010-06-13T07:48:41.000Z</time>
      </trkpt>
      <trkpt lat="44.03244" lon="7.03716">
        <ele>1136.4000244141</ele>
        <time>2010-06-13T07:48:48.000Z</time>
      </trkpt>
      <trkpt lat="44.03251" lon="7.03729">
        <ele>1143.1999511719</ele>
        <time>2010-06-13T07:48:57.000Z</time>
      </trkpt>
      <trkpt lat="44.03255" lon="7.03747">
        <ele>1149.4000244141</ele>
        <time>2010-06-13T07:49:07.000Z</time>
      </trkpt>
      <trkpt lat="44.03248" lon="7.03785">
        <ele>1149.5999755859</ele>
        <time>2010-06-13T07:49:25.000Z</time>
      </trkpt>
      <trkpt lat="44.0325" lon="7.0383">
        <ele>1156.1999511719</ele>
        <time>2010-06-13T07:49:44.000Z</time>
      </trkpt>
      <trkpt lat="44.03247" lon="7.03866">
        <ele>1155.8000488281</ele>
        <time>2010-06-13T07:50:01.000Z</time>
      </trkpt>
      <trkpt lat="44.03255" lon="7.03895">
        <ele>1162.1999511719</ele>
        <time>2010-06-13T07:50:16.000Z</time>
      </trkpt>
      <trkpt lat="44.03259" lon="7.03922">
        <ele>1165.8000488281</ele>
        <time>2010-06-13T07:50:30.000Z</time>
      </trkpt>
      <trkpt lat="44.03268" lon="7.03951">
        <ele>1172.8000488281</ele>
        <time>2010-06-13T07:50:45.000Z</time>
      </trkpt>
      <trkpt lat="44.03274" lon="7.03987">
        <ele>1176.5999755859</ele>
        <time>2010-06-13T07:51:02.000Z</time>
      </trkpt>
      <trkpt lat="44.03275" lon="7.0399">
        <ele>1177.5999755859</ele>
        <time>2010-06-13T07:51:04.000Z</time>
      </trkpt>
      <trkpt lat="44.0328" lon="7.03981">
        <ele>1181.1999511719</ele>
        <time>2010-06-13T07:51:13.000Z</time>
      </trkpt>
      <trkpt lat="44.03276" lon="7.03944">
        <ele>1178.8000488281</ele>
        <time>2010-06-13T07:51:30.000Z</time>
      </trkpt>
      <trkpt lat="44.03275" lon="7.03904">
        <ele>1177.8000488281</ele>
        <time>2010-06-13T07:51:47.000Z</time>
      </trkpt>
      <trkpt lat="44.03277" lon="7.03876">
        <ele>1179</ele>
        <time>2010-06-13T07:52:00.000Z</time>
      </trkpt>
      <trkpt lat="44.03286" lon="7.03881">
        <ele>1185.5999755859</ele>
        <time>2010-06-13T07:52:08.000Z</time>
      </trkpt>
      <trkpt lat="44.03288" lon="7.03913">
        <ele>1187.8000488281</ele>
        <time>2010-06-13T07:52:22.000Z</time>
      </trkpt>
      <trkpt lat="44.03296" lon="7.03948">
        <ele>1193.4000244141</ele>
        <time>2010-06-13T07:52:39.000Z</time>
      </trkpt>
      <trkpt lat="44.03305" lon="7.0399">
        <ele>1199</ele>
        <time>2010-06-13T07:52:58.000Z</time>
      </trkpt>
      <trkpt lat="44.03305" lon="7.04021">
        <ele>1199.1999511719</ele>
        <time>2010-06-13T07:53:13.000Z</time>
      </trkpt>
      <trkpt lat="44.03305" lon="7.04054">
        <ele>1200.8000488281</ele>
        <time>2010-06-13T07:53:30.000Z</time>
      </trkpt>
      <trkpt lat="44.03307" lon="7.04093">
        <ele>1204.1999511719</ele>
        <time>2010-06-13T07:53:49.000Z</time>
      </trkpt>
      <trkpt lat="44.03318" lon="7.04122">
        <ele>1216.1999511719</ele>
        <time>2010-06-13T07:54:06.000Z</time>
      </trkpt>
      <trkpt lat="44.03313" lon="7.04155">
        <ele>1214.5999755859</ele>
        <time>2010-06-13T07:54:23.000Z</time>
      </trkpt>
      <trkpt lat="44.03307" lon="7.04192">
        <ele>1213.8000488281</ele>
        <time>2010-06-13T07:54:40.000Z</time>
      </trkpt>
      <trkpt lat="44.03305" lon="7.04233">
        <ele>1217.5999755859</ele>
        <time>2010-06-13T07:54:59.000Z</time>
      </trkpt>
      <trkpt lat="44.03293" lon="7.04271">
        <ele>1213</ele>
        <time>2010-06-13T07:55:18.000Z</time>
      </trkpt>
      <trkpt lat="44.03288" lon="7.0432">
        <ele>1214.5999755859</ele>
        <time>2010-06-13T07:55:39.000Z</time>
      </trkpt>
      <trkpt lat="44.03293" lon="7.04366">
        <ele>1215.8000488281</ele>
        <time>2010-06-13T07:55:58.000Z</time>
      </trkpt>
      <trkpt lat="44.03301" lon="7.04387">
        <ele>1217.1999511719</ele>
        <time>2010-06-13T07:56:10.000Z</time>
      </trkpt>
      <trkpt lat="44.0333" lon="7.04408">
        <ele>1226</ele>
        <time>2010-06-13T07:56:29.000Z</time>
      </trkpt>
      <trkpt lat="44.03365" lon="7.04414">
        <ele>1235.5999755859</ele>
        <time>2010-06-13T07:56:50.000Z</time>
      </trkpt>
      <trkpt lat="44.03404" lon="7.04419">
        <ele>1246.5999755859</ele>
        <time>2010-06-13T07:57:14.000Z</time>
      </trkpt>
      <trkpt lat="44.03433" lon="7.04408">
        <ele>1258.1999511719</ele>
        <time>2010-06-13T07:57:31.000Z</time>
      </trkpt>
      <trkpt lat="44.03435" lon="7.04435">
        <ele>1260</ele>
        <time>2010-06-13T07:57:44.000Z</time>
      </trkpt>
      <trkpt lat="44.03419" lon="7.04473">
        <ele>1257.1999511719</ele>
        <time>2010-06-13T07:58:02.000Z</time>
      </trkpt>
      <trkpt lat="44.03395" lon="7.04512">
        <ele>1250.5999755859</ele>
        <time>2010-06-13T07:58:23.000Z</time>
      </trkpt>
      <trkpt lat="44.03373" lon="7.04546">
        <ele>1244.8000488281</ele>
        <time>2010-06-13T07:58:42.000Z</time>
      </trkpt>
      <trkpt lat="44.03383" lon="7.04565">
        <ele>1251.5999755859</ele>
        <time>2010-06-13T07:58:55.000Z</time>
      </trkpt>
      <trkpt lat="44.03411" lon="7.04577">
        <ele>1265</ele>
        <time>2010-06-13T07:59:12.000Z</time>
      </trkpt>
      <trkpt lat="44.03437" lon="7.04596">
        <ele>1278.1999511719</ele>
        <time>2010-06-13T07:59:29.000Z</time>
      </trkpt>
      <trkpt lat="44.03428" lon="7.04624">
        <ele>1278.1999511719</ele>
        <time>2010-06-13T07:59:43.000Z</time>
      </trkpt>
      <trkpt lat="44.03413" lon="7.04648">
        <ele>1273.8000488281</ele>
        <time>2010-06-13T07:59:58.000Z</time>
      </trkpt>
      <trkpt lat="44.034" lon="7.04675">
        <ele>1270.5999755859</ele>
        <time>2010-06-13T08:00:13.000Z</time>
      </trkpt>
      <trkpt lat="44.03399" lon="7.04704">
        <ele>1273.8000488281</ele>
        <time>2010-06-13T08:00:26.000Z</time>
      </trkpt>
      <trkpt lat="44.034" lon="7.0474">
        <ele>1279.1999511719</ele>
        <time>2010-06-13T08:00:43.000Z</time>
      </trkpt>
      <trkpt lat="44.03417" lon="7.04778">
        <ele>1289.8000488281</ele>
        <time>2010-06-13T08:01:02.000Z</time>
      </trkpt>
      <trkpt lat="44.03424" lon="7.0481">
        <ele>1295.5999755859</ele>
        <time>2010-06-13T08:01:17.000Z</time>
      </trkpt>
      <trkpt lat="44.0341" lon="7.04851">
        <ele>1293</ele>
        <time>2010-06-13T08:01:35.000Z</time>
      </trkpt>
      <trkpt lat="44.03393" lon="7.04887">
        <ele>1290</ele>
        <time>2010-06-13T08:01:51.000Z</time>
      </trkpt>
      <trkpt lat="44.0338" lon="7.04947">
        <ele>1289.4000244141</ele>
        <time>2010-06-13T08:02:12.000Z</time>
      </trkpt>
      <trkpt lat="44.03367" lon="7.05004">
        <ele>1287.8000488281</ele>
        <time>2010-06-13T08:02:34.000Z</time>
      </trkpt>
      <trkpt lat="44.03384" lon="7.05035">
        <ele>1296</ele>
        <time>2010-06-13T08:02:50.000Z</time>
      </trkpt>
      <trkpt lat="44.03404" lon="7.05086">
        <ele>1305.1999511719</ele>
        <time>2010-06-13T08:03:11.000Z</time>
      </trkpt>
      <trkpt lat="44.03414" lon="7.05125">
        <ele>1314</ele>
        <time>2010-06-13T08:03:24.000Z</time>
      </trkpt>
      <trkpt lat="44.03405" lon="7.05141">
        <ele>1315.8000488281</ele>
        <time>2010-06-13T08:03:30.000Z</time>
      </trkpt>
      <trkpt lat="44.03387" lon="7.05144">
        <ele>1315</ele>
        <time>2010-06-13T08:03:40.000Z</time>
      </trkpt>
      <trkpt lat="44.0336" lon="7.05144">
        <ele>1312.5999755859</ele>
        <time>2010-06-13T08:03:59.000Z</time>
      </trkpt>
      <trkpt lat="44.0334" lon="7.0515">
        <ele>1312.8000488281</ele>
        <time>2010-06-13T08:04:12.000Z</time>
      </trkpt>
      <trkpt lat="44.03307" lon="7.05155">
        <ele>1309.4000244141</ele>
        <time>2010-06-13T08:04:30.000Z</time>
      </trkpt>
      <trkpt lat="44.03277" lon="7.05163">
        <ele>1307</ele>
        <time>2010-06-13T08:04:48.000Z</time>
      </trkpt>
      <trkpt lat="44.03271" lon="7.05164">
        <ele>1306</ele>
        <time>2010-06-13T08:04:52.000Z</time>
      </trkpt>
      <trkpt lat="44.03253" lon="7.05175">
        <ele>1307.1999511719</ele>
        <time>2010-06-13T08:05:11.000Z</time>
      </trkpt>
      <trkpt lat="44.03254" lon="7.05172">
        <ele>1306.1999511719</ele>
        <time>2010-06-13T08:06:09.000Z</time>
      </trkpt>
      <trkpt lat="44.03255" lon="7.05173">
        <ele>1306.5999755859</ele>
        <time>2010-06-13T08:06:13.000Z</time>
      </trkpt>
      <trkpt lat="44.03254" lon="7.05177">
        <ele>1308</ele>
        <time>2010-06-13T08:06:26.000Z</time>
      </trkpt>
      <trkpt lat="44.03257" lon="7.05169">
        <ele>1305.1999511719</ele>
        <time>2010-06-13T08:06:42.000Z</time>
      </trkpt>
      <trkpt lat="44.03257" lon="7.05169">
        <ele>1305.4000244141</ele>
        <time>2010-06-13T08:08:11.000Z</time>
      </trkpt>
      <trkpt lat="44.03251" lon="7.05177">
        <ele>1307.5999755859</ele>
        <time>2010-06-13T08:08:26.000Z</time>
      </trkpt>
      <trkpt lat="44.03229" lon="7.052">
        <ele>1312.4000244141</ele>
        <time>2010-06-13T08:08:37.000Z</time>
      </trkpt>
      <trkpt lat="44.03203" lon="7.05219">
        <ele>1313.4000244141</ele>
        <time>2010-06-13T08:08:52.000Z</time>
      </trkpt>
      <trkpt lat="44.03178" lon="7.05252">
        <ele>1318.4000244141</ele>
        <time>2010-06-13T08:09:14.000Z</time>
      </trkpt>
      <trkpt lat="44.0316" lon="7.05293">
        <ele>1324.8000488281</ele>
        <time>2010-06-13T08:09:36.000Z</time>
      </trkpt>
      <trkpt lat="44.03148" lon="7.05315">
        <ele>1327.1999511719</ele>
        <time>2010-06-13T08:09:49.000Z</time>
      </trkpt>
      <trkpt lat="44.0314" lon="7.05328">
        <ele>1328.8000488281</ele>
        <time>2010-06-13T08:09:57.000Z</time>
      </trkpt>
      <trkpt lat="44.0312" lon="7.05347">
        <ele>1326.8000488281</ele>
        <time>2010-06-13T08:10:13.000Z</time>
      </trkpt>
      <trkpt lat="44.03105" lon="7.05373">
        <ele>1328.1999511719</ele>
        <time>2010-06-13T08:10:30.000Z</time>
      </trkpt>
      <trkpt lat="44.03104" lon="7.05408">
        <ele>1337.4000244141</ele>
        <time>2010-06-13T08:10:46.000Z</time>
      </trkpt>
      <trkpt lat="44.03101" lon="7.05435">
        <ele>1343.8000488281</ele>
        <time>2010-06-13T08:10:59.000Z</time>
      </trkpt>
      <trkpt lat="44.03099" lon="7.05441">
        <ele>1344.4000244141</ele>
        <time>2010-06-13T08:11:02.000Z</time>
      </trkpt>
      <trkpt lat="44.03109" lon="7.0544">
        <ele>1348</ele>
        <time>2010-06-13T08:11:11.000Z</time>
      </trkpt>
      <trkpt lat="44.03109" lon="7.05438">
        <ele>1347.4000244141</ele>
        <time>2010-06-13T08:11:12.000Z</time>
      </trkpt>
      <trkpt lat="44.03111" lon="7.05426">
        <ele>1345</ele>
        <time>2010-06-13T08:11:22.000Z</time>
      </trkpt>
      <trkpt lat="44.03111" lon="7.05422">
        <ele>1343.8000488281</ele>
        <time>2010-06-13T08:11:37.000Z</time>
      </trkpt>
      <trkpt lat="44.0311" lon="7.05422">
        <ele>1343.8000488281</ele>
        <time>2010-06-13T08:12:48.000Z</time>
      </trkpt>
      <trkpt lat="44.03119" lon="7.05409">
        <ele>1343.5999755859</ele>
        <time>2010-06-13T08:13:17.000Z</time>
      </trkpt>
      <trkpt lat="44.03143" lon="7.05382">
        <ele>1345.4000244141</ele>
        <time>2010-06-13T08:13:33.000Z</time>
      </trkpt>
      <trkpt lat="44.03171" lon="7.05365">
        <ele>1350.4000244141</ele>
        <time>2010-06-13T08:13:48.000Z</time>
      </trkpt>
      <trkpt lat="44.03201" lon="7.05336">
        <ele>1351.4000244141</ele>
        <time>2010-06-13T08:14:05.000Z</time>
      </trkpt>
      <trkpt lat="44.03233" lon="7.05308">
        <ele>1353.1999511719</ele>
        <time>2010-06-13T08:14:24.000Z</time>
      </trkpt>
      <trkpt lat="44.03264" lon="7.05289">
        <ele>1354.4000244141</ele>
        <time>2010-06-13T08:14:43.000Z</time>
      </trkpt>
      <trkpt lat="44.03292" lon="7.05287">
        <ele>1356.8000488281</ele>
        <time>2010-06-13T08:15:00.000Z</time>
      </trkpt>
      <trkpt lat="44.03305" lon="7.05286">
        <ele>1357.8000488281</ele>
        <time>2010-06-13T08:15:09.000Z</time>
      </trkpt>
      <trkpt lat="44.03332" lon="7.05294">
        <ele>1364</ele>
        <time>2010-06-13T08:15:29.000Z</time>
      </trkpt>
      <trkpt lat="44.03361" lon="7.05301">
        <ele>1368.1999511719</ele>
        <time>2010-06-13T08:15:48.000Z</time>
      </trkpt>
      <trkpt lat="44.03389" lon="7.05302">
        <ele>1370</ele>
        <time>2010-06-13T08:16:03.000Z</time>
      </trkpt>
      <trkpt lat="44.03402" lon="7.05303">
        <ele>1371.1999511719</ele>
        <time>2010-06-13T08:16:10.000Z</time>
      </trkpt>
      <trkpt lat="44.03431" lon="7.05318">
        <ele>1376.5999755859</ele>
        <time>2010-06-13T08:16:26.000Z</time>
      </trkpt>
      <trkpt lat="44.03452" lon="7.05337">
        <ele>1381.8000488281</ele>
        <time>2010-06-13T08:16:39.000Z</time>
      </trkpt>
      <trkpt lat="44.03473" lon="7.05355">
        <ele>1386.8000488281</ele>
        <time>2010-06-13T08:16:52.000Z</time>
      </trkpt>
      <trkpt lat="44.03504" lon="7.0538">
        <ele>1394.1999511719</ele>
        <time>2010-06-13T08:17:11.000Z</time>
      </trkpt>
      <trkpt lat="44.03531" lon="7.05401">
        <ele>1403.4000244141</ele>
        <time>2010-06-13T08:17:27.000Z</time>
      </trkpt>
      <trkpt lat="44.03563" lon="7.05425">
        <ele>1412</ele>
        <time>2010-06-13T08:17:46.000Z</time>
      </trkpt>
      <trkpt lat="44.03589" lon="7.05395">
        <ele>1405.5999755859</ele>
        <time>2010-06-13T08:18:05.000Z</time>
      </trkpt>
      <trkpt lat="44.03615" lon="7.05359">
        <ele>1403</ele>
        <time>2010-06-13T08:18:26.000Z</time>
      </trkpt>
      <trkpt lat="44.03645" lon="7.05318">
        <ele>1404</ele>
        <time>2010-06-13T08:18:49.000Z</time>
      </trkpt>
      <trkpt lat="44.0367" lon="7.05287">
        <ele>1411.5999755859</ele>
        <time>2010-06-13T08:19:08.000Z</time>
      </trkpt>
      <trkpt lat="44.03667" lon="7.0525">
        <ele>1409.4000244141</ele>
        <time>2010-06-13T08:19:28.000Z</time>
      </trkpt>
      <trkpt lat="44.03667" lon="7.05206">
        <ele>1411.1999511719</ele>
        <time>2010-06-13T08:19:51.000Z</time>
      </trkpt>
      <trkpt lat="44.03661" lon="7.05173">
        <ele>1410.1999511719</ele>
        <time>2010-06-13T08:20:09.000Z</time>
      </trkpt>
      <trkpt lat="44.03667" lon="7.05135">
        <ele>1414</ele>
        <time>2010-06-13T08:20:29.000Z</time>
      </trkpt>
      <trkpt lat="44.03676" lon="7.05087">
        <ele>1420.4000244141</ele>
        <time>2010-06-13T08:20:56.000Z</time>
      </trkpt>
      <trkpt lat="44.03678" lon="7.05044">
        <ele>1422.4000244141</ele>
        <time>2010-06-13T08:21:19.000Z</time>
      </trkpt>
      <trkpt lat="44.03681" lon="7.04999">
        <ele>1425</ele>
        <time>2010-06-13T08:21:43.000Z</time>
      </trkpt>
      <trkpt lat="44.03683" lon="7.04957">
        <ele>1426.4000244141</ele>
        <time>2010-06-13T08:22:05.000Z</time>
      </trkpt>
      <trkpt lat="44.03684" lon="7.04935">
        <ele>1426.5999755859</ele>
        <time>2010-06-13T08:22:17.000Z</time>
      </trkpt>
      <trkpt lat="44.03693" lon="7.04896">
        <ele>1428.5999755859</ele>
        <time>2010-06-13T08:22:42.000Z</time>
      </trkpt>
      <trkpt lat="44.03706" lon="7.04859">
        <ele>1430.8000488281</ele>
        <time>2010-06-13T08:23:05.000Z</time>
      </trkpt>
      <trkpt lat="44.0372" lon="7.04839">
        <ele>1435.1999511719</ele>
        <time>2010-06-13T08:23:20.000Z</time>
      </trkpt>
      <trkpt lat="44.0373" lon="7.04815">
        <ele>1437.4000244141</ele>
        <time>2010-06-13T08:23:35.000Z</time>
      </trkpt>
      <trkpt lat="44.03735" lon="7.04811">
        <ele>1438.8000488281</ele>
        <time>2010-06-13T08:23:39.000Z</time>
      </trkpt>
      <trkpt lat="44.03749" lon="7.04783">
        <ele>1441.8000488281</ele>
        <time>2010-06-13T08:23:58.000Z</time>
      </trkpt>
      <trkpt lat="44.03765" lon="7.04763">
        <ele>1446.1999511719</ele>
        <time>2010-06-13T08:24:15.000Z</time>
      </trkpt>
      <trkpt lat="44.0378" lon="7.04727">
        <ele>1449.5999755859</ele>
        <time>2010-06-13T08:24:37.000Z</time>
      </trkpt>
      <trkpt lat="44.0379" lon="7.04685">
        <ele>1450.4000244141</ele>
        <time>2010-06-13T08:24:59.000Z</time>
      </trkpt>
      <trkpt lat="44.03807" lon="7.04649">
        <ele>1456.4000244141</ele>
        <time>2010-06-13T08:25:13.000Z</time>
      </trkpt>
      <trkpt lat="44.03809" lon="7.04647">
        <ele>1457</ele>
        <time>2010-06-13T08:25:14.000Z</time>
      </trkpt>
      <trkpt lat="44.0381" lon="7.04644">
        <ele>1457.5999755859</ele>
        <time>2010-06-13T08:25:26.000Z</time>
      </trkpt>
      <trkpt lat="44.03809" lon="7.04646">
        <ele>1457</ele>
        <time>2010-06-13T08:25:42.000Z</time>
      </trkpt>
      <trkpt lat="44.03807" lon="7.04646">
        <ele>1456.4000244141</ele>
        <time>2010-06-13T08:25:53.000Z</time>
      </trkpt>
      <trkpt lat="44.03808" lon="7.04645">
        <ele>1456.8000488281</ele>
        <time>2010-06-13T08:26:00.000Z</time>
      </trkpt>
      <trkpt lat="44.03808" lon="7.04641">
        <ele>1456.5999755859</ele>
        <time>2010-06-13T08:26:02.000Z</time>
      </trkpt>
      <trkpt lat="44.03824" lon="7.04591">
        <ele>1460.5999755859</ele>
        <time>2010-06-13T08:26:26.000Z</time>
      </trkpt>
      <trkpt lat="44.03823" lon="7.04555">
        <ele>1458.8000488281</ele>
        <time>2010-06-13T08:26:43.000Z</time>
      </trkpt>
      <trkpt lat="44.03824" lon="7.04544">
        <ele>1459.5999755859</ele>
        <time>2010-06-13T08:26:48.000Z</time>
      </trkpt>
      <trkpt lat="44.03836" lon="7.04491">
        <ele>1462.8000488281</ele>
        <time>2010-06-13T08:27:12.000Z</time>
      </trkpt>
      <trkpt lat="44.03847" lon="7.04465">
        <ele>1464</ele>
        <time>2010-06-13T08:27:27.000Z</time>
      </trkpt>
      <trkpt lat="44.03849" lon="7.04464">
        <ele>1464.8000488281</ele>
        <time>2010-06-13T08:27:38.000Z</time>
      </trkpt>
      <trkpt lat="44.03849" lon="7.04465">
        <ele>1464.5999755859</ele>
        <time>2010-06-13T08:27:55.000Z</time>
      </trkpt>
      <trkpt lat="44.0385" lon="7.04461">
        <ele>1464.8000488281</ele>
        <time>2010-06-13T08:28:03.000Z</time>
      </trkpt>
      <trkpt lat="44.0387" lon="7.0446">
        <ele>1473.5999755859</ele>
        <time>2010-06-13T08:28:14.000Z</time>
      </trkpt>
      <trkpt lat="44.03871" lon="7.04494">
        <ele>1477.4000244141</ele>
        <time>2010-06-13T08:28:27.000Z</time>
      </trkpt>
      <trkpt lat="44.03863" lon="7.04553">
        <ele>1476.8000488281</ele>
        <time>2010-06-13T08:28:44.000Z</time>
      </trkpt>
      <trkpt lat="44.03858" lon="7.04594">
        <ele>1477</ele>
        <time>2010-06-13T08:29:07.000Z</time>
      </trkpt>
      <trkpt lat="44.0385" lon="7.0464">
        <ele>1476.8000488281</ele>
        <time>2010-06-13T08:29:31.000Z</time>
      </trkpt>
      <trkpt lat="44.03848" lon="7.04684">
        <ele>1478.4000244141</ele>
        <time>2010-06-13T08:29:53.000Z</time>
      </trkpt>
      <trkpt lat="44.03865" lon="7.04734">
        <ele>1485.8000488281</ele>
        <time>2010-06-13T08:30:15.000Z</time>
      </trkpt>
      <trkpt lat="44.03888" lon="7.04808">
        <ele>1494</ele>
        <time>2010-06-13T08:30:40.000Z</time>
      </trkpt>
      <trkpt lat="44.03896" lon="7.04848">
        <ele>1497.8000488281</ele>
        <time>2010-06-13T08:30:56.000Z</time>
      </trkpt>
      <trkpt lat="44.039" lon="7.04866">
        <ele>1499.8000488281</ele>
        <time>2010-06-13T08:31:03.000Z</time>
      </trkpt>
      <trkpt lat="44.03898" lon="7.04924">
        <ele>1502.5999755859</ele>
        <time>2010-06-13T08:31:23.000Z</time>
      </trkpt>
      <trkpt lat="44.03889" lon="7.04973">
        <ele>1506</ele>
        <time>2010-06-13T08:31:41.000Z</time>
      </trkpt>
      <trkpt lat="44.03904" lon="7.0497">
        <ele>1509.8000488281</ele>
        <time>2010-06-13T08:31:49.000Z</time>
      </trkpt>
      <trkpt lat="44.03916" lon="7.04942">
        <ele>1510.4000244141</ele>
        <time>2010-06-13T08:32:01.000Z</time>
      </trkpt>
      <trkpt lat="44.03934" lon="7.04894">
        <ele>1516.1999511719</ele>
        <time>2010-06-13T08:32:21.000Z</time>
      </trkpt>
      <trkpt lat="44.03944" lon="7.04844">
        <ele>1518.1999511719</ele>
        <time>2010-06-13T08:32:40.000Z</time>
      </trkpt>
      <trkpt lat="44.03954" lon="7.04799">
        <ele>1520.8000488281</ele>
        <time>2010-06-13T08:32:58.000Z</time>
      </trkpt>
      <trkpt lat="44.03962" lon="7.04755">
        <ele>1522.4000244141</ele>
        <time>2010-06-13T08:33:15.000Z</time>
      </trkpt>
      <trkpt lat="44.03967" lon="7.04734">
        <ele>1523.8000488281</ele>
        <time>2010-06-13T08:33:21.000Z</time>
      </trkpt>
      <trkpt lat="44.0397" lon="7.0468">
        <ele>1524.8000488281</ele>
        <time>2010-06-13T08:33:36.000Z</time>
      </trkpt>
      <trkpt lat="44.03965" lon="7.04607">
        <ele>1522.5999755859</ele>
        <time>2010-06-13T08:33:55.000Z</time>
      </trkpt>
      <trkpt lat="44.03979" lon="7.04569">
        <ele>1528.1999511719</ele>
        <time>2010-06-13T08:34:10.000Z</time>
      </trkpt>
      <trkpt lat="44.03997" lon="7.04543">
        <ele>1535.5999755859</ele>
        <time>2010-06-13T08:34:25.000Z</time>
      </trkpt>
      <trkpt lat="44.04014" lon="7.04509">
        <ele>1543.5999755859</ele>
        <time>2010-06-13T08:34:42.000Z</time>
      </trkpt>
      <trkpt lat="44.04018" lon="7.04469">
        <ele>1543.8000488281</ele>
        <time>2010-06-13T08:34:57.000Z</time>
      </trkpt>
      <trkpt lat="44.0402" lon="7.04431">
        <ele>1542.5999755859</ele>
        <time>2010-06-13T08:35:12.000Z</time>
      </trkpt>
      <trkpt lat="44.04034" lon="7.04388">
        <ele>1545.8000488281</ele>
        <time>2010-06-13T08:35:30.000Z</time>
      </trkpt>
      <trkpt lat="44.0404" lon="7.04347">
        <ele>1545</ele>
        <time>2010-06-13T08:35:45.000Z</time>
      </trkpt>
      <trkpt lat="44.04048" lon="7.04297">
        <ele>1545.4000244141</ele>
        <time>2010-06-13T08:36:04.000Z</time>
      </trkpt>
      <trkpt lat="44.0407" lon="7.04253">
        <ele>1549.5999755859</ele>
        <time>2010-06-13T08:36:21.000Z</time>
      </trkpt>
      <trkpt lat="44.04112" lon="7.04264">
        <ele>1556.5999755859</ele>
        <time>2010-06-13T08:36:36.000Z</time>
      </trkpt>
      <trkpt lat="44.04155" lon="7.04269">
        <ele>1561.4000244141</ele>
        <time>2010-06-13T08:36:53.000Z</time>
      </trkpt>
      <trkpt lat="44.04187" lon="7.04266">
        <ele>1562.5999755859</ele>
        <time>2010-06-13T08:37:15.000Z</time>
      </trkpt>
      <trkpt lat="44.04205" lon="7.04265">
        <ele>1563</ele>
        <time>2010-06-13T08:37:28.000Z</time>
      </trkpt>
      <trkpt lat="44.04237" lon="7.04268">
        <ele>1564.8000488281</ele>
        <time>2010-06-13T08:37:50.000Z</time>
      </trkpt>
      <trkpt lat="44.04257" lon="7.0427">
        <ele>1565</ele>
        <time>2010-06-13T08:38:05.000Z</time>
      </trkpt>
      <trkpt lat="44.04281" lon="7.04291">
        <ele>1567.1999511719</ele>
        <time>2010-06-13T08:38:25.000Z</time>
      </trkpt>
      <trkpt lat="44.043" lon="7.04321">
        <ele>1573</ele>
        <time>2010-06-13T08:38:45.000Z</time>
      </trkpt>
      <trkpt lat="44.04317" lon="7.04348">
        <ele>1578.1999511719</ele>
        <time>2010-06-13T08:39:04.000Z</time>
      </trkpt>
      <trkpt lat="44.04334" lon="7.04375">
        <ele>1583.4000244141</ele>
        <time>2010-06-13T08:39:23.000Z</time>
      </trkpt>
      <trkpt lat="44.04349" lon="7.04399">
        <ele>1589</ele>
        <time>2010-06-13T08:39:40.000Z</time>
      </trkpt>
      <trkpt lat="44.04361" lon="7.04427">
        <ele>1597.5999755859</ele>
        <time>2010-06-13T08:39:56.000Z</time>
      </trkpt>
      <trkpt lat="44.04363" lon="7.04429">
        <ele>1598.4000244141</ele>
        <time>2010-06-13T08:39:58.000Z</time>
      </trkpt>
      <trkpt lat="44.04395" lon="7.04428">
        <ele>1595.5999755859</ele>
        <time>2010-06-13T08:40:20.000Z</time>
      </trkpt>
      <trkpt lat="44.04424" lon="7.04435">
        <ele>1597.4000244141</ele>
        <time>2010-06-13T08:40:41.000Z</time>
      </trkpt>
      <trkpt lat="44.04449" lon="7.04443">
        <ele>1601.8000488281</ele>
        <time>2010-06-13T08:41:00.000Z</time>
      </trkpt>
      <trkpt lat="44.04475" lon="7.04452">
        <ele>1606.4000244141</ele>
        <time>2010-06-13T08:41:19.000Z</time>
      </trkpt>
      <trkpt lat="44.04505" lon="7.0444">
        <ele>1603.1999511719</ele>
        <time>2010-06-13T08:41:42.000Z</time>
      </trkpt>
      <trkpt lat="44.04535" lon="7.04442">
        <ele>1605.5999755859</ele>
        <time>2010-06-13T08:42:03.000Z</time>
      </trkpt>
      <trkpt lat="44.04561" lon="7.04447">
        <ele>1609.1999511719</ele>
        <time>2010-06-13T08:42:22.000Z</time>
      </trkpt>
      <trkpt lat="44.04585" lon="7.0445">
        <ele>1612.1999511719</ele>
        <time>2010-06-13T08:42:39.000Z</time>
      </trkpt>
      <trkpt lat="44.04617" lon="7.04457">
        <ele>1617.1999511719</ele>
        <time>2010-06-13T08:43:02.000Z</time>
      </trkpt>
      <trkpt lat="44.04647" lon="7.04457">
        <ele>1619.4000244141</ele>
        <time>2010-06-13T08:43:22.000Z</time>
      </trkpt>
      <trkpt lat="44.04674" lon="7.04451">
        <ele>1619.1999511719</ele>
        <time>2010-06-13T08:43:42.000Z</time>
      </trkpt>
      <trkpt lat="44.047" lon="7.04447">
        <ele>1622</ele>
        <time>2010-06-13T08:44:01.000Z</time>
      </trkpt>
      <trkpt lat="44.04726" lon="7.04444">
        <ele>1624.5999755859</ele>
        <time>2010-06-13T08:44:20.000Z</time>
      </trkpt>
      <trkpt lat="44.04757" lon="7.04442">
        <ele>1628.8000488281</ele>
        <time>2010-06-13T08:44:41.000Z</time>
      </trkpt>
      <trkpt lat="44.04778" lon="7.04442">
        <ele>1631.5999755859</ele>
        <time>2010-06-13T08:44:55.000Z</time>
      </trkpt>
      <trkpt lat="44.04806" lon="7.04436">
        <ele>1633</ele>
        <time>2010-06-13T08:45:15.000Z</time>
      </trkpt>
      <trkpt lat="44.04834" lon="7.04424">
        <ele>1632.5999755859</ele>
        <time>2010-06-13T08:45:36.000Z</time>
      </trkpt>
      <trkpt lat="44.04858" lon="7.04408">
        <ele>1628.5999755859</ele>
        <time>2010-06-13T08:45:55.000Z</time>
      </trkpt>
      <trkpt lat="44.04882" lon="7.04402">
        <ele>1629.5999755859</ele>
        <time>2010-06-13T08:46:12.000Z</time>
      </trkpt>
      <trkpt lat="44.04892" lon="7.04435">
        <ele>1639.4000244141</ele>
        <time>2010-06-13T08:46:28.000Z</time>
      </trkpt>
      <trkpt lat="44.04909" lon="7.04468">
        <ele>1650.8000488281</ele>
        <time>2010-06-13T08:46:47.000Z</time>
      </trkpt>
      <trkpt lat="44.04911" lon="7.04484">
        <ele>1655.8000488281</ele>
        <time>2010-06-13T08:46:55.000Z</time>
      </trkpt>
      <trkpt lat="44.04919" lon="7.04489">
        <ele>1657.5999755859</ele>
        <time>2010-06-13T08:47:00.000Z</time>
      </trkpt>
      <trkpt lat="44.04946" lon="7.04491">
        <ele>1659.8000488281</ele>
        <time>2010-06-13T08:47:18.000Z</time>
      </trkpt>
      <trkpt lat="44.04974" lon="7.04499">
        <ele>1662.8000488281</ele>
        <time>2010-06-13T08:47:37.000Z</time>
      </trkpt>
      <trkpt lat="44.05003" lon="7.045">
        <ele>1664</ele>
        <time>2010-06-13T08:47:56.000Z</time>
      </trkpt>
      <trkpt lat="44.05018" lon="7.04501">
        <ele>1664.8000488281</ele>
        <time>2010-06-13T08:48:06.000Z</time>
      </trkpt>
      <trkpt lat="44.05033" lon="7.0448">
        <ele>1663</ele>
        <time>2010-06-13T08:48:21.000Z</time>
      </trkpt>
      <trkpt lat="44.0506" lon="7.04484">
        <ele>1664.5999755859</ele>
        <time>2010-06-13T08:48:38.000Z</time>
      </trkpt>
      <trkpt lat="44.05076" lon="7.04499">
        <ele>1666.5999755859</ele>
        <time>2010-06-13T08:48:53.000Z</time>
      </trkpt>
      <trkpt lat="44.05077" lon="7.04506">
        <ele>1668</ele>
        <time>2010-06-13T08:49:06.000Z</time>
      </trkpt>
      <trkpt lat="44.05077" lon="7.04505">
        <ele>1668</ele>
        <time>2010-06-13T08:50:03.000Z</time>
      </trkpt>
      <trkpt lat="44.05077" lon="7.04505">
        <ele>1668</ele>
        <time>2010-06-13T08:50:16.000Z</time>
      </trkpt>
      <trkpt lat="44.05075" lon="7.04506">
        <ele>1668.1999511719</ele>
        <time>2010-06-13T08:50:32.000Z</time>
      </trkpt>
      <trkpt lat="44.0508" lon="7.04507">
        <ele>1668.4000244141</ele>
        <time>2010-06-13T08:51:27.000Z</time>
      </trkpt>
      <trkpt lat="44.05076" lon="7.04506">
        <ele>1668</ele>
        <time>2010-06-13T08:51:54.000Z</time>
      </trkpt>
      <trkpt lat="44.05076" lon="7.04505">
        <ele>1668</ele>
        <time>2010-06-13T08:52:29.000Z</time>
      </trkpt>
      <trkpt lat="44.05076" lon="7.04506">
        <ele>1668.1999511719</ele>
        <time>2010-06-13T08:53:06.000Z</time>
      </trkpt>
      <trkpt lat="44.05075" lon="7.04506">
        <ele>1668</ele>
        <time>2010-06-13T08:53:35.000Z</time>
      </trkpt>
      <trkpt lat="44.05074" lon="7.04505">
        <ele>1667.8000488281</ele>
        <time>2010-06-13T08:54:17.000Z</time>
      </trkpt>
      <trkpt lat="44.05073" lon="7.04506">
        <ele>1668</ele>
        <time>2010-06-13T08:54:40.000Z</time>
      </trkpt>
      <trkpt lat="44.05073" lon="7.04505">
        <ele>1667.5999755859</ele>
        <time>2010-06-13T08:58:02.000Z</time>
      </trkpt>
      <trkpt lat="44.05071" lon="7.04503">
        <ele>1667.4000244141</ele>
        <time>2010-06-13T08:59:42.000Z</time>
      </trkpt>
      <trkpt lat="44.05073" lon="7.04503">
        <ele>1667.4000244141</ele>
        <time>2010-06-13T09:00:25.000Z</time>
      </trkpt>
      <trkpt lat="44.05072" lon="7.04503">
        <ele>1667.1999511719</ele>
        <time>2010-06-13T09:01:49.000Z</time>
      </trkpt>
      <trkpt lat="44.05074" lon="7.04503">
        <ele>1667.1999511719</ele>
        <time>2010-06-13T09:02:58.000Z</time>
      </trkpt>
      <trkpt lat="44.05074" lon="7.04502">
        <ele>1667.1999511719</ele>
        <time>2010-06-13T09:04:05.000Z</time>
      </trkpt>
      <trkpt lat="44.05074" lon="7.04503">
        <ele>1667.1999511719</ele>
        <time>2010-06-13T09:04:59.000Z</time>
      </trkpt>
      <trkpt lat="44.05074" lon="7.04504">
        <ele>1667.4000244141</ele>
        <time>2010-06-13T09:05:32.000Z</time>
      </trkpt>
      <trkpt lat="44.05077" lon="7.04502">
        <ele>1667.1999511719</ele>
        <time>2010-06-13T09:06:34.000Z</time>
      </trkpt>
      <trkpt lat="44.0511" lon="7.04515">
        <ele>1662.1999511719</ele>
        <time>2010-06-13T09:06:52.000Z</time>
      </trkpt>
      <trkpt lat="44.0513" lon="7.04552">
        <ele>1666.8000488281</ele>
        <time>2010-06-13T09:07:04.000Z</time>
      </trkpt>
      <trkpt lat="44.05164" lon="7.04582">
        <ele>1668</ele>
        <time>2010-06-13T09:07:16.000Z</time>
      </trkpt>
      <trkpt lat="44.0519" lon="7.04591">
        <ele>1662.5999755859</ele>
        <time>2010-06-13T09:07:24.000Z</time>
      </trkpt>
      <trkpt lat="44.0521" lon="7.04618">
        <ele>1659.4000244141</ele>
        <time>2010-06-13T09:07:30.000Z</time>
      </trkpt>
      <trkpt lat="44.05229" lon="7.04675">
        <ele>1658.1999511719</ele>
        <time>2010-06-13T09:07:36.000Z</time>
      </trkpt>
      <trkpt lat="44.0524" lon="7.04706">
        <ele>1661.1999511719</ele>
        <time>2010-06-13T09:07:39.000Z</time>
      </trkpt>
      <trkpt lat="44.05248" lon="7.04724">
        <ele>1662.1999511719</ele>
        <time>2010-06-13T09:07:41.000Z</time>
      </trkpt>
      <trkpt lat="44.05257" lon="7.04735">
        <ele>1661.4000244141</ele>
        <time>2010-06-13T09:07:43.000Z</time>
      </trkpt>
      <trkpt lat="44.05265" lon="7.04742">
        <ele>1659.5999755859</ele>
        <time>2010-06-13T09:07:45.000Z</time>
      </trkpt>
      <trkpt lat="44.05276" lon="7.04743">
        <ele>1655.4000244141</ele>
        <time>2010-06-13T09:07:48.000Z</time>
      </trkpt>
      <trkpt lat="44.05287" lon="7.0474">
        <ele>1650.1999511719</ele>
        <time>2010-06-13T09:07:51.000Z</time>
      </trkpt>
      <trkpt lat="44.053" lon="7.04741">
        <ele>1644.8000488281</ele>
        <time>2010-06-13T09:07:54.000Z</time>
      </trkpt>
      <trkpt lat="44.05321" lon="7.04756">
        <ele>1639.5999755859</ele>
        <time>2010-06-13T09:07:59.000Z</time>
      </trkpt>
      <trkpt lat="44.05335" lon="7.04803">
        <ele>1645.8000488281</ele>
        <time>2010-06-13T09:08:12.000Z</time>
      </trkpt>
      <trkpt lat="44.05343" lon="7.0483">
        <ele>1652.5999755859</ele>
        <time>2010-06-13T09:08:19.000Z</time>
      </trkpt>
      <trkpt lat="44.05363" lon="7.04839">
        <ele>1657</ele>
        <time>2010-06-13T09:08:24.000Z</time>
      </trkpt>
      <trkpt lat="44.05371" lon="7.04844">
        <ele>1659.8000488281</ele>
        <time>2010-06-13T09:08:26.000Z</time>
      </trkpt>
      <trkpt lat="44.05376" lon="7.04847">
        <ele>1661.1999511719</ele>
        <time>2010-06-13T09:08:27.000Z</time>
      </trkpt>
      <trkpt lat="44.05395" lon="7.04861">
        <ele>1667.8000488281</ele>
        <time>2010-06-13T09:08:31.000Z</time>
      </trkpt>
      <trkpt lat="44.054" lon="7.04864">
        <ele>1669.1999511719</ele>
        <time>2010-06-13T09:08:32.000Z</time>
      </trkpt>
      <trkpt lat="44.05417" lon="7.04856">
        <ele>1666.5999755859</ele>
        <time>2010-06-13T09:08:38.000Z</time>
      </trkpt>
      <trkpt lat="44.05424" lon="7.04809">
        <ele>1653</ele>
        <time>2010-06-13T09:08:52.000Z</time>
      </trkpt>
      <trkpt lat="44.05434" lon="7.04757">
        <ele>1641.5999755859</ele>
        <time>2010-06-13T09:09:12.000Z</time>
      </trkpt>
      <trkpt lat="44.05457" lon="7.04736">
        <ele>1642.5999755859</ele>
        <time>2010-06-13T09:09:28.000Z</time>
      </trkpt>
      <trkpt lat="44.05501" lon="7.04732">
        <ele>1654.4000244141</ele>
        <time>2010-06-13T09:09:50.000Z</time>
      </trkpt>
      <trkpt lat="44.05544" lon="7.04737">
        <ele>1659.4000244141</ele>
        <time>2010-06-13T09:10:10.000Z</time>
      </trkpt>
      <trkpt lat="44.05567" lon="7.04756">
        <ele>1667.1999511719</ele>
        <time>2010-06-13T09:10:23.000Z</time>
      </trkpt>
      <trkpt lat="44.05588" lon="7.04789">
        <ele>1681.5999755859</ele>
        <time>2010-06-13T09:10:37.000Z</time>
      </trkpt>
      <trkpt lat="44.05594" lon="7.04794">
        <ele>1684.5999755859</ele>
        <time>2010-06-13T09:10:42.000Z</time>
      </trkpt>
      <trkpt lat="44.05614" lon="7.04779">
        <ele>1684.8000488281</ele>
        <time>2010-06-13T09:10:55.000Z</time>
      </trkpt>
      <trkpt lat="44.05619" lon="7.04746">
        <ele>1676.1999511719</ele>
        <time>2010-06-13T09:11:10.000Z</time>
      </trkpt>
      <trkpt lat="44.05634" lon="7.04708">
        <ele>1673.4000244141</ele>
        <time>2010-06-13T09:11:27.000Z</time>
      </trkpt>
      <trkpt lat="44.05645" lon="7.04678">
        <ele>1672.4000244141</ele>
        <time>2010-06-13T09:11:40.000Z</time>
      </trkpt>
      <trkpt lat="44.05669" lon="7.04655">
        <ele>1680.1999511719</ele>
        <time>2010-06-13T09:11:57.000Z</time>
      </trkpt>
      <trkpt lat="44.0568" lon="7.04632">
        <ele>1681.4000244141</ele>
        <time>2010-06-13T09:12:10.000Z</time>
      </trkpt>
      <trkpt lat="44.05674" lon="7.04598">
        <ele>1678.8000488281</ele>
        <time>2010-06-13T09:12:26.000Z</time>
      </trkpt>
      <trkpt lat="44.05668" lon="7.04557">
        <ele>1677.1999511719</ele>
        <time>2010-06-13T09:12:44.000Z</time>
      </trkpt>
      <trkpt lat="44.05666" lon="7.04543">
        <ele>1676.5999755859</ele>
        <time>2010-06-13T09:12:50.000Z</time>
      </trkpt>
      <trkpt lat="44.05671" lon="7.04544">
        <ele>1676.5999755859</ele>
        <time>2010-06-13T09:12:57.000Z</time>
      </trkpt>
      <trkpt lat="44.05683" lon="7.04588">
        <ele>1678.5999755859</ele>
        <time>2010-06-13T09:13:18.000Z</time>
      </trkpt>
      <trkpt lat="44.05706" lon="7.04608">
        <ele>1682.4000244141</ele>
        <time>2010-06-13T09:13:34.000Z</time>
      </trkpt>
      <trkpt lat="44.05734" lon="7.04633">
        <ele>1691</ele>
        <time>2010-06-13T09:13:53.000Z</time>
      </trkpt>
      <trkpt lat="44.05772" lon="7.04657">
        <ele>1696.4000244141</ele>
        <time>2010-06-13T09:14:15.000Z</time>
      </trkpt>
      <trkpt lat="44.05797" lon="7.04693">
        <ele>1705.4000244141</ele>
        <time>2010-06-13T09:14:32.000Z</time>
      </trkpt>
      <trkpt lat="44.05826" lon="7.04703">
        <ele>1707.1999511719</ele>
        <time>2010-06-13T09:14:44.000Z</time>
      </trkpt>
      <trkpt lat="44.05866" lon="7.04692">
        <ele>1700.4000244141</ele>
        <time>2010-06-13T09:15:01.000Z</time>
      </trkpt>
      <trkpt lat="44.05901" lon="7.04715">
        <ele>1708.8000488281</ele>
        <time>2010-06-13T09:15:18.000Z</time>
      </trkpt>
      <trkpt lat="44.0594" lon="7.04706">
        <ele>1706</ele>
        <time>2010-06-13T09:15:36.000Z</time>
      </trkpt>
      <trkpt lat="44.05993" lon="7.04702">
        <ele>1708.4000244141</ele>
        <time>2010-06-13T09:15:58.000Z</time>
      </trkpt>
      <trkpt lat="44.06016" lon="7.04702">
        <ele>1710.1999511719</ele>
        <time>2010-06-13T09:16:07.000Z</time>
      </trkpt>
      <trkpt lat="44.06053" lon="7.04712">
        <ele>1713.4000244141</ele>
        <time>2010-06-13T09:16:25.000Z</time>
      </trkpt>
      <trkpt lat="44.06059" lon="7.04732">
        <ele>1714.4000244141</ele>
        <time>2010-06-13T09:16:34.000Z</time>
      </trkpt>
      <trkpt lat="44.06058" lon="7.04734">
        <ele>1714.4000244141</ele>
        <time>2010-06-13T09:16:35.000Z</time>
      </trkpt>
      <trkpt lat="44.06051" lon="7.04744">
        <ele>1715.1999511719</ele>
        <time>2010-06-13T09:16:43.000Z</time>
      </trkpt>
      <trkpt lat="44.06051" lon="7.04746">
        <ele>1715.4000244141</ele>
        <time>2010-06-13T09:16:45.000Z</time>
      </trkpt>
      <trkpt lat="44.06048" lon="7.04752">
        <ele>1716.1999511719</ele>
        <time>2010-06-13T09:16:49.000Z</time>
      </trkpt>
      <trkpt lat="44.06043" lon="7.04754">
        <ele>1717</ele>
        <time>2010-06-13T09:16:53.000Z</time>
      </trkpt>
      <trkpt lat="44.06031" lon="7.04765">
        <ele>1720.1999511719</ele>
        <time>2010-06-13T09:17:03.000Z</time>
      </trkpt>
      <trkpt lat="44.06026" lon="7.04772">
        <ele>1722.1999511719</ele>
        <time>2010-06-13T09:17:08.000Z</time>
      </trkpt>
      <trkpt lat="44.06018" lon="7.0478">
        <ele>1724.8000488281</ele>
        <time>2010-06-13T09:17:15.000Z</time>
      </trkpt>
      <trkpt lat="44.06003" lon="7.04796">
        <ele>1730.4000244141</ele>
        <time>2010-06-13T09:17:28.000Z</time>
      </trkpt>
      <trkpt lat="44.05999" lon="7.048">
        <ele>1732</ele>
        <time>2010-06-13T09:17:31.000Z</time>
      </trkpt>
      <trkpt lat="44.05997" lon="7.04803">
        <ele>1733</ele>
        <time>2010-06-13T09:17:33.000Z</time>
      </trkpt>
      <trkpt lat="44.05999" lon="7.04823">
        <ele>1737.5999755859</ele>
        <time>2010-06-13T09:17:45.000Z</time>
      </trkpt>
      <trkpt lat="44.06008" lon="7.04849">
        <ele>1742.8000488281</ele>
        <time>2010-06-13T09:18:00.000Z</time>
      </trkpt>
      <trkpt lat="44.06013" lon="7.04865">
        <ele>1746</ele>
        <time>2010-06-13T09:18:09.000Z</time>
      </trkpt>
      <trkpt lat="44.06013" lon="7.04867">
        <ele>1746.4000244141</ele>
        <time>2010-06-13T09:18:10.000Z</time>
      </trkpt>
      <trkpt lat="44.06017" lon="7.04882">
        <ele>1749.8000488281</ele>
        <time>2010-06-13T09:18:18.000Z</time>
      </trkpt>
      <trkpt lat="44.06026" lon="7.04905">
        <ele>1753.1999511719</ele>
        <time>2010-06-13T09:18:32.000Z</time>
      </trkpt>
      <trkpt lat="44.06027" lon="7.04909">
        <ele>1754.1999511719</ele>
        <time>2010-06-13T09:18:35.000Z</time>
      </trkpt>
      <trkpt lat="44.0603" lon="7.04921">
        <ele>1755.8000488281</ele>
        <time>2010-06-13T09:18:53.000Z</time>
      </trkpt>
      <trkpt lat="44.06032" lon="7.04938">
        <ele>1758.1999511719</ele>
        <time>2010-06-13T09:19:09.000Z</time>
      </trkpt>
      <trkpt lat="44.06032" lon="7.0495">
        <ele>1760.4000244141</ele>
        <time>2010-06-13T09:19:21.000Z</time>
      </trkpt>
      <trkpt lat="44.06038" lon="7.04968">
        <ele>1762</ele>
        <time>2010-06-13T09:19:32.000Z</time>
      </trkpt>
      <trkpt lat="44.06042" lon="7.04986">
        <ele>1763.4000244141</ele>
        <time>2010-06-13T09:19:46.000Z</time>
      </trkpt>
      <trkpt lat="44.06048" lon="7.04993">
        <ele>1762.8000488281</ele>
        <time>2010-06-13T09:19:58.000Z</time>
      </trkpt>
      <trkpt lat="44.06047" lon="7.04992">
        <ele>1762.8000488281</ele>
        <time>2010-06-13T09:20:30.000Z</time>
      </trkpt>
      <trkpt lat="44.06049" lon="7.04992">
        <ele>1762</ele>
        <time>2010-06-13T09:27:40.000Z</time>
      </trkpt>
      <trkpt lat="44.06063" lon="7.05024">
        <ele>1765</ele>
        <time>2010-06-13T09:27:53.000Z</time>
      </trkpt>
      <trkpt lat="44.06068" lon="7.05041">
        <ele>1767.4000244141</ele>
        <time>2010-06-13T09:27:59.000Z</time>
      </trkpt>
      <trkpt lat="44.06078" lon="7.05078">
        <ele>1773</ele>
        <time>2010-06-13T09:28:11.000Z</time>
      </trkpt>
      <trkpt lat="44.06085" lon="7.05104">
        <ele>1778.8000488281</ele>
        <time>2010-06-13T09:28:22.000Z</time>
      </trkpt>
      <trkpt lat="44.06093" lon="7.05111">
        <ele>1778.4000244141</ele>
        <time>2010-06-13T09:28:29.000Z</time>
      </trkpt>
      <trkpt lat="44.06104" lon="7.05126">
        <ele>1779.8000488281</ele>
        <time>2010-06-13T09:28:40.000Z</time>
      </trkpt>
      <trkpt lat="44.0611" lon="7.05132">
        <ele>1780</ele>
        <time>2010-06-13T09:28:52.000Z</time>
      </trkpt>
      <trkpt lat="44.06122" lon="7.05147">
        <ele>1781</ele>
        <time>2010-06-13T09:29:07.000Z</time>
      </trkpt>
      <trkpt lat="44.0613" lon="7.05154">
        <ele>1780.5999755859</ele>
        <time>2010-06-13T09:29:19.000Z</time>
      </trkpt>
      <trkpt lat="44.06136" lon="7.05166">
        <ele>1782.8000488281</ele>
        <time>2010-06-13T09:29:33.000Z</time>
      </trkpt>
      <trkpt lat="44.06145" lon="7.05182">
        <ele>1785.8000488281</ele>
        <time>2010-06-13T09:29:51.000Z</time>
      </trkpt>
      <trkpt lat="44.06146" lon="7.05184">
        <ele>1786.1999511719</ele>
        <time>2010-06-13T09:29:53.000Z</time>
      </trkpt>
      <trkpt lat="44.06161" lon="7.05202">
        <ele>1787.1999511719</ele>
        <time>2010-06-13T09:30:11.000Z</time>
      </trkpt>
      <trkpt lat="44.06177" lon="7.05213">
        <ele>1789</ele>
        <time>2010-06-13T09:30:29.000Z</time>
      </trkpt>
      <trkpt lat="44.06189" lon="7.05229">
        <ele>1793.4000244141</ele>
        <time>2010-06-13T09:30:46.000Z</time>
      </trkpt>
      <trkpt lat="44.06198" lon="7.05241">
        <ele>1797</ele>
        <time>2010-06-13T09:30:59.000Z</time>
      </trkpt>
      <trkpt lat="44.06206" lon="7.05261">
        <ele>1803</ele>
        <time>2010-06-13T09:31:17.000Z</time>
      </trkpt>
      <trkpt lat="44.06217" lon="7.05266">
        <ele>1803</ele>
        <time>2010-06-13T09:31:33.000Z</time>
      </trkpt>
      <trkpt lat="44.06222" lon="7.05268">
        <ele>1803.1999511719</ele>
        <time>2010-06-13T09:31:49.000Z</time>
      </trkpt>
      <trkpt lat="44.0623" lon="7.05277">
        <ele>1804.8000488281</ele>
        <time>2010-06-13T09:32:03.000Z</time>
      </trkpt>
      <trkpt lat="44.0624" lon="7.05291">
        <ele>1807.5999755859</ele>
        <time>2010-06-13T09:32:24.000Z</time>
      </trkpt>
      <trkpt lat="44.06243" lon="7.05293">
        <ele>1807.4000244141</ele>
        <time>2010-06-13T09:32:29.000Z</time>
      </trkpt>
      <trkpt lat="44.06252" lon="7.05301">
        <ele>1808.4000244141</ele>
        <time>2010-06-13T09:32:41.000Z</time>
      </trkpt>
      <trkpt lat="44.06267" lon="7.05321">
        <ele>1815</ele>
        <time>2010-06-13T09:32:58.000Z</time>
      </trkpt>
      <trkpt lat="44.0629" lon="7.05347">
        <ele>1822</ele>
        <time>2010-06-13T09:33:14.000Z</time>
      </trkpt>
      <trkpt lat="44.0631" lon="7.05358">
        <ele>1824.5999755859</ele>
        <time>2010-06-13T09:33:29.000Z</time>
      </trkpt>
      <trkpt lat="44.06318" lon="7.0537">
        <ele>1826.5999755859</ele>
        <time>2010-06-13T09:33:38.000Z</time>
      </trkpt>
      <trkpt lat="44.06319" lon="7.05372">
        <ele>1827</ele>
        <time>2010-06-13T09:33:40.000Z</time>
      </trkpt>
      <trkpt lat="44.06321" lon="7.05375">
        <ele>1827.4000244141</ele>
        <time>2010-06-13T09:33:42.000Z</time>
      </trkpt>
      <trkpt lat="44.0633" lon="7.05389">
        <ele>1829.1999511719</ele>
        <time>2010-06-13T09:33:54.000Z</time>
      </trkpt>
      <trkpt lat="44.06336" lon="7.05396">
        <ele>1830</ele>
        <time>2010-06-13T09:34:01.000Z</time>
      </trkpt>
      <trkpt lat="44.06343" lon="7.05434">
        <ele>1833.5999755859</ele>
        <time>2010-06-13T09:34:24.000Z</time>
      </trkpt>
      <trkpt lat="44.06343" lon="7.05438">
        <ele>1834</ele>
        <time>2010-06-13T09:34:26.000Z</time>
      </trkpt>
      <trkpt lat="44.06352" lon="7.0548">
        <ele>1836.4000244141</ele>
        <time>2010-06-13T09:34:46.000Z</time>
      </trkpt>
      <trkpt lat="44.06359" lon="7.05503">
        <ele>1837.4000244141</ele>
        <time>2010-06-13T09:34:58.000Z</time>
      </trkpt>
      <trkpt lat="44.06361" lon="7.05532">
        <ele>1840.1999511719</ele>
        <time>2010-06-13T09:35:12.000Z</time>
      </trkpt>
      <trkpt lat="44.06359" lon="7.05558">
        <ele>1843</ele>
        <time>2010-06-13T09:35:25.000Z</time>
      </trkpt>
      <trkpt lat="44.06358" lon="7.0556">
        <ele>1843.1999511719</ele>
        <time>2010-06-13T09:35:26.000Z</time>
      </trkpt>
      <trkpt lat="44.06356" lon="7.05591">
        <ele>1846.5999755859</ele>
        <time>2010-06-13T09:35:42.000Z</time>
      </trkpt>
      <trkpt lat="44.06363" lon="7.05635">
        <ele>1850.4000244141</ele>
        <time>2010-06-13T09:36:02.000Z</time>
      </trkpt>
      <trkpt lat="44.06362" lon="7.05645">
        <ele>1851.5999755859</ele>
        <time>2010-06-13T09:36:16.000Z</time>
      </trkpt>
      <trkpt lat="44.0636" lon="7.05674">
        <ele>1854.1999511719</ele>
        <time>2010-06-13T09:36:38.000Z</time>
      </trkpt>
      <trkpt lat="44.06358" lon="7.05732">
        <ele>1854.8000488281</ele>
        <time>2010-06-13T09:36:54.000Z</time>
      </trkpt>
      <trkpt lat="44.06358" lon="7.05734">
        <ele>1855</ele>
        <time>2010-06-13T09:36:55.000Z</time>
      </trkpt>
      <trkpt lat="44.06355" lon="7.05739">
        <ele>1855.1999511719</ele>
        <time>2010-06-13T09:36:59.000Z</time>
      </trkpt>
      <trkpt lat="44.06352" lon="7.05735">
        <ele>1855.4000244141</ele>
        <time>2010-06-13T09:37:02.000Z</time>
      </trkpt>
      <trkpt lat="44.06334" lon="7.05724">
        <ele>1856.8000488281</ele>
        <time>2010-06-13T09:37:17.000Z</time>
      </trkpt>
      <trkpt lat="44.06334" lon="7.05724">
        <ele>1856.8000488281</ele>
        <time>2010-06-13T09:37:58.000Z</time>
      </trkpt>
      <trkpt lat="44.06311" lon="7.05708">
        <ele>1859.4000244141</ele>
        <time>2010-06-13T09:38:12.000Z</time>
      </trkpt>
      <trkpt lat="44.063" lon="7.05701">
        <ele>1860.5999755859</ele>
        <time>2010-06-13T09:38:19.000Z</time>
      </trkpt>
      <trkpt lat="44.06281" lon="7.05684">
        <ele>1862.1999511719</ele>
        <time>2010-06-13T09:38:35.000Z</time>
      </trkpt>
      <trkpt lat="44.06275" lon="7.05676">
        <ele>1862.8000488281</ele>
        <time>2010-06-13T09:38:43.000Z</time>
      </trkpt>
      <trkpt lat="44.06272" lon="7.05674">
        <ele>1863</ele>
        <time>2010-06-13T09:38:46.000Z</time>
      </trkpt>
      <trkpt lat="44.06257" lon="7.05653">
        <ele>1863.1999511719</ele>
        <time>2010-06-13T09:39:05.000Z</time>
      </trkpt>
      <trkpt lat="44.0624" lon="7.05641">
        <ele>1865.4000244141</ele>
        <time>2010-06-13T09:39:23.000Z</time>
      </trkpt>
      <trkpt lat="44.06217" lon="7.05625">
        <ele>1869.1999511719</ele>
        <time>2010-06-13T09:39:46.000Z</time>
      </trkpt>
      <trkpt lat="44.06194" lon="7.0562">
        <ele>1873.8000488281</ele>
        <time>2010-06-13T09:40:08.000Z</time>
      </trkpt>
      <trkpt lat="44.0617" lon="7.05617">
        <ele>1878.8000488281</ele>
        <time>2010-06-13T09:40:31.000Z</time>
      </trkpt>
      <trkpt lat="44.0616" lon="7.05618">
        <ele>1882.5999755859</ele>
        <time>2010-06-13T09:40:46.000Z</time>
      </trkpt>
      <trkpt lat="44.06154" lon="7.05616">
        <ele>1885.1999511719</ele>
        <time>2010-06-13T09:41:05.000Z</time>
      </trkpt>
      <trkpt lat="44.06154" lon="7.05615">
        <ele>1885.4000244141</ele>
        <time>2010-06-13T09:42:32.000Z</time>
      </trkpt>
      <trkpt lat="44.06146" lon="7.05606">
        <ele>1887.8000488281</ele>
        <time>2010-06-13T09:43:41.000Z</time>
      </trkpt>
      <trkpt lat="44.06133" lon="7.05592">
        <ele>1891.8000488281</ele>
        <time>2010-06-13T09:44:00.000Z</time>
      </trkpt>
      <trkpt lat="44.06124" lon="7.05584">
        <ele>1894.1999511719</ele>
        <time>2010-06-13T09:44:15.000Z</time>
      </trkpt>
      <trkpt lat="44.06118" lon="7.05578">
        <ele>1896</ele>
        <time>2010-06-13T09:44:36.000Z</time>
      </trkpt>
      <trkpt lat="44.06105" lon="7.05566">
        <ele>1899.5999755859</ele>
        <time>2010-06-13T09:45:00.000Z</time>
      </trkpt>
      <trkpt lat="44.06101" lon="7.05563">
        <ele>1900.4000244141</ele>
        <time>2010-06-13T09:45:05.000Z</time>
      </trkpt>
      <trkpt lat="44.06093" lon="7.05554">
        <ele>1902</ele>
        <time>2010-06-13T09:45:18.000Z</time>
      </trkpt>
      <trkpt lat="44.06089" lon="7.05549">
        <ele>1903</ele>
        <time>2010-06-13T09:45:24.000Z</time>
      </trkpt>
      <trkpt lat="44.06079" lon="7.05539">
        <ele>1905.4000244141</ele>
        <time>2010-06-13T09:45:40.000Z</time>
      </trkpt>
      <trkpt lat="44.06078" lon="7.05538">
        <ele>1905.5999755859</ele>
        <time>2010-06-13T09:45:41.000Z</time>
      </trkpt>
      <trkpt lat="44.06067" lon="7.05529">
        <ele>1909</ele>
        <time>2010-06-13T09:45:58.000Z</time>
      </trkpt>
      <trkpt lat="44.06056" lon="7.05516">
        <ele>1911.5999755859</ele>
        <time>2010-06-13T09:46:17.000Z</time>
      </trkpt>
      <trkpt lat="44.06047" lon="7.05513">
        <ele>1915</ele>
        <time>2010-06-13T09:46:32.000Z</time>
      </trkpt>
      <trkpt lat="44.06043" lon="7.05513">
        <ele>1916.5999755859</ele>
        <time>2010-06-13T09:46:40.000Z</time>
      </trkpt>
      <trkpt lat="44.06041" lon="7.05512">
        <ele>1917.5999755859</ele>
        <time>2010-06-13T09:47:00.000Z</time>
      </trkpt>
      <trkpt lat="44.06035" lon="7.05511">
        <ele>1920.4000244141</ele>
        <time>2010-06-13T09:47:14.000Z</time>
      </trkpt>
      <trkpt lat="44.06027" lon="7.0551">
        <ele>1923.4000244141</ele>
        <time>2010-06-13T09:47:27.000Z</time>
      </trkpt>
      <trkpt lat="44.06016" lon="7.05504">
        <ele>1927.5999755859</ele>
        <time>2010-06-13T09:47:44.000Z</time>
      </trkpt>
      <trkpt lat="44.06007" lon="7.05503">
        <ele>1931.5999755859</ele>
        <time>2010-06-13T09:47:59.000Z</time>
      </trkpt>
      <trkpt lat="44.06002" lon="7.05505">
        <ele>1933.8000488281</ele>
        <time>2010-06-13T09:48:06.000Z</time>
      </trkpt>
      <trkpt lat="44.05993" lon="7.055">
        <ele>1935.4000244141</ele>
        <time>2010-06-13T09:48:21.000Z</time>
      </trkpt>
      <trkpt lat="44.05985" lon="7.055">
        <ele>1937.1999511719</ele>
        <time>2010-06-13T09:48:35.000Z</time>
      </trkpt>
      <trkpt lat="44.05977" lon="7.05507">
        <ele>1940.4000244141</ele>
        <time>2010-06-13T09:48:51.000Z</time>
      </trkpt>
      <trkpt lat="44.05973" lon="7.05509">
        <ele>1941.5999755859</ele>
        <time>2010-06-13T09:49:02.000Z</time>
      </trkpt>
      <trkpt lat="44.05955" lon="7.05497">
        <ele>1943</ele>
        <time>2010-06-13T09:49:21.000Z</time>
      </trkpt>
      <trkpt lat="44.05952" lon="7.05496">
        <ele>1943.5999755859</ele>
        <time>2010-06-13T09:49:25.000Z</time>
      </trkpt>
      <trkpt lat="44.05939" lon="7.05492">
        <ele>1945.8000488281</ele>
        <time>2010-06-13T09:49:41.000Z</time>
      </trkpt>
      <trkpt lat="44.05923" lon="7.05497">
        <ele>1950</ele>
        <time>2010-06-13T09:49:59.000Z</time>
      </trkpt>
      <trkpt lat="44.05911" lon="7.05498">
        <ele>1951.8000488281</ele>
        <time>2010-06-13T09:50:19.000Z</time>
      </trkpt>
      <trkpt lat="44.05903" lon="7.05496">
        <ele>1952</ele>
        <time>2010-06-13T09:50:30.000Z</time>
      </trkpt>
      <trkpt lat="44.05901" lon="7.05495">
        <ele>1952</ele>
        <time>2010-06-13T09:50:33.000Z</time>
      </trkpt>
      <trkpt lat="44.05898" lon="7.05495">
        <ele>1952</ele>
        <time>2010-06-13T09:50:35.000Z</time>
      </trkpt>
      <trkpt lat="44.05895" lon="7.05493">
        <ele>1952</ele>
        <time>2010-06-13T09:50:52.000Z</time>
      </trkpt>
      <trkpt lat="44.05895" lon="7.05493">
        <ele>1951.8000488281</ele>
        <time>2010-06-13T09:52:07.000Z</time>
      </trkpt>
      <trkpt lat="44.05896" lon="7.05494">
        <ele>1952</ele>
        <time>2010-06-13T09:52:09.000Z</time>
      </trkpt>
      <trkpt lat="44.059" lon="7.05516">
        <ele>1955.1999511719</ele>
        <time>2010-06-13T09:52:29.000Z</time>
      </trkpt>
      <trkpt lat="44.05906" lon="7.05542">
        <ele>1959</ele>
        <time>2010-06-13T09:52:49.000Z</time>
      </trkpt>
      <trkpt lat="44.05916" lon="7.05573">
        <ele>1964.1999511719</ele>
        <time>2010-06-13T09:53:13.000Z</time>
      </trkpt>
      <trkpt lat="44.05917" lon="7.05575">
        <ele>1964.4000244141</ele>
        <time>2010-06-13T09:53:15.000Z</time>
      </trkpt>
      <trkpt lat="44.05922" lon="7.05589">
        <ele>1965.4000244141</ele>
        <time>2010-06-13T09:53:38.000Z</time>
      </trkpt>
      <trkpt lat="44.05927" lon="7.05611">
        <ele>1967</ele>
        <time>2010-06-13T09:54:12.000Z</time>
      </trkpt>
      <trkpt lat="44.05925" lon="7.05625">
        <ele>1968.5999755859</ele>
        <time>2010-06-13T09:54:30.000Z</time>
      </trkpt>
      <trkpt lat="44.05925" lon="7.0563">
        <ele>1969.1999511719</ele>
        <time>2010-06-13T09:54:37.000Z</time>
      </trkpt>
      <trkpt lat="44.05923" lon="7.05634">
        <ele>1969.5999755859</ele>
        <time>2010-06-13T09:54:39.000Z</time>
      </trkpt>
      <trkpt lat="44.05926" lon="7.0565">
        <ele>1971</ele>
        <time>2010-06-13T09:54:45.000Z</time>
      </trkpt>
      <trkpt lat="44.05927" lon="7.05664">
        <ele>1972.4000244141</ele>
        <time>2010-06-13T09:54:49.000Z</time>
      </trkpt>
      <trkpt lat="44.05937" lon="7.05708">
        <ele>1975</ele>
        <time>2010-06-13T09:55:08.000Z</time>
      </trkpt>
      <trkpt lat="44.05928" lon="7.05743">
        <ele>1977</ele>
        <time>2010-06-13T09:55:24.000Z</time>
      </trkpt>
      <trkpt lat="44.05922" lon="7.0575">
        <ele>1977.8000488281</ele>
        <time>2010-06-13T09:55:29.000Z</time>
      </trkpt>
      <trkpt lat="44.05919" lon="7.05755">
        <ele>1978.1999511719</ele>
        <time>2010-06-13T09:55:32.000Z</time>
      </trkpt>
      <trkpt lat="44.05911" lon="7.05789">
        <ele>1980</ele>
        <time>2010-06-13T09:55:50.000Z</time>
      </trkpt>
      <trkpt lat="44.05903" lon="7.05823">
        <ele>1981.8000488281</ele>
        <time>2010-06-13T09:56:08.000Z</time>
      </trkpt>
      <trkpt lat="44.05886" lon="7.05857">
        <ele>1981.8000488281</ele>
        <time>2010-06-13T09:56:28.000Z</time>
      </trkpt>
      <trkpt lat="44.05866" lon="7.05889">
        <ele>1982.1999511719</ele>
        <time>2010-06-13T09:56:50.000Z</time>
      </trkpt>
      <trkpt lat="44.0586" lon="7.05897">
        <ele>1982.5999755859</ele>
        <time>2010-06-13T09:56:56.000Z</time>
      </trkpt>
      <trkpt lat="44.05859" lon="7.059">
        <ele>1982.8000488281</ele>
        <time>2010-06-13T09:56:58.000Z</time>
      </trkpt>
      <trkpt lat="44.05854" lon="7.05899">
        <ele>1982.5999755859</ele>
        <time>2010-06-13T09:57:02.000Z</time>
      </trkpt>
      <trkpt lat="44.0584" lon="7.05904">
        <ele>1982.8000488281</ele>
        <time>2010-06-13T09:57:18.000Z</time>
      </trkpt>
      <trkpt lat="44.05838" lon="7.05901">
        <ele>1982.4000244141</ele>
        <time>2010-06-13T09:57:21.000Z</time>
      </trkpt>
      <trkpt lat="44.05837" lon="7.05898">
        <ele>1982.1999511719</ele>
        <time>2010-06-13T09:57:23.000Z</time>
      </trkpt>
      <trkpt lat="44.05838" lon="7.05895">
        <ele>1982</ele>
        <time>2010-06-13T09:57:25.000Z</time>
      </trkpt>
      <trkpt lat="44.05844" lon="7.0589">
        <ele>1981.8000488281</ele>
        <time>2010-06-13T09:57:39.000Z</time>
      </trkpt>
      <trkpt lat="44.05843" lon="7.0589">
        <ele>1981.5999755859</ele>
        <time>2010-06-13T09:57:53.000Z</time>
      </trkpt>
      <trkpt lat="44.05844" lon="7.05891">
        <ele>1981.8000488281</ele>
        <time>2010-06-13T09:58:04.000Z</time>
      </trkpt>
      <trkpt lat="44.05844" lon="7.05895">
        <ele>1982</ele>
        <time>2010-06-13T09:58:07.000Z</time>
      </trkpt>
      <trkpt lat="44.05841" lon="7.05898">
        <ele>1982.1999511719</ele>
        <time>2010-06-13T09:58:25.000Z</time>
      </trkpt>
      <trkpt lat="44.05842" lon="7.05895">
        <ele>1982</ele>
        <time>2010-06-13T09:58:48.000Z</time>
      </trkpt>
      <trkpt lat="44.05843" lon="7.05892">
        <ele>1981.8000488281</ele>
        <time>2010-06-13T09:59:02.000Z</time>
      </trkpt>
      <trkpt lat="44.05842" lon="7.05893">
        <ele>1981.8000488281</ele>
        <time>2010-06-13T09:59:44.000Z</time>
      </trkpt>
      <trkpt lat="44.05841" lon="7.05895">
        <ele>1982</ele>
        <time>2010-06-13T09:59:56.000Z</time>
      </trkpt>
      <trkpt lat="44.05841" lon="7.05894">
        <ele>1982</ele>
        <time>2010-06-13T10:00:54.000Z</time>
      </trkpt>
      <trkpt lat="44.05844" lon="7.05895">
        <ele>1982.1999511719</ele>
        <time>2010-06-13T10:01:13.000Z</time>
      </trkpt>
      <trkpt lat="44.05843" lon="7.05891">
        <ele>1981.8000488281</ele>
        <time>2010-06-13T10:01:28.000Z</time>
      </trkpt>
      <trkpt lat="44.05841" lon="7.05894">
        <ele>1982</ele>
        <time>2010-06-13T10:01:49.000Z</time>
      </trkpt>
      <trkpt lat="44.05844" lon="7.05893">
        <ele>1981.8000488281</ele>
        <time>2010-06-13T10:02:28.000Z</time>
      </trkpt>
      <trkpt lat="44.05844" lon="7.05895">
        <ele>1982.1999511719</ele>
        <time>2010-06-13T10:02:51.000Z</time>
      </trkpt>
      <trkpt lat="44.05845" lon="7.05894">
        <ele>1982</ele>
        <time>2010-06-13T10:06:01.000Z</time>
      </trkpt>
      <trkpt lat="44.05845" lon="7.05895">
        <ele>1982</ele>
        <time>2010-06-13T10:07:11.000Z</time>
      </trkpt>
      <trkpt lat="44.05844" lon="7.05895">
        <ele>1982</ele>
        <time>2010-06-13T10:23:35.000Z</time>
      </trkpt>
      <trkpt lat="44.05851" lon="7.05886">
        <ele>1981.5999755859</ele>
        <time>2010-06-13T10:23:49.000Z</time>
      </trkpt>
      <trkpt lat="44.05849" lon="7.05889">
        <ele>1981.8000488281</ele>
        <time>2010-06-13T10:23:59.000Z</time>
      </trkpt>
      <trkpt lat="44.05844" lon="7.05894">
        <ele>1982</ele>
        <time>2010-06-13T10:24:05.000Z</time>
      </trkpt>
      <trkpt lat="44.05841" lon="7.05897">
        <ele>1982.1999511719</ele>
        <time>2010-06-13T10:24:24.000Z</time>
      </trkpt>
      <trkpt lat="44.05841" lon="7.05895">
        <ele>1982</ele>
        <time>2010-06-13T10:25:46.000Z</time>
      </trkpt>
      <trkpt lat="44.0584" lon="7.05894">
        <ele>1982</ele>
        <time>2010-06-13T10:26:02.000Z</time>
      </trkpt>
      <trkpt lat="44.05842" lon="7.05893">
        <ele>1981.8000488281</ele>
        <time>2010-06-13T10:26:15.000Z</time>
      </trkpt>
      <trkpt lat="44.05844" lon="7.05894">
        <ele>1982</ele>
        <time>2010-06-13T10:26:29.000Z</time>
      </trkpt>
      <trkpt lat="44.05844" lon="7.05894">
        <ele>1982</ele>
        <time>2010-06-13T10:26:43.000Z</time>
      </trkpt>
      <trkpt lat="44.0584" lon="7.05895">
        <ele>1982</ele>
        <time>2010-06-13T10:26:51.000Z</time>
      </trkpt>
      <trkpt lat="44.05836" lon="7.05893">
        <ele>1981.5999755859</ele>
        <time>2010-06-13T10:27:11.000Z</time>
      </trkpt>
      <trkpt lat="44.0584" lon="7.05893">
        <ele>1981.8000488281</ele>
        <time>2010-06-13T10:27:45.000Z</time>
      </trkpt>
      <trkpt lat="44.05843" lon="7.05891">
        <ele>1981.5999755859</ele>
        <time>2010-06-13T10:29:06.000Z</time>
      </trkpt>
      <trkpt lat="44.05843" lon="7.05892">
        <ele>1981.8000488281</ele>
        <time>2010-06-13T10:29:25.000Z</time>
      </trkpt>
      <trkpt lat="44.05841" lon="7.05893">
        <ele>1981.8000488281</ele>
        <time>2010-06-13T10:29:53.000Z</time>
      </trkpt>
      <trkpt lat="44.05837" lon="7.05897">
        <ele>1982.1999511719</ele>
        <time>2010-06-13T10:30:07.000Z</time>
      </trkpt>
      <trkpt lat="44.05835" lon="7.05894">
        <ele>1981.8000488281</ele>
        <time>2010-06-13T10:30:19.000Z</time>
      </trkpt>
      <trkpt lat="44.05823" lon="7.0587">
        <ele>1978.4000244141</ele>
        <time>2010-06-13T10:30:31.000Z</time>
      </trkpt>
      <trkpt lat="44.05805" lon="7.05859">
        <ele>1975.5999755859</ele>
        <time>2010-06-13T10:30:40.000Z</time>
      </trkpt>
      <trkpt lat="44.05803" lon="7.05856">
        <ele>1975.1999511719</ele>
        <time>2010-06-13T10:30:42.000Z</time>
      </trkpt>
      <trkpt lat="44.05801" lon="7.05851">
        <ele>1974.5999755859</ele>
        <time>2010-06-13T10:30:44.000Z</time>
      </trkpt>
      <trkpt lat="44.05792" lon="7.05845">
        <ele>1973.5999755859</ele>
        <time>2010-06-13T10:30:47.000Z</time>
      </trkpt>
      <trkpt lat="44.05783" lon="7.05837">
        <ele>1972.4000244141</ele>
        <time>2010-06-13T10:30:49.000Z</time>
      </trkpt>
      <trkpt lat="44.05777" lon="7.05833">
        <ele>1971.8000488281</ele>
        <time>2010-06-13T10:30:50.000Z</time>
      </trkpt>
      <trkpt lat="44.05753" lon="7.05826">
        <ele>1969.8000488281</ele>
        <time>2010-06-13T10:30:53.000Z</time>
      </trkpt>
      <trkpt lat="44.05744" lon="7.05822">
        <ele>1968.1999511719</ele>
        <time>2010-06-13T10:30:54.000Z</time>
      </trkpt>
      <trkpt lat="44.05727" lon="7.05813">
        <ele>1965</ele>
        <time>2010-06-13T10:30:56.000Z</time>
      </trkpt>
      <trkpt lat="44.0572" lon="7.0581">
        <ele>1963.8000488281</ele>
        <time>2010-06-13T10:30:57.000Z</time>
      </trkpt>
      <trkpt lat="44.05715" lon="7.05807">
        <ele>1963</ele>
        <time>2010-06-13T10:30:58.000Z</time>
      </trkpt>
      <trkpt lat="44.057" lon="7.05806">
        <ele>1960.5999755859</ele>
        <time>2010-06-13T10:31:01.000Z</time>
      </trkpt>
      <trkpt lat="44.05693" lon="7.05813">
        <ele>1959.1999511719</ele>
        <time>2010-06-13T10:31:03.000Z</time>
      </trkpt>
      <trkpt lat="44.0569" lon="7.05818">
        <ele>1958.4000244141</ele>
        <time>2010-06-13T10:31:04.000Z</time>
      </trkpt>
      <trkpt lat="44.05682" lon="7.0583">
        <ele>1956.1999511719</ele>
        <time>2010-06-13T10:31:08.000Z</time>
      </trkpt>
      <trkpt lat="44.05669" lon="7.05837">
        <ele>1953.1999511719</ele>
        <time>2010-06-13T10:31:15.000Z</time>
      </trkpt>
      <trkpt lat="44.05666" lon="7.05838">
        <ele>1952.4000244141</ele>
        <time>2010-06-13T10:31:17.000Z</time>
      </trkpt>
      <trkpt lat="44.05652" lon="7.05837">
        <ele>1948.5999755859</ele>
        <time>2010-06-13T10:31:23.000Z</time>
      </trkpt>
      <trkpt lat="44.0565" lon="7.05837">
        <ele>1948.1999511719</ele>
        <time>2010-06-13T10:31:24.000Z</time>
      </trkpt>
      <trkpt lat="44.05646" lon="7.05837">
        <ele>1947</ele>
        <time>2010-06-13T10:31:26.000Z</time>
      </trkpt>
      <trkpt lat="44.05644" lon="7.05837">
        <ele>1946.4000244141</ele>
        <time>2010-06-13T10:31:28.000Z</time>
      </trkpt>
      <trkpt lat="44.05637" lon="7.05838">
        <ele>1944.4000244141</ele>
        <time>2010-06-13T10:31:31.000Z</time>
      </trkpt>
      <trkpt lat="44.05632" lon="7.0584">
        <ele>1942.8000488281</ele>
        <time>2010-06-13T10:31:35.000Z</time>
      </trkpt>
      <trkpt lat="44.05627" lon="7.05839">
        <ele>1941.4000244141</ele>
        <time>2010-06-13T10:31:45.000Z</time>
      </trkpt>
      <trkpt lat="44.05624" lon="7.05838">
        <ele>1940.5999755859</ele>
        <time>2010-06-13T10:31:48.000Z</time>
      </trkpt>
      <trkpt lat="44.05619" lon="7.05839">
        <ele>1939</ele>
        <time>2010-06-13T10:31:59.000Z</time>
      </trkpt>
      <trkpt lat="44.05617" lon="7.05839">
        <ele>1938.8000488281</ele>
        <time>2010-06-13T10:32:01.000Z</time>
      </trkpt>
      <trkpt lat="44.05616" lon="7.05836">
        <ele>1938.5999755859</ele>
        <time>2010-06-13T10:32:03.000Z</time>
      </trkpt>
      <trkpt lat="44.05611" lon="7.05827">
        <ele>1938.5999755859</ele>
        <time>2010-06-13T10:32:17.000Z</time>
      </trkpt>
      <trkpt lat="44.05607" lon="7.05824">
        <ele>1937.8000488281</ele>
        <time>2010-06-13T10:32:27.000Z</time>
      </trkpt>
      <trkpt lat="44.05593" lon="7.05832">
        <ele>1932.8000488281</ele>
        <time>2010-06-13T10:32:31.000Z</time>
      </trkpt>
      <trkpt lat="44.05587" lon="7.05835">
        <ele>1930.5999755859</ele>
        <time>2010-06-13T10:32:33.000Z</time>
      </trkpt>
      <trkpt lat="44.05585" lon="7.05835">
        <ele>1930.1999511719</ele>
        <time>2010-06-13T10:32:34.000Z</time>
      </trkpt>
      <trkpt lat="44.05577" lon="7.05828">
        <ele>1929.1999511719</ele>
        <time>2010-06-13T10:32:38.000Z</time>
      </trkpt>
      <trkpt lat="44.05562" lon="7.05822">
        <ele>1926.5999755859</ele>
        <time>2010-06-13T10:32:43.000Z</time>
      </trkpt>
      <trkpt lat="44.05561" lon="7.05819">
        <ele>1926.8000488281</ele>
        <time>2010-06-13T10:33:07.000Z</time>
      </trkpt>
      <trkpt lat="44.05538" lon="7.05812">
        <ele>1922</ele>
        <time>2010-06-13T10:33:21.000Z</time>
      </trkpt>
      <trkpt lat="44.0553" lon="7.05809">
        <ele>1920.4000244141</ele>
        <time>2010-06-13T10:33:23.000Z</time>
      </trkpt>
      <trkpt lat="44.05513" lon="7.05804">
        <ele>1916.4000244141</ele>
        <time>2010-06-13T10:33:28.000Z</time>
      </trkpt>
      <trkpt lat="44.055" lon="7.05823">
        <ele>1911.1999511719</ele>
        <time>2010-06-13T10:33:33.000Z</time>
      </trkpt>
      <trkpt lat="44.05491" lon="7.05831">
        <ele>1908.8000488281</ele>
        <time>2010-06-13T10:33:36.000Z</time>
      </trkpt>
      <trkpt lat="44.05487" lon="7.05838">
        <ele>1907.4000244141</ele>
        <time>2010-06-13T10:33:38.000Z</time>
      </trkpt>
      <trkpt lat="44.05486" lon="7.05841">
        <ele>1906.8000488281</ele>
        <time>2010-06-13T10:33:40.000Z</time>
      </trkpt>
      <trkpt lat="44.05486" lon="7.05841">
        <ele>1906.8000488281</ele>
        <time>2010-06-13T10:33:44.000Z</time>
      </trkpt>
      <trkpt lat="44.0548" lon="7.05843">
        <ele>1905.5999755859</ele>
        <time>2010-06-13T10:33:46.000Z</time>
      </trkpt>
      <trkpt lat="44.05467" lon="7.05856">
        <ele>1901.8000488281</ele>
        <time>2010-06-13T10:33:49.000Z</time>
      </trkpt>
      <trkpt lat="44.05454" lon="7.05869">
        <ele>1898.1999511719</ele>
        <time>2010-06-13T10:33:51.000Z</time>
      </trkpt>
      <trkpt lat="44.05447" lon="7.05901">
        <ele>1892.5999755859</ele>
        <time>2010-06-13T10:33:54.000Z</time>
      </trkpt>
      <trkpt lat="44.05448" lon="7.05913">
        <ele>1891</ele>
        <time>2010-06-13T10:33:55.000Z</time>
      </trkpt>
      <trkpt lat="44.05444" lon="7.05934">
        <ele>1887.1999511719</ele>
        <time>2010-06-13T10:33:57.000Z</time>
      </trkpt>
      <trkpt lat="44.05442" lon="7.05945">
        <ele>1885.4000244141</ele>
        <time>2010-06-13T10:33:58.000Z</time>
      </trkpt>
      <trkpt lat="44.05437" lon="7.05963">
        <ele>1881.8000488281</ele>
        <time>2010-06-13T10:34:00.000Z</time>
      </trkpt>
      <trkpt lat="44.05433" lon="7.05971">
        <ele>1880.1999511719</ele>
        <time>2010-06-13T10:34:01.000Z</time>
      </trkpt>
      <trkpt lat="44.05429" lon="7.0598">
        <ele>1878.1999511719</ele>
        <time>2010-06-13T10:34:02.000Z</time>
      </trkpt>
      <trkpt lat="44.05417" lon="7.05996">
        <ele>1874.4000244141</ele>
        <time>2010-06-13T10:34:04.000Z</time>
      </trkpt>
      <trkpt lat="44.05411" lon="7.06005">
        <ele>1872.4000244141</ele>
        <time>2010-06-13T10:34:05.000Z</time>
      </trkpt>
      <trkpt lat="44.05403" lon="7.06023">
        <ele>1868.5999755859</ele>
        <time>2010-06-13T10:34:07.000Z</time>
      </trkpt>
      <trkpt lat="44.054" lon="7.0603">
        <ele>1867</ele>
        <time>2010-06-13T10:34:08.000Z</time>
      </trkpt>
      <trkpt lat="44.05397" lon="7.06035">
        <ele>1866</ele>
        <time>2010-06-13T10:34:09.000Z</time>
      </trkpt>
      <trkpt lat="44.05395" lon="7.06039">
        <ele>1865.1999511719</ele>
        <time>2010-06-13T10:34:10.000Z</time>
      </trkpt>
      <trkpt lat="44.05393" lon="7.06048">
        <ele>1863.4000244141</ele>
        <time>2010-06-13T10:34:12.000Z</time>
      </trkpt>
      <trkpt lat="44.05392" lon="7.06051">
        <ele>1862.8000488281</ele>
        <time>2010-06-13T10:34:13.000Z</time>
      </trkpt>
      <trkpt lat="44.05392" lon="7.06053">
        <ele>1862.4000244141</ele>
        <time>2010-06-13T10:34:15.000Z</time>
      </trkpt>
      <trkpt lat="44.05391" lon="7.06054">
        <ele>1862.1999511719</ele>
        <time>2010-06-13T10:34:20.000Z</time>
      </trkpt>
      <trkpt lat="44.05389" lon="7.06064">
        <ele>1860.1999511719</ele>
        <time>2010-06-13T10:34:23.000Z</time>
      </trkpt>
      <trkpt lat="44.05388" lon="7.06067">
        <ele>1859.5999755859</ele>
        <time>2010-06-13T10:34:28.000Z</time>
      </trkpt>
      <trkpt lat="44.05388" lon="7.06067">
        <ele>1859.5999755859</ele>
        <time>2010-06-13T10:34:54.000Z</time>
      </trkpt>
      <trkpt lat="44.05388" lon="7.06066">
        <ele>1859.8000488281</ele>
        <time>2010-06-13T10:35:19.000Z</time>
      </trkpt>
      <trkpt lat="44.05388" lon="7.06066">
        <ele>1859.8000488281</ele>
        <time>2010-06-13T10:36:07.000Z</time>
      </trkpt>
      <trkpt lat="44.05387" lon="7.06067">
        <ele>1859.5999755859</ele>
        <time>2010-06-13T10:40:01.000Z</time>
      </trkpt>
      <trkpt lat="44.05389" lon="7.06081">
        <ele>1857.4000244141</ele>
        <time>2010-06-13T10:40:05.000Z</time>
      </trkpt>
      <trkpt lat="44.05388" lon="7.06103">
        <ele>1853.1999511719</ele>
        <time>2010-06-13T10:40:08.000Z</time>
      </trkpt>
      <trkpt lat="44.05389" lon="7.06112">
        <ele>1851.4000244141</ele>
        <time>2010-06-13T10:40:10.000Z</time>
      </trkpt>
      <trkpt lat="44.0539" lon="7.06114">
        <ele>1851.1999511719</ele>
        <time>2010-06-13T10:40:12.000Z</time>
      </trkpt>
      <trkpt lat="44.05391" lon="7.06117">
        <ele>1850.5999755859</ele>
        <time>2010-06-13T10:40:14.000Z</time>
      </trkpt>
      <trkpt lat="44.05384" lon="7.06135">
        <ele>1846.5999755859</ele>
        <time>2010-06-13T10:40:18.000Z</time>
      </trkpt>
      <trkpt lat="44.05376" lon="7.06157">
        <ele>1841.8000488281</ele>
        <time>2010-06-13T10:40:22.000Z</time>
      </trkpt>
      <trkpt lat="44.05371" lon="7.06162">
        <ele>1840.5999755859</ele>
        <time>2010-06-13T10:40:23.000Z</time>
      </trkpt>
      <trkpt lat="44.05362" lon="7.06171">
        <ele>1838</ele>
        <time>2010-06-13T10:40:26.000Z</time>
      </trkpt>
      <trkpt lat="44.05358" lon="7.0618">
        <ele>1835.5999755859</ele>
        <time>2010-06-13T10:40:28.000Z</time>
      </trkpt>
      <trkpt lat="44.05341" lon="7.06195">
        <ele>1831.4000244141</ele>
        <time>2010-06-13T10:40:32.000Z</time>
      </trkpt>
      <trkpt lat="44.05325" lon="7.06204">
        <ele>1828.1999511719</ele>
        <time>2010-06-13T10:40:36.000Z</time>
      </trkpt>
      <trkpt lat="44.05312" lon="7.06222">
        <ele>1823</ele>
        <time>2010-06-13T10:40:43.000Z</time>
      </trkpt>
      <trkpt lat="44.05308" lon="7.06222">
        <ele>1822.5999755859</ele>
        <time>2010-06-13T10:41:06.000Z</time>
      </trkpt>
      <trkpt lat="44.05307" lon="7.06228">
        <ele>1821</ele>
        <time>2010-06-13T10:42:35.000Z</time>
      </trkpt>
      <trkpt lat="44.05308" lon="7.06226">
        <ele>1821.5999755859</ele>
        <time>2010-06-13T10:43:08.000Z</time>
      </trkpt>
      <trkpt lat="44.05297" lon="7.0624">
        <ele>1817.8000488281</ele>
        <time>2010-06-13T10:44:16.000Z</time>
      </trkpt>
      <trkpt lat="44.05289" lon="7.06253">
        <ele>1814</ele>
        <time>2010-06-13T10:44:20.000Z</time>
      </trkpt>
      <trkpt lat="44.05287" lon="7.06261">
        <ele>1812.1999511719</ele>
        <time>2010-06-13T10:44:22.000Z</time>
      </trkpt>
      <trkpt lat="44.05284" lon="7.06269">
        <ele>1810</ele>
        <time>2010-06-13T10:44:24.000Z</time>
      </trkpt>
      <trkpt lat="44.05279" lon="7.06278">
        <ele>1807.8000488281</ele>
        <time>2010-06-13T10:44:26.000Z</time>
      </trkpt>
      <trkpt lat="44.05272" lon="7.0629">
        <ele>1804.5999755859</ele>
        <time>2010-06-13T10:44:28.000Z</time>
      </trkpt>
      <trkpt lat="44.05268" lon="7.06296">
        <ele>1803</ele>
        <time>2010-06-13T10:44:29.000Z</time>
      </trkpt>
      <trkpt lat="44.05266" lon="7.06308">
        <ele>1800.4000244141</ele>
        <time>2010-06-13T10:44:31.000Z</time>
      </trkpt>
      <trkpt lat="44.05265" lon="7.06319">
        <ele>1798</ele>
        <time>2010-06-13T10:44:33.000Z</time>
      </trkpt>
      <trkpt lat="44.05262" lon="7.06331">
        <ele>1795.4000244141</ele>
        <time>2010-06-13T10:44:36.000Z</time>
      </trkpt>
      <trkpt lat="44.05262" lon="7.06339">
        <ele>1793.5999755859</ele>
        <time>2010-06-13T10:44:38.000Z</time>
      </trkpt>
      <trkpt lat="44.05259" lon="7.06351">
        <ele>1791</ele>
        <time>2010-06-13T10:44:42.000Z</time>
      </trkpt>
      <trkpt lat="44.05258" lon="7.0636">
        <ele>1789.4000244141</ele>
        <time>2010-06-13T10:44:45.000Z</time>
      </trkpt>
      <trkpt lat="44.05261" lon="7.06377">
        <ele>1786</ele>
        <time>2010-06-13T10:45:05.000Z</time>
      </trkpt>
      <trkpt lat="44.05258" lon="7.06396">
        <ele>1782.1999511719</ele>
        <time>2010-06-13T10:45:08.000Z</time>
      </trkpt>
      <trkpt lat="44.05256" lon="7.06401">
        <ele>1781.1999511719</ele>
        <time>2010-06-13T10:45:09.000Z</time>
      </trkpt>
      <trkpt lat="44.0525" lon="7.06415">
        <ele>1778.1999511719</ele>
        <time>2010-06-13T10:45:12.000Z</time>
      </trkpt>
      <trkpt lat="44.05244" lon="7.06432">
        <ele>1773.8000488281</ele>
        <time>2010-06-13T10:45:15.000Z</time>
      </trkpt>
      <trkpt lat="44.05242" lon="7.06442">
        <ele>1771.8000488281</ele>
        <time>2010-06-13T10:45:17.000Z</time>
      </trkpt>
      <trkpt lat="44.0524" lon="7.06451">
        <ele>1769.5999755859</ele>
        <time>2010-06-13T10:45:19.000Z</time>
      </trkpt>
      <trkpt lat="44.05239" lon="7.06456">
        <ele>1768.4000244141</ele>
        <time>2010-06-13T10:45:20.000Z</time>
      </trkpt>
      <trkpt lat="44.05235" lon="7.06465">
        <ele>1766.1999511719</ele>
        <time>2010-06-13T10:45:22.000Z</time>
      </trkpt>
      <trkpt lat="44.05231" lon="7.06473">
        <ele>1764.1999511719</ele>
        <time>2010-06-13T10:45:24.000Z</time>
      </trkpt>
      <trkpt lat="44.05222" lon="7.06486">
        <ele>1761.1999511719</ele>
        <time>2010-06-13T10:45:28.000Z</time>
      </trkpt>
      <trkpt lat="44.0522" lon="7.0649">
        <ele>1760.4000244141</ele>
        <time>2010-06-13T10:45:29.000Z</time>
      </trkpt>
      <trkpt lat="44.05217" lon="7.06498">
        <ele>1758.5999755859</ele>
        <time>2010-06-13T10:45:31.000Z</time>
      </trkpt>
      <trkpt lat="44.05216" lon="7.06509">
        <ele>1756.5999755859</ele>
        <time>2010-06-13T10:45:33.000Z</time>
      </trkpt>
      <trkpt lat="44.05216" lon="7.06515">
        <ele>1755.4000244141</ele>
        <time>2010-06-13T10:45:34.000Z</time>
      </trkpt>
      <trkpt lat="44.05215" lon="7.06527">
        <ele>1753.1999511719</ele>
        <time>2010-06-13T10:45:36.000Z</time>
      </trkpt>
      <trkpt lat="44.05212" lon="7.06536">
        <ele>1751.4000244141</ele>
        <time>2010-06-13T10:45:38.000Z</time>
      </trkpt>
      <trkpt lat="44.05212" lon="7.06545">
        <ele>1749.8000488281</ele>
        <time>2010-06-13T10:45:41.000Z</time>
      </trkpt>
      <trkpt lat="44.05212" lon="7.06548">
        <ele>1749.1999511719</ele>
        <time>2010-06-13T10:45:42.000Z</time>
      </trkpt>
      <trkpt lat="44.0521" lon="7.06553">
        <ele>1748.4000244141</ele>
        <time>2010-06-13T10:45:44.000Z</time>
      </trkpt>
      <trkpt lat="44.052" lon="7.06573">
        <ele>1744.8000488281</ele>
        <time>2010-06-13T10:45:50.000Z</time>
      </trkpt>
      <trkpt lat="44.05198" lon="7.06578">
        <ele>1744</ele>
        <time>2010-06-13T10:45:51.000Z</time>
      </trkpt>
      <trkpt lat="44.05193" lon="7.066">
        <ele>1740.4000244141</ele>
        <time>2010-06-13T10:45:56.000Z</time>
      </trkpt>
      <trkpt lat="44.05189" lon="7.06617">
        <ele>1737.4000244141</ele>
        <time>2010-06-13T10:46:00.000Z</time>
      </trkpt>
      <trkpt lat="44.05183" lon="7.06634">
        <ele>1734.8000488281</ele>
        <time>2010-06-13T10:46:04.000Z</time>
      </trkpt>
      <trkpt lat="44.05159" lon="7.06661">
        <ele>1731.8000488281</ele>
        <time>2010-06-13T10:46:14.000Z</time>
      </trkpt>
      <trkpt lat="44.05156" lon="7.06679">
        <ele>1728.5999755859</ele>
        <time>2010-06-13T10:46:18.000Z</time>
      </trkpt>
      <trkpt lat="44.05157" lon="7.06698">
        <ele>1724.4000244141</ele>
        <time>2010-06-13T10:46:22.000Z</time>
      </trkpt>
      <trkpt lat="44.05154" lon="7.06706">
        <ele>1722.8000488281</ele>
        <time>2010-06-13T10:46:24.000Z</time>
      </trkpt>
      <trkpt lat="44.0515" lon="7.0671">
        <ele>1721.8000488281</ele>
        <time>2010-06-13T10:46:26.000Z</time>
      </trkpt>
      <trkpt lat="44.05148" lon="7.06715">
        <ele>1720.8000488281</ele>
        <time>2010-06-13T10:46:28.000Z</time>
      </trkpt>
      <trkpt lat="44.05146" lon="7.06717">
        <ele>1720.4000244141</ele>
        <time>2010-06-13T10:46:29.000Z</time>
      </trkpt>
      <trkpt lat="44.05139" lon="7.06717">
        <ele>1720.4000244141</ele>
        <time>2010-06-13T10:46:33.000Z</time>
      </trkpt>
      <trkpt lat="44.05088" lon="7.06712">
        <ele>1721</ele>
        <time>2010-06-13T10:46:49.000Z</time>
      </trkpt>
      <trkpt lat="44.05078" lon="7.06717">
        <ele>1719.5999755859</ele>
        <time>2010-06-13T10:46:52.000Z</time>
      </trkpt>
      <trkpt lat="44.05043" lon="7.06721">
        <ele>1716.4000244141</ele>
        <time>2010-06-13T10:46:59.000Z</time>
      </trkpt>
      <trkpt lat="44.05032" lon="7.06722">
        <ele>1715.4000244141</ele>
        <time>2010-06-13T10:47:01.000Z</time>
      </trkpt>
      <trkpt lat="44.05024" lon="7.06723">
        <ele>1714.8000488281</ele>
        <time>2010-06-13T10:47:03.000Z</time>
      </trkpt>
      <trkpt lat="44.05013" lon="7.06723">
        <ele>1714</ele>
        <time>2010-06-13T10:47:06.000Z</time>
      </trkpt>
      <trkpt lat="44.05005" lon="7.06725">
        <ele>1713.1999511719</ele>
        <time>2010-06-13T10:47:08.000Z</time>
      </trkpt>
      <trkpt lat="44.0498" lon="7.06729">
        <ele>1709.4000244141</ele>
        <time>2010-06-13T10:47:14.000Z</time>
      </trkpt>
      <trkpt lat="44.04977" lon="7.06729">
        <ele>1709</ele>
        <time>2010-06-13T10:47:15.000Z</time>
      </trkpt>
      <trkpt lat="44.04946" lon="7.06726">
        <ele>1705</ele>
        <time>2010-06-13T10:47:23.000Z</time>
      </trkpt>
      <trkpt lat="44.04945" lon="7.06725">
        <ele>1704.8000488281</ele>
        <time>2010-06-13T10:47:24.000Z</time>
      </trkpt>
      <trkpt lat="44.04939" lon="7.06726">
        <ele>1703.8000488281</ele>
        <time>2010-06-13T10:47:29.000Z</time>
      </trkpt>
      <trkpt lat="44.04906" lon="7.06728">
        <ele>1698.8000488281</ele>
        <time>2010-06-13T10:47:38.000Z</time>
      </trkpt>
      <trkpt lat="44.04894" lon="7.06728">
        <ele>1697</ele>
        <time>2010-06-13T10:47:40.000Z</time>
      </trkpt>
      <trkpt lat="44.04883" lon="7.06729">
        <ele>1695.4000244141</ele>
        <time>2010-06-13T10:47:42.000Z</time>
      </trkpt>
      <trkpt lat="44.04878" lon="7.06728">
        <ele>1695</ele>
        <time>2010-06-13T10:47:43.000Z</time>
      </trkpt>
      <trkpt lat="44.04867" lon="7.0673">
        <ele>1693.4000244141</ele>
        <time>2010-06-13T10:47:45.000Z</time>
      </trkpt>
      <trkpt lat="44.04855" lon="7.06733">
        <ele>1691.1999511719</ele>
        <time>2010-06-13T10:47:47.000Z</time>
      </trkpt>
      <trkpt lat="44.04845" lon="7.06735">
        <ele>1689.5999755859</ele>
        <time>2010-06-13T10:47:49.000Z</time>
      </trkpt>
      <trkpt lat="44.0483" lon="7.06738">
        <ele>1687</ele>
        <time>2010-06-13T10:47:51.000Z</time>
      </trkpt>
      <trkpt lat="44.04823" lon="7.06739">
        <ele>1685.8000488281</ele>
        <time>2010-06-13T10:47:52.000Z</time>
      </trkpt>
      <trkpt lat="44.0481" lon="7.06741">
        <ele>1683.1999511719</ele>
        <time>2010-06-13T10:47:54.000Z</time>
      </trkpt>
      <trkpt lat="44.04798" lon="7.06742">
        <ele>1681</ele>
        <time>2010-06-13T10:47:56.000Z</time>
      </trkpt>
      <trkpt lat="44.0479" lon="7.06743">
        <ele>1679.4000244141</ele>
        <time>2010-06-13T10:47:57.000Z</time>
      </trkpt>
      <trkpt lat="44.04774" lon="7.06745">
        <ele>1676.1999511719</ele>
        <time>2010-06-13T10:48:00.000Z</time>
      </trkpt>
      <trkpt lat="44.04768" lon="7.06745">
        <ele>1675.1999511719</ele>
        <time>2010-06-13T10:48:01.000Z</time>
      </trkpt>
      <trkpt lat="44.04756" lon="7.06741">
        <ele>1674</ele>
        <time>2010-06-13T10:48:03.000Z</time>
      </trkpt>
      <trkpt lat="44.04742" lon="7.06725">
        <ele>1676</ele>
        <time>2010-06-13T10:48:08.000Z</time>
      </trkpt>
      <trkpt lat="44.04739" lon="7.06722">
        <ele>1676.4000244141</ele>
        <time>2010-06-13T10:48:09.000Z</time>
      </trkpt>
      <trkpt lat="44.04731" lon="7.06707">
        <ele>1679.5999755859</ele>
        <time>2010-06-13T10:48:17.000Z</time>
      </trkpt>
      <trkpt lat="44.04728" lon="7.06709">
        <ele>1678.8000488281</ele>
        <time>2010-06-13T10:48:23.000Z</time>
      </trkpt>
      <trkpt lat="44.04715" lon="7.06729">
        <ele>1673.5999755859</ele>
        <time>2010-06-13T10:48:32.000Z</time>
      </trkpt>
      <trkpt lat="44.047" lon="7.06738">
        <ele>1670.8000488281</ele>
        <time>2010-06-13T10:48:36.000Z</time>
      </trkpt>
      <trkpt lat="44.04658" lon="7.06745">
        <ele>1666</ele>
        <time>2010-06-13T10:48:44.000Z</time>
      </trkpt>
      <trkpt lat="44.04651" lon="7.06745">
        <ele>1665.1999511719</ele>
        <time>2010-06-13T10:48:45.000Z</time>
      </trkpt>
      <trkpt lat="44.0464" lon="7.06749">
        <ele>1663</ele>
        <time>2010-06-13T10:48:47.000Z</time>
      </trkpt>
      <trkpt lat="44.04627" lon="7.06755">
        <ele>1659.8000488281</ele>
        <time>2010-06-13T10:48:50.000Z</time>
      </trkpt>
      <trkpt lat="44.04579" lon="7.06756">
        <ele>1654.1999511719</ele>
        <time>2010-06-13T10:49:00.000Z</time>
      </trkpt>
      <trkpt lat="44.04566" lon="7.06755">
        <ele>1653.4000244141</ele>
        <time>2010-06-13T10:49:02.000Z</time>
      </trkpt>
      <trkpt lat="44.04553" lon="7.06755">
        <ele>1652.4000244141</ele>
        <time>2010-06-13T10:49:04.000Z</time>
      </trkpt>
      <trkpt lat="44.04541" lon="7.06759">
        <ele>1650.5999755859</ele>
        <time>2010-06-13T10:49:06.000Z</time>
      </trkpt>
      <trkpt lat="44.04535" lon="7.06761">
        <ele>1649.5999755859</ele>
        <time>2010-06-13T10:49:07.000Z</time>
      </trkpt>
      <trkpt lat="44.04487" lon="7.06769">
        <ele>1644.1999511719</ele>
        <time>2010-06-13T10:49:17.000Z</time>
      </trkpt>
      <trkpt lat="44.04483" lon="7.06771">
        <ele>1643.4000244141</ele>
        <time>2010-06-13T10:49:27.000Z</time>
      </trkpt>
      <trkpt lat="44.04484" lon="7.0677">
        <ele>1643.8000488281</ele>
        <time>2010-06-13T10:50:41.000Z</time>
      </trkpt>
      <trkpt lat="44.0448" lon="7.06746">
        <ele>1648.1999511719</ele>
        <time>2010-06-13T10:50:56.000Z</time>
      </trkpt>
      <trkpt lat="44.04474" lon="7.06731">
        <ele>1649.4000244141</ele>
        <time>2010-06-13T10:51:51.000Z</time>
      </trkpt>
      <trkpt lat="44.04462" lon="7.06725">
        <ele>1648.5999755859</ele>
        <time>2010-06-13T10:51:55.000Z</time>
      </trkpt>
      <trkpt lat="44.04453" lon="7.06725">
        <ele>1647.4000244141</ele>
        <time>2010-06-13T10:51:57.000Z</time>
      </trkpt>
      <trkpt lat="44.04437" lon="7.06723">
        <ele>1645.4000244141</ele>
        <time>2010-06-13T10:52:00.000Z</time>
      </trkpt>
      <trkpt lat="44.04417" lon="7.06725">
        <ele>1642.8000488281</ele>
        <time>2010-06-13T10:52:03.000Z</time>
      </trkpt>
      <trkpt lat="44.04401" lon="7.06725">
        <ele>1640.4000244141</ele>
        <time>2010-06-13T10:52:05.000Z</time>
      </trkpt>
      <trkpt lat="44.04376" lon="7.0672">
        <ele>1636.8000488281</ele>
        <time>2010-06-13T10:52:08.000Z</time>
      </trkpt>
      <trkpt lat="44.04367" lon="7.06717">
        <ele>1635.8000488281</ele>
        <time>2010-06-13T10:52:09.000Z</time>
      </trkpt>
      <trkpt lat="44.0435" lon="7.06713">
        <ele>1633.4000244141</ele>
        <time>2010-06-13T10:52:11.000Z</time>
      </trkpt>
      <trkpt lat="44.04322" lon="7.06707">
        <ele>1629.8000488281</ele>
        <time>2010-06-13T10:52:14.000Z</time>
      </trkpt>
      <trkpt lat="44.04295" lon="7.06707">
        <ele>1625.4000244141</ele>
        <time>2010-06-13T10:52:17.000Z</time>
      </trkpt>
      <trkpt lat="44.04277" lon="7.06706">
        <ele>1622.5999755859</ele>
        <time>2010-06-13T10:52:19.000Z</time>
      </trkpt>
      <trkpt lat="44.04259" lon="7.06704">
        <ele>1619.8000488281</ele>
        <time>2010-06-13T10:52:21.000Z</time>
      </trkpt>
      <trkpt lat="44.04235" lon="7.06701">
        <ele>1616.1999511719</ele>
        <time>2010-06-13T10:52:24.000Z</time>
      </trkpt>
      <trkpt lat="44.04219" lon="7.06701">
        <ele>1613.5999755859</ele>
        <time>2010-06-13T10:52:26.000Z</time>
      </trkpt>
      <trkpt lat="44.04206" lon="7.067">
        <ele>1611.5999755859</ele>
        <time>2010-06-13T10:52:28.000Z</time>
      </trkpt>
      <trkpt lat="44.04197" lon="7.06697">
        <ele>1610.5999755859</ele>
        <time>2010-06-13T10:52:30.000Z</time>
      </trkpt>
      <trkpt lat="44.04192" lon="7.06697">
        <ele>1609.5999755859</ele>
        <time>2010-06-13T10:52:31.000Z</time>
      </trkpt>
      <trkpt lat="44.04181" lon="7.06696">
        <ele>1608.1999511719</ele>
        <time>2010-06-13T10:52:33.000Z</time>
      </trkpt>
      <trkpt lat="44.04169" lon="7.06694">
        <ele>1606.4000244141</ele>
        <time>2010-06-13T10:52:35.000Z</time>
      </trkpt>
      <trkpt lat="44.04157" lon="7.06696">
        <ele>1604.4000244141</ele>
        <time>2010-06-13T10:52:37.000Z</time>
      </trkpt>
      <trkpt lat="44.04142" lon="7.06696">
        <ele>1603</ele>
        <time>2010-06-13T10:52:40.000Z</time>
      </trkpt>
      <trkpt lat="44.04135" lon="7.06704">
        <ele>1601</ele>
        <time>2010-06-13T10:52:43.000Z</time>
      </trkpt>
      <trkpt lat="44.04133" lon="7.06706">
        <ele>1600.5999755859</ele>
        <time>2010-06-13T10:52:44.000Z</time>
      </trkpt>
      <trkpt lat="44.0413" lon="7.06709">
        <ele>1599.8000488281</ele>
        <time>2010-06-13T10:52:59.000Z</time>
      </trkpt>
      <trkpt lat="44.04124" lon="7.06712">
        <ele>1598.8000488281</ele>
        <time>2010-06-13T10:53:23.000Z</time>
      </trkpt>
      <trkpt lat="44.04117" lon="7.06716">
        <ele>1597.4000244141</ele>
        <time>2010-06-13T10:53:27.000Z</time>
      </trkpt>
      <trkpt lat="44.04112" lon="7.06723">
        <ele>1596.1999511719</ele>
        <time>2010-06-13T10:53:30.000Z</time>
      </trkpt>
      <trkpt lat="44.04101" lon="7.06728">
        <ele>1594.4000244141</ele>
        <time>2010-06-13T10:53:33.000Z</time>
      </trkpt>
      <trkpt lat="44.0407" lon="7.06741">
        <ele>1590.1999511719</ele>
        <time>2010-06-13T10:53:40.000Z</time>
      </trkpt>
      <trkpt lat="44.04067" lon="7.06742">
        <ele>1589.8000488281</ele>
        <time>2010-06-13T10:53:41.000Z</time>
      </trkpt>
      <trkpt lat="44.04047" lon="7.06743">
        <ele>1588.4000244141</ele>
        <time>2010-06-13T10:53:48.000Z</time>
      </trkpt>
      <trkpt lat="44.04031" lon="7.06749">
        <ele>1587</ele>
        <time>2010-06-13T10:53:51.000Z</time>
      </trkpt>
      <trkpt lat="44.04015" lon="7.06752">
        <ele>1585.4000244141</ele>
        <time>2010-06-13T10:53:54.000Z</time>
      </trkpt>
      <trkpt lat="44.04011" lon="7.06754">
        <ele>1584.5999755859</ele>
        <time>2010-06-13T10:53:55.000Z</time>
      </trkpt>
      <trkpt lat="44.04" lon="7.06758">
        <ele>1582.8000488281</ele>
        <time>2010-06-13T10:53:57.000Z</time>
      </trkpt>
      <trkpt lat="44.03988" lon="7.06758">
        <ele>1581.4000244141</ele>
        <time>2010-06-13T10:53:59.000Z</time>
      </trkpt>
      <trkpt lat="44.03978" lon="7.06762">
        <ele>1579.4000244141</ele>
        <time>2010-06-13T10:54:01.000Z</time>
      </trkpt>
      <trkpt lat="44.03967" lon="7.06768">
        <ele>1576.8000488281</ele>
        <time>2010-06-13T10:54:03.000Z</time>
      </trkpt>
      <trkpt lat="44.03958" lon="7.06773">
        <ele>1574.8000488281</ele>
        <time>2010-06-13T10:54:05.000Z</time>
      </trkpt>
      <trkpt lat="44.03954" lon="7.06775">
        <ele>1574</ele>
        <time>2010-06-13T10:54:06.000Z</time>
      </trkpt>
      <trkpt lat="44.03949" lon="7.06777">
        <ele>1573</ele>
        <time>2010-06-13T10:54:08.000Z</time>
      </trkpt>
      <trkpt lat="44.0394" lon="7.06776">
        <ele>1572.4000244141</ele>
        <time>2010-06-13T10:54:10.000Z</time>
      </trkpt>
      <trkpt lat="44.03935" lon="7.06776">
        <ele>1571.8000488281</ele>
        <time>2010-06-13T10:54:11.000Z</time>
      </trkpt>
      <trkpt lat="44.03927" lon="7.06779">
        <ele>1570.5999755859</ele>
        <time>2010-06-13T10:54:13.000Z</time>
      </trkpt>
      <trkpt lat="44.03921" lon="7.06779">
        <ele>1570</ele>
        <time>2010-06-13T10:54:15.000Z</time>
      </trkpt>
      <trkpt lat="44.03909" lon="7.06779">
        <ele>1568.5999755859</ele>
        <time>2010-06-13T10:54:19.000Z</time>
      </trkpt>
      <trkpt lat="44.03901" lon="7.06785">
        <ele>1566.5999755859</ele>
        <time>2010-06-13T10:54:22.000Z</time>
      </trkpt>
      <trkpt lat="44.03893" lon="7.06789">
        <ele>1565.1999511719</ele>
        <time>2010-06-13T10:54:24.000Z</time>
      </trkpt>
      <trkpt lat="44.03885" lon="7.06788">
        <ele>1564.1999511719</ele>
        <time>2010-06-13T10:54:26.000Z</time>
      </trkpt>
      <trkpt lat="44.03871" lon="7.06795">
        <ele>1562</ele>
        <time>2010-06-13T10:54:29.000Z</time>
      </trkpt>
      <trkpt lat="44.03865" lon="7.06823">
        <ele>1559.4000244141</ele>
        <time>2010-06-13T10:54:33.000Z</time>
      </trkpt>
      <trkpt lat="44.03866" lon="7.06832">
        <ele>1558.8000488281</ele>
        <time>2010-06-13T10:54:35.000Z</time>
      </trkpt>
      <trkpt lat="44.03868" lon="7.06837">
        <ele>1558.5999755859</ele>
        <time>2010-06-13T10:54:49.000Z</time>
      </trkpt>
      <trkpt lat="44.03874" lon="7.06841">
        <ele>1558.4000244141</ele>
        <time>2010-06-13T10:57:38.000Z</time>
      </trkpt>
      <trkpt lat="44.03889" lon="7.06849">
        <ele>1557.8000488281</ele>
        <time>2010-06-13T10:57:42.000Z</time>
      </trkpt>
      <trkpt lat="44.0392" lon="7.06866">
        <ele>1554</ele>
        <time>2010-06-13T10:57:50.000Z</time>
      </trkpt>
      <trkpt lat="44.03943" lon="7.06875">
        <ele>1551.8000488281</ele>
        <time>2010-06-13T10:57:54.000Z</time>
      </trkpt>
      <trkpt lat="44.03971" lon="7.06884">
        <ele>1548.8000488281</ele>
        <time>2010-06-13T10:58:00.000Z</time>
      </trkpt>
      <trkpt lat="44.03974" lon="7.06884">
        <ele>1548.8000488281</ele>
        <time>2010-06-13T10:58:01.000Z</time>
      </trkpt>
      <trkpt lat="44.03976" lon="7.06884">
        <ele>1548.5999755859</ele>
        <time>2010-06-13T10:58:02.000Z</time>
      </trkpt>
      <trkpt lat="44.04005" lon="7.06886">
        <ele>1547.5999755859</ele>
        <time>2010-06-13T10:58:14.000Z</time>
      </trkpt>
      <trkpt lat="44.04007" lon="7.06886">
        <ele>1547.8000488281</ele>
        <time>2010-06-13T10:58:15.000Z</time>
      </trkpt>
      <trkpt lat="44.04024" lon="7.06892">
        <ele>1547.1999511719</ele>
        <time>2010-06-13T10:58:21.000Z</time>
      </trkpt>
      <trkpt lat="44.04052" lon="7.06904">
        <ele>1546.4000244141</ele>
        <time>2010-06-13T10:58:33.000Z</time>
      </trkpt>
      <trkpt lat="44.04082" lon="7.06911">
        <ele>1547.1999511719</ele>
        <time>2010-06-13T10:58:45.000Z</time>
      </trkpt>
      <trkpt lat="44.04085" lon="7.06911">
        <ele>1547.4000244141</ele>
        <time>2010-06-13T10:58:46.000Z</time>
      </trkpt>
      <trkpt lat="44.04093" lon="7.06926">
        <ele>1544.8000488281</ele>
        <time>2010-06-13T10:58:51.000Z</time>
      </trkpt>
      <trkpt lat="44.04102" lon="7.06933">
        <ele>1544.1999511719</ele>
        <time>2010-06-13T10:58:54.000Z</time>
      </trkpt>
      <trkpt lat="44.04145" lon="7.06975">
        <ele>1538.4000244141</ele>
        <time>2010-06-13T10:59:05.000Z</time>
      </trkpt>
      <trkpt lat="44.04175" lon="7.06997">
        <ele>1535.5999755859</ele>
        <time>2010-06-13T10:59:12.000Z</time>
      </trkpt>
      <trkpt lat="44.04179" lon="7.06992">
        <ele>1537.1999511719</ele>
        <time>2010-06-13T10:59:14.000Z</time>
      </trkpt>
      <trkpt lat="44.0419" lon="7.06979">
        <ele>1542.1999511719</ele>
        <time>2010-06-13T10:59:23.000Z</time>
      </trkpt>
      <trkpt lat="44.04202" lon="7.06986">
        <ele>1541.4000244141</ele>
        <time>2010-06-13T10:59:29.000Z</time>
      </trkpt>
      <trkpt lat="44.04219" lon="7.06985">
        <ele>1543.4000244141</ele>
        <time>2010-06-13T10:59:40.000Z</time>
      </trkpt>
      <trkpt lat="44.04229" lon="7.06985">
        <ele>1544.5999755859</ele>
        <time>2010-06-13T10:59:50.000Z</time>
      </trkpt>
      <trkpt lat="44.04232" lon="7.06992">
        <ele>1542.8000488281</ele>
        <time>2010-06-13T10:59:54.000Z</time>
      </trkpt>
      <trkpt lat="44.04249" lon="7.07005">
        <ele>1540.1999511719</ele>
        <time>2010-06-13T11:00:06.000Z</time>
      </trkpt>
      <trkpt lat="44.04253" lon="7.07007">
        <ele>1539.8000488281</ele>
        <time>2010-06-13T11:00:09.000Z</time>
      </trkpt>
      <trkpt lat="44.04291" lon="7.0702">
        <ele>1541.4000244141</ele>
        <time>2010-06-13T11:00:26.000Z</time>
      </trkpt>
      <trkpt lat="44.04322" lon="7.07028">
        <ele>1543.4000244141</ele>
        <time>2010-06-13T11:00:37.000Z</time>
      </trkpt>
      <trkpt lat="44.04353" lon="7.07043">
        <ele>1541</ele>
        <time>2010-06-13T11:00:46.000Z</time>
      </trkpt>
      <trkpt lat="44.04391" lon="7.0705">
        <ele>1541.8000488281</ele>
        <time>2010-06-13T11:00:56.000Z</time>
      </trkpt>
      <trkpt lat="44.04429" lon="7.07068">
        <ele>1537</ele>
        <time>2010-06-13T11:01:08.000Z</time>
      </trkpt>
      <trkpt lat="44.04464" lon="7.07075">
        <ele>1536.1999511719</ele>
        <time>2010-06-13T11:01:21.000Z</time>
      </trkpt>
      <trkpt lat="44.04494" lon="7.07075">
        <ele>1537.8000488281</ele>
        <time>2010-06-13T11:01:34.000Z</time>
      </trkpt>
      <trkpt lat="44.04525" lon="7.0707">
        <ele>1540.8000488281</ele>
        <time>2010-06-13T11:01:46.000Z</time>
      </trkpt>
      <trkpt lat="44.0453" lon="7.07068">
        <ele>1541.8000488281</ele>
        <time>2010-06-13T11:01:49.000Z</time>
      </trkpt>
      <trkpt lat="44.04538" lon="7.07068">
        <ele>1541.5999755859</ele>
        <time>2010-06-13T11:01:54.000Z</time>
      </trkpt>
      <trkpt lat="44.04565" lon="7.07075">
        <ele>1539.8000488281</ele>
        <time>2010-06-13T11:02:05.000Z</time>
      </trkpt>
      <trkpt lat="44.04587" lon="7.07072">
        <ele>1541.5999755859</ele>
        <time>2010-06-13T11:02:12.000Z</time>
      </trkpt>
      <trkpt lat="44.04599" lon="7.07067">
        <ele>1544.8000488281</ele>
        <time>2010-06-13T11:02:18.000Z</time>
      </trkpt>
      <trkpt lat="44.04606" lon="7.07077">
        <ele>1540.5999755859</ele>
        <time>2010-06-13T11:02:22.000Z</time>
      </trkpt>
      <trkpt lat="44.04611" lon="7.07082">
        <ele>1538.8000488281</ele>
        <time>2010-06-13T11:02:25.000Z</time>
      </trkpt>
      <trkpt lat="44.04638" lon="7.07084">
        <ele>1539.1999511719</ele>
        <time>2010-06-13T11:02:38.000Z</time>
      </trkpt>
      <trkpt lat="44.04664" lon="7.07087">
        <ele>1539.5999755859</ele>
        <time>2010-06-13T11:02:50.000Z</time>
      </trkpt>
      <trkpt lat="44.04683" lon="7.07086">
        <ele>1542</ele>
        <time>2010-06-13T11:03:01.000Z</time>
      </trkpt>
      <trkpt lat="44.04688" lon="7.07078">
        <ele>1545.8000488281</ele>
        <time>2010-06-13T11:03:09.000Z</time>
      </trkpt>
      <trkpt lat="44.04696" lon="7.07067">
        <ele>1552</ele>
        <time>2010-06-13T11:03:19.000Z</time>
      </trkpt>
      <trkpt lat="44.04701" lon="7.07073">
        <ele>1549.5999755859</ele>
        <time>2010-06-13T11:03:31.000Z</time>
      </trkpt>
      <trkpt lat="44.04726" lon="7.07093">
        <ele>1544</ele>
        <time>2010-06-13T11:03:42.000Z</time>
      </trkpt>
      <trkpt lat="44.04757" lon="7.07097">
        <ele>1545.5999755859</ele>
        <time>2010-06-13T11:03:57.000Z</time>
      </trkpt>
      <trkpt lat="44.04781" lon="7.07103">
        <ele>1544.8000488281</ele>
        <time>2010-06-13T11:04:10.000Z</time>
      </trkpt>
      <trkpt lat="44.04787" lon="7.07104">
        <ele>1544.4000244141</ele>
        <time>2010-06-13T11:04:12.000Z</time>
      </trkpt>
      <trkpt lat="44.04802" lon="7.07102">
        <ele>1546.8000488281</ele>
        <time>2010-06-13T11:04:21.000Z</time>
      </trkpt>
      <trkpt lat="44.04799" lon="7.07108">
        <ele>1543.8000488281</ele>
        <time>2010-06-13T11:06:49.000Z</time>
      </trkpt>
      <trkpt lat="44.0482" lon="7.07109">
        <ele>1544.8000488281</ele>
        <time>2010-06-13T11:09:02.000Z</time>
      </trkpt>
      <trkpt lat="44.04861" lon="7.07116">
        <ele>1543.5999755859</ele>
        <time>2010-06-13T11:09:15.000Z</time>
      </trkpt>
      <trkpt lat="44.04893" lon="7.07112">
        <ele>1547.1999511719</ele>
        <time>2010-06-13T11:09:25.000Z</time>
      </trkpt>
      <trkpt lat="44.04899" lon="7.07112">
        <ele>1547.4000244141</ele>
        <time>2010-06-13T11:09:27.000Z</time>
      </trkpt>
      <trkpt lat="44.04905" lon="7.07113">
        <ele>1547.4000244141</ele>
        <time>2010-06-13T11:09:30.000Z</time>
      </trkpt>
      <trkpt lat="44.04927" lon="7.0712">
        <ele>1546.1999511719</ele>
        <time>2010-06-13T11:09:36.000Z</time>
      </trkpt>
      <trkpt lat="44.04953" lon="7.07132">
        <ele>1543.1999511719</ele>
        <time>2010-06-13T11:09:46.000Z</time>
      </trkpt>
      <trkpt lat="44.0499" lon="7.07143">
        <ele>1542.1999511719</ele>
        <time>2010-06-13T11:10:00.000Z</time>
      </trkpt>
      <trkpt lat="44.05008" lon="7.07153">
        <ele>1540</ele>
        <time>2010-06-13T11:10:05.000Z</time>
      </trkpt>
      <trkpt lat="44.05031" lon="7.07157">
        <ele>1541.8000488281</ele>
        <time>2010-06-13T11:10:15.000Z</time>
      </trkpt>
      <trkpt lat="44.05056" lon="7.07163">
        <ele>1543</ele>
        <time>2010-06-13T11:10:23.000Z</time>
      </trkpt>
      <trkpt lat="44.0508" lon="7.07168">
        <ele>1544.8000488281</ele>
        <time>2010-06-13T11:10:30.000Z</time>
      </trkpt>
      <trkpt lat="44.05113" lon="7.07175">
        <ele>1544.1999511719</ele>
        <time>2010-06-13T11:10:44.000Z</time>
      </trkpt>
      <trkpt lat="44.0514" lon="7.07179">
        <ele>1544.4000244141</ele>
        <time>2010-06-13T11:10:56.000Z</time>
      </trkpt>
      <trkpt lat="44.05161" lon="7.07178">
        <ele>1546.5999755859</ele>
        <time>2010-06-13T11:11:07.000Z</time>
      </trkpt>
      <trkpt lat="44.05164" lon="7.07177">
        <ele>1547</ele>
        <time>2010-06-13T11:11:09.000Z</time>
      </trkpt>
      <trkpt lat="44.05166" lon="7.07177">
        <ele>1547</ele>
        <time>2010-06-13T11:11:11.000Z</time>
      </trkpt>
      <trkpt lat="44.05173" lon="7.07176">
        <ele>1548.1999511719</ele>
        <time>2010-06-13T11:11:15.000Z</time>
      </trkpt>
      <trkpt lat="44.05193" lon="7.07172">
        <ele>1550.5999755859</ele>
        <time>2010-06-13T11:11:25.000Z</time>
      </trkpt>
      <trkpt lat="44.05197" lon="7.07175">
        <ele>1549.8000488281</ele>
        <time>2010-06-13T11:11:28.000Z</time>
      </trkpt>
      <trkpt lat="44.05212" lon="7.07171">
        <ele>1552.1999511719</ele>
        <time>2010-06-13T11:11:34.000Z</time>
      </trkpt>
      <trkpt lat="44.05229" lon="7.07176">
        <ele>1551.1999511719</ele>
        <time>2010-06-13T11:11:47.000Z</time>
      </trkpt>
      <trkpt lat="44.05257" lon="7.07183">
        <ele>1550</ele>
        <time>2010-06-13T11:12:02.000Z</time>
      </trkpt>
      <trkpt lat="44.05271" lon="7.0719">
        <ele>1548.8000488281</ele>
        <time>2010-06-13T11:12:13.000Z</time>
      </trkpt>
      <trkpt lat="44.05293" lon="7.07193">
        <ele>1550.1999511719</ele>
        <time>2010-06-13T11:12:36.000Z</time>
      </trkpt>
      <trkpt lat="44.05303" lon="7.07194">
        <ele>1551.1999511719</ele>
        <time>2010-06-13T11:12:46.000Z</time>
      </trkpt>
      <trkpt lat="44.05311" lon="7.07201">
        <ele>1549.8000488281</ele>
        <time>2010-06-13T11:12:52.000Z</time>
      </trkpt>
      <trkpt lat="44.05318" lon="7.072">
        <ele>1550.8000488281</ele>
        <time>2010-06-13T11:12:55.000Z</time>
      </trkpt>
      <trkpt lat="44.05323" lon="7.07203">
        <ele>1550.4000244141</ele>
        <time>2010-06-13T11:12:58.000Z</time>
      </trkpt>
      <trkpt lat="44.05327" lon="7.07202">
        <ele>1551.1999511719</ele>
        <time>2010-06-13T11:13:01.000Z</time>
      </trkpt>
      <trkpt lat="44.05325" lon="7.07202">
        <ele>1551</ele>
        <time>2010-06-13T11:13:16.000Z</time>
      </trkpt>
      <trkpt lat="44.0533" lon="7.07202">
        <ele>1551.4000244141</ele>
        <time>2010-06-13T11:13:19.000Z</time>
      </trkpt>
      <trkpt lat="44.05337" lon="7.07203">
        <ele>1551.5999755859</ele>
        <time>2010-06-13T11:13:22.000Z</time>
      </trkpt>
      <trkpt lat="44.05342" lon="7.07206">
        <ele>1550.4000244141</ele>
        <time>2010-06-13T11:13:24.000Z</time>
      </trkpt>
      <trkpt lat="44.05352" lon="7.07207">
        <ele>1550</ele>
        <time>2010-06-13T11:13:29.000Z</time>
      </trkpt>
      <trkpt lat="44.05379" lon="7.07211">
        <ele>1548.5999755859</ele>
        <time>2010-06-13T11:13:42.000Z</time>
      </trkpt>
      <trkpt lat="44.05395" lon="7.07216">
        <ele>1547</ele>
        <time>2010-06-13T11:13:54.000Z</time>
      </trkpt>
      <trkpt lat="44.05413" lon="7.07205">
        <ele>1549.8000488281</ele>
        <time>2010-06-13T11:14:05.000Z</time>
      </trkpt>
      <trkpt lat="44.05425" lon="7.07204">
        <ele>1549.5999755859</ele>
        <time>2010-06-13T11:14:23.000Z</time>
      </trkpt>
      <trkpt lat="44.05433" lon="7.07203">
        <ele>1549.1999511719</ele>
        <time>2010-06-13T11:14:26.000Z</time>
      </trkpt>
      <trkpt lat="44.05437" lon="7.07205">
        <ele>1548.5999755859</ele>
        <time>2010-06-13T11:14:28.000Z</time>
      </trkpt>
      <trkpt lat="44.05455" lon="7.07189">
        <ele>1551.1999511719</ele>
        <time>2010-06-13T11:14:35.000Z</time>
      </trkpt>
      <trkpt lat="44.05458" lon="7.0717">
        <ele>1555.1999511719</ele>
        <time>2010-06-13T11:14:40.000Z</time>
      </trkpt>
      <trkpt lat="44.05474" lon="7.07164">
        <ele>1555.1999511719</ele>
        <time>2010-06-13T11:14:48.000Z</time>
      </trkpt>
      <trkpt lat="44.05482" lon="7.07164">
        <ele>1554.4000244141</ele>
        <time>2010-06-13T11:14:52.000Z</time>
      </trkpt>
      <trkpt lat="44.05485" lon="7.07163">
        <ele>1554.5999755859</ele>
        <time>2010-06-13T11:14:54.000Z</time>
      </trkpt>
      <trkpt lat="44.05504" lon="7.07169">
        <ele>1551.4000244141</ele>
        <time>2010-06-13T11:15:06.000Z</time>
      </trkpt>
      <trkpt lat="44.05511" lon="7.07167">
        <ele>1551.5999755859</ele>
        <time>2010-06-13T11:15:10.000Z</time>
      </trkpt>
      <trkpt lat="44.05521" lon="7.07165">
        <ele>1552</ele>
        <time>2010-06-13T11:15:16.000Z</time>
      </trkpt>
      <trkpt lat="44.05523" lon="7.07162">
        <ele>1552.8000488281</ele>
        <time>2010-06-13T11:15:18.000Z</time>
      </trkpt>
      <trkpt lat="44.05525" lon="7.07158">
        <ele>1553.8000488281</ele>
        <time>2010-06-13T11:15:20.000Z</time>
      </trkpt>
      <trkpt lat="44.05541" lon="7.07142">
        <ele>1557.8000488281</ele>
        <time>2010-06-13T11:15:33.000Z</time>
      </trkpt>
      <trkpt lat="44.05544" lon="7.07119">
        <ele>1563.5999755859</ele>
        <time>2010-06-13T11:15:42.000Z</time>
      </trkpt>
      <trkpt lat="44.05549" lon="7.0712">
        <ele>1563</ele>
        <time>2010-06-13T11:15:46.000Z</time>
      </trkpt>
      <trkpt lat="44.05573" lon="7.0713">
        <ele>1559.1999511719</ele>
        <time>2010-06-13T11:15:58.000Z</time>
      </trkpt>
      <trkpt lat="44.05591" lon="7.07146">
        <ele>1556.1999511719</ele>
        <time>2010-06-13T11:16:05.000Z</time>
      </trkpt>
      <trkpt lat="44.05604" lon="7.07164">
        <ele>1554</ele>
        <time>2010-06-13T11:16:12.000Z</time>
      </trkpt>
      <trkpt lat="44.05611" lon="7.07185">
        <ele>1551.5999755859</ele>
        <time>2010-06-13T11:16:17.000Z</time>
      </trkpt>
      <trkpt lat="44.05613" lon="7.07191">
        <ele>1550.8000488281</ele>
        <time>2010-06-13T11:16:19.000Z</time>
      </trkpt>
      <trkpt lat="44.05613" lon="7.07192">
        <ele>1550.8000488281</ele>
        <time>2010-06-13T11:16:35.000Z</time>
      </trkpt>
      <trkpt lat="44.05618" lon="7.07212">
        <ele>1548.1999511719</ele>
        <time>2010-06-13T11:16:40.000Z</time>
      </trkpt>
      <trkpt lat="44.0562" lon="7.07223">
        <ele>1546.5999755859</ele>
        <time>2010-06-13T11:16:42.000Z</time>
      </trkpt>
      <trkpt lat="44.05622" lon="7.07231">
        <ele>1545.4000244141</ele>
        <time>2010-06-13T11:16:44.000Z</time>
      </trkpt>
      <trkpt lat="44.05623" lon="7.07242">
        <ele>1543.5999755859</ele>
        <time>2010-06-13T11:16:47.000Z</time>
      </trkpt>
      <trkpt lat="44.05627" lon="7.07251">
        <ele>1542.1999511719</ele>
        <time>2010-06-13T11:16:49.000Z</time>
      </trkpt>
      <trkpt lat="44.05626" lon="7.07257">
        <ele>1541.1999511719</ele>
        <time>2010-06-13T11:16:51.000Z</time>
      </trkpt>
      <trkpt lat="44.05623" lon="7.07274">
        <ele>1538.1999511719</ele>
        <time>2010-06-13T11:16:54.000Z</time>
      </trkpt>
      <trkpt lat="44.05629" lon="7.07299">
        <ele>1534</ele>
        <time>2010-06-13T11:16:58.000Z</time>
      </trkpt>
      <trkpt lat="44.05633" lon="7.07316">
        <ele>1531.4000244141</ele>
        <time>2010-06-13T11:17:01.000Z</time>
      </trkpt>
      <trkpt lat="44.05646" lon="7.07357">
        <ele>1523.8000488281</ele>
        <time>2010-06-13T11:17:10.000Z</time>
      </trkpt>
      <trkpt lat="44.0565" lon="7.07365">
        <ele>1522.4000244141</ele>
        <time>2010-06-13T11:17:12.000Z</time>
      </trkpt>
      <trkpt lat="44.05653" lon="7.07371">
        <ele>1521.4000244141</ele>
        <time>2010-06-13T11:17:14.000Z</time>
      </trkpt>
      <trkpt lat="44.05654" lon="7.07373">
        <ele>1521</ele>
        <time>2010-06-13T11:17:15.000Z</time>
      </trkpt>
      <trkpt lat="44.05656" lon="7.07375">
        <ele>1520.8000488281</ele>
        <time>2010-06-13T11:17:17.000Z</time>
      </trkpt>
      <trkpt lat="44.05656" lon="7.07374">
        <ele>1521</ele>
        <time>2010-06-13T11:17:45.000Z</time>
      </trkpt>
      <trkpt lat="44.05654" lon="7.07377">
        <ele>1520.4000244141</ele>
        <time>2010-06-13T11:18:58.000Z</time>
      </trkpt>
      <trkpt lat="44.05653" lon="7.0739">
        <ele>1517.4000244141</ele>
        <time>2010-06-13T11:19:01.000Z</time>
      </trkpt>
      <trkpt lat="44.05654" lon="7.07403">
        <ele>1515</ele>
        <time>2010-06-13T11:19:03.000Z</time>
      </trkpt>
      <trkpt lat="44.05655" lon="7.07406">
        <ele>1514.4000244141</ele>
        <time>2010-06-13T11:19:04.000Z</time>
      </trkpt>
      <trkpt lat="44.0565" lon="7.07414">
        <ele>1512</ele>
        <time>2010-06-13T11:19:06.000Z</time>
      </trkpt>
      <trkpt lat="44.05652" lon="7.07428">
        <ele>1509</ele>
        <time>2010-06-13T11:19:08.000Z</time>
      </trkpt>
      <trkpt lat="44.05653" lon="7.07439">
        <ele>1506.1999511719</ele>
        <time>2010-06-13T11:19:10.000Z</time>
      </trkpt>
      <trkpt lat="44.05656" lon="7.07447">
        <ele>1504.8000488281</ele>
        <time>2010-06-13T11:19:12.000Z</time>
      </trkpt>
      <trkpt lat="44.05656" lon="7.07458">
        <ele>1502</ele>
        <time>2010-06-13T11:19:15.000Z</time>
      </trkpt>
      <trkpt lat="44.05657" lon="7.0747">
        <ele>1499</ele>
        <time>2010-06-13T11:19:19.000Z</time>
      </trkpt>
      <trkpt lat="44.05658" lon="7.07473">
        <ele>1498.1999511719</ele>
        <time>2010-06-13T11:19:21.000Z</time>
      </trkpt>
      <trkpt lat="44.05655" lon="7.07488">
        <ele>1494</ele>
        <time>2010-06-13T11:19:26.000Z</time>
      </trkpt>
      <trkpt lat="44.05655" lon="7.07495">
        <ele>1492.4000244141</ele>
        <time>2010-06-13T11:19:28.000Z</time>
      </trkpt>
      <trkpt lat="44.05651" lon="7.07504">
        <ele>1489.4000244141</ele>
        <time>2010-06-13T11:19:32.000Z</time>
      </trkpt>
      <trkpt lat="44.05653" lon="7.07515">
        <ele>1487</ele>
        <time>2010-06-13T11:19:35.000Z</time>
      </trkpt>
      <trkpt lat="44.05656" lon="7.07519">
        <ele>1486.1999511719</ele>
        <time>2010-06-13T11:19:36.000Z</time>
      </trkpt>
      <trkpt lat="44.05659" lon="7.07525">
        <ele>1485</ele>
        <time>2010-06-13T11:19:38.000Z</time>
      </trkpt>
      <trkpt lat="44.05659" lon="7.07527">
        <ele>1484.4000244141</ele>
        <time>2010-06-13T11:19:39.000Z</time>
      </trkpt>
      <trkpt lat="44.05656" lon="7.07532">
        <ele>1482.8000488281</ele>
        <time>2010-06-13T11:19:42.000Z</time>
      </trkpt>
      <trkpt lat="44.05653" lon="7.0754">
        <ele>1480.1999511719</ele>
        <time>2010-06-13T11:19:44.000Z</time>
      </trkpt>
      <trkpt lat="44.05656" lon="7.0755">
        <ele>1478</ele>
        <time>2010-06-13T11:19:47.000Z</time>
      </trkpt>
      <trkpt lat="44.05657" lon="7.07557">
        <ele>1476</ele>
        <time>2010-06-13T11:19:49.000Z</time>
      </trkpt>
      <trkpt lat="44.05662" lon="7.07573">
        <ele>1472.8000488281</ele>
        <time>2010-06-13T11:19:52.000Z</time>
      </trkpt>
      <trkpt lat="44.05662" lon="7.07579">
        <ele>1471.4000244141</ele>
        <time>2010-06-13T11:19:53.000Z</time>
      </trkpt>
      <trkpt lat="44.05663" lon="7.07602">
        <ele>1466.8000488281</ele>
        <time>2010-06-13T11:19:56.000Z</time>
      </trkpt>
      <trkpt lat="44.05662" lon="7.07613">
        <ele>1464.8000488281</ele>
        <time>2010-06-13T11:19:57.000Z</time>
      </trkpt>
      <trkpt lat="44.05659" lon="7.07633">
        <ele>1460.8000488281</ele>
        <time>2010-06-13T11:19:59.000Z</time>
      </trkpt>
      <trkpt lat="44.05656" lon="7.0765">
        <ele>1457</ele>
        <time>2010-06-13T11:20:01.000Z</time>
      </trkpt>
      <trkpt lat="44.05654" lon="7.07666">
        <ele>1454</ele>
        <time>2010-06-13T11:20:03.000Z</time>
      </trkpt>
      <trkpt lat="44.05651" lon="7.07678">
        <ele>1451.1999511719</ele>
        <time>2010-06-13T11:20:05.000Z</time>
      </trkpt>
      <trkpt lat="44.05648" lon="7.07682">
        <ele>1449.8000488281</ele>
        <time>2010-06-13T11:20:06.000Z</time>
      </trkpt>
      <trkpt lat="44.05644" lon="7.0769">
        <ele>1447.5999755859</ele>
        <time>2010-06-13T11:20:08.000Z</time>
      </trkpt>
      <trkpt lat="44.05645" lon="7.07696">
        <ele>1446.4000244141</ele>
        <time>2010-06-13T11:20:10.000Z</time>
      </trkpt>
      <trkpt lat="44.05664" lon="7.07713">
        <ele>1445.4000244141</ele>
        <time>2010-06-13T11:20:16.000Z</time>
      </trkpt>
      <trkpt lat="44.05679" lon="7.07717">
        <ele>1445.1999511719</ele>
        <time>2010-06-13T11:20:20.000Z</time>
      </trkpt>
      <trkpt lat="44.05683" lon="7.07721">
        <ele>1444.4000244141</ele>
        <time>2010-06-13T11:20:22.000Z</time>
      </trkpt>
      <trkpt lat="44.05693" lon="7.07731">
        <ele>1442.4000244141</ele>
        <time>2010-06-13T11:20:26.000Z</time>
      </trkpt>
      <trkpt lat="44.05705" lon="7.07743">
        <ele>1439.8000488281</ele>
        <time>2010-06-13T11:20:29.000Z</time>
      </trkpt>
      <trkpt lat="44.05711" lon="7.07753">
        <ele>1438</ele>
        <time>2010-06-13T11:20:31.000Z</time>
      </trkpt>
      <trkpt lat="44.05716" lon="7.0776">
        <ele>1436.8000488281</ele>
        <time>2010-06-13T11:20:33.000Z</time>
      </trkpt>
      <trkpt lat="44.05721" lon="7.07762">
        <ele>1436.4000244141</ele>
        <time>2010-06-13T11:20:35.000Z</time>
      </trkpt>
      <trkpt lat="44.05737" lon="7.07798">
        <ele>1430.8000488281</ele>
        <time>2010-06-13T11:20:41.000Z</time>
      </trkpt>
      <trkpt lat="44.05746" lon="7.07814">
        <ele>1428.5999755859</ele>
        <time>2010-06-13T11:20:43.000Z</time>
      </trkpt>
      <trkpt lat="44.05751" lon="7.0784">
        <ele>1425</ele>
        <time>2010-06-13T11:20:46.000Z</time>
      </trkpt>
      <trkpt lat="44.05766" lon="7.07892">
        <ele>1418.5999755859</ele>
        <time>2010-06-13T11:20:51.000Z</time>
      </trkpt>
      <trkpt lat="44.0577" lon="7.07903">
        <ele>1417.4000244141</ele>
        <time>2010-06-13T11:20:52.000Z</time>
      </trkpt>
      <trkpt lat="44.05771" lon="7.07916">
        <ele>1415.5999755859</ele>
        <time>2010-06-13T11:20:53.000Z</time>
      </trkpt>
      <trkpt lat="44.05776" lon="7.0794">
        <ele>1412.5999755859</ele>
        <time>2010-06-13T11:20:55.000Z</time>
      </trkpt>
      <trkpt lat="44.05783" lon="7.07959">
        <ele>1410.8000488281</ele>
        <time>2010-06-13T11:20:57.000Z</time>
      </trkpt>
      <trkpt lat="44.0579" lon="7.07971">
        <ele>1410.4000244141</ele>
        <time>2010-06-13T11:20:59.000Z</time>
      </trkpt>
      <trkpt lat="44.05805" lon="7.07989">
        <ele>1410.8000488281</ele>
        <time>2010-06-13T11:21:02.000Z</time>
      </trkpt>
      <trkpt lat="44.0581" lon="7.08002">
        <ele>1410</ele>
        <time>2010-06-13T11:21:04.000Z</time>
      </trkpt>
      <trkpt lat="44.05814" lon="7.08019">
        <ele>1408.1999511719</ele>
        <time>2010-06-13T11:21:06.000Z</time>
      </trkpt>
      <trkpt lat="44.0582" lon="7.08044">
        <ele>1405.4000244141</ele>
        <time>2010-06-13T11:21:10.000Z</time>
      </trkpt>
      <trkpt lat="44.05822" lon="7.08053">
        <ele>1404.4000244141</ele>
        <time>2010-06-13T11:21:13.000Z</time>
      </trkpt>
      <trkpt lat="44.05822" lon="7.08069">
        <ele>1402</ele>
        <time>2010-06-13T11:21:16.000Z</time>
      </trkpt>
      <trkpt lat="44.05826" lon="7.08087">
        <ele>1400.1999511719</ele>
        <time>2010-06-13T11:21:19.000Z</time>
      </trkpt>
      <trkpt lat="44.05827" lon="7.0809">
        <ele>1400</ele>
        <time>2010-06-13T11:21:20.000Z</time>
      </trkpt>
      <trkpt lat="44.05833" lon="7.08104">
        <ele>1399.5999755859</ele>
        <time>2010-06-13T11:21:26.000Z</time>
      </trkpt>
      <trkpt lat="44.0584" lon="7.08116">
        <ele>1398.8000488281</ele>
        <time>2010-06-13T11:21:32.000Z</time>
      </trkpt>
      <trkpt lat="44.05845" lon="7.08127">
        <ele>1398</ele>
        <time>2010-06-13T11:21:35.000Z</time>
      </trkpt>
      <trkpt lat="44.05849" lon="7.0813">
        <ele>1398</ele>
        <time>2010-06-13T11:21:37.000Z</time>
      </trkpt>
      <trkpt lat="44.0586" lon="7.08153">
        <ele>1396.1999511719</ele>
        <time>2010-06-13T11:21:46.000Z</time>
      </trkpt>
      <trkpt lat="44.05869" lon="7.08195">
        <ele>1391.1999511719</ele>
        <time>2010-06-13T11:21:56.000Z</time>
      </trkpt>
      <trkpt lat="44.0588" lon="7.08232">
        <ele>1387.5999755859</ele>
        <time>2010-06-13T11:22:04.000Z</time>
      </trkpt>
      <trkpt lat="44.0588" lon="7.08243">
        <ele>1386</ele>
        <time>2010-06-13T11:22:07.000Z</time>
      </trkpt>
      <trkpt lat="44.05889" lon="7.08261">
        <ele>1385</ele>
        <time>2010-06-13T11:22:13.000Z</time>
      </trkpt>
      <trkpt lat="44.05887" lon="7.08274">
        <ele>1382.5999755859</ele>
        <time>2010-06-13T11:22:18.000Z</time>
      </trkpt>
      <trkpt lat="44.05886" lon="7.08287">
        <ele>1380.5999755859</ele>
        <time>2010-06-13T11:22:22.000Z</time>
      </trkpt>
      <trkpt lat="44.05886" lon="7.0829">
        <ele>1380.1999511719</ele>
        <time>2010-06-13T11:22:23.000Z</time>
      </trkpt>
      <trkpt lat="44.05886" lon="7.08296">
        <ele>1379.1999511719</ele>
        <time>2010-06-13T11:22:25.000Z</time>
      </trkpt>
      <trkpt lat="44.05885" lon="7.08304">
        <ele>1377.5999755859</ele>
        <time>2010-06-13T11:22:28.000Z</time>
      </trkpt>
      <trkpt lat="44.05886" lon="7.08312">
        <ele>1376.8000488281</ele>
        <time>2010-06-13T11:22:32.000Z</time>
      </trkpt>
      <trkpt lat="44.05885" lon="7.08314">
        <ele>1376.1999511719</ele>
        <time>2010-06-13T11:22:33.000Z</time>
      </trkpt>
      <trkpt lat="44.05881" lon="7.08319">
        <ele>1374.1999511719</ele>
        <time>2010-06-13T11:22:36.000Z</time>
      </trkpt>
      <trkpt lat="44.05879" lon="7.08327">
        <ele>1372.5999755859</ele>
        <time>2010-06-13T11:22:38.000Z</time>
      </trkpt>
      <trkpt lat="44.05878" lon="7.08337">
        <ele>1370.8000488281</ele>
        <time>2010-06-13T11:22:40.000Z</time>
      </trkpt>
      <trkpt lat="44.05878" lon="7.08348">
        <ele>1368.1999511719</ele>
        <time>2010-06-13T11:22:43.000Z</time>
      </trkpt>
      <trkpt lat="44.05878" lon="7.08352">
        <ele>1367.5999755859</ele>
        <time>2010-06-13T11:22:45.000Z</time>
      </trkpt>
      <trkpt lat="44.05879" lon="7.08355">
        <ele>1367.1999511719</ele>
        <time>2010-06-13T11:22:49.000Z</time>
      </trkpt>
      <trkpt lat="44.05875" lon="7.08368">
        <ele>1363.4000244141</ele>
        <time>2010-06-13T11:22:55.000Z</time>
      </trkpt>
      <trkpt lat="44.05867" lon="7.08365">
        <ele>1361.5999755859</ele>
        <time>2010-06-13T11:22:57.000Z</time>
      </trkpt>
      <trkpt lat="44.05861" lon="7.0836">
        <ele>1360.8000488281</ele>
        <time>2010-06-13T11:22:59.000Z</time>
      </trkpt>
      <trkpt lat="44.05857" lon="7.08354">
        <ele>1360.8000488281</ele>
        <time>2010-06-13T11:23:01.000Z</time>
      </trkpt>
      <trkpt lat="44.05847" lon="7.08355">
        <ele>1357.5999755859</ele>
        <time>2010-06-13T11:23:06.000Z</time>
      </trkpt>
      <trkpt lat="44.05844" lon="7.08359">
        <ele>1356</ele>
        <time>2010-06-13T11:23:08.000Z</time>
      </trkpt>
      <trkpt lat="44.05844" lon="7.0836">
        <ele>1355.5999755859</ele>
        <time>2010-06-13T11:23:09.000Z</time>
      </trkpt>
      <trkpt lat="44.05844" lon="7.08361">
        <ele>1355.4000244141</ele>
        <time>2010-06-13T11:23:13.000Z</time>
      </trkpt>
      <trkpt lat="44.05844" lon="7.08365">
        <ele>1354.5999755859</ele>
        <time>2010-06-13T11:23:20.000Z</time>
      </trkpt>
      <trkpt lat="44.05841" lon="7.08378">
        <ele>1351.1999511719</ele>
        <time>2010-06-13T11:23:25.000Z</time>
      </trkpt>
      <trkpt lat="44.05841" lon="7.08381">
        <ele>1350.5999755859</ele>
        <time>2010-06-13T11:23:26.000Z</time>
      </trkpt>
      <trkpt lat="44.05842" lon="7.08396">
        <ele>1347.8000488281</ele>
        <time>2010-06-13T11:23:29.000Z</time>
      </trkpt>
      <trkpt lat="44.05848" lon="7.08412">
        <ele>1346.1999511719</ele>
        <time>2010-06-13T11:23:32.000Z</time>
      </trkpt>
      <trkpt lat="44.05855" lon="7.08431">
        <ele>1344</ele>
        <time>2010-06-13T11:23:35.000Z</time>
      </trkpt>
      <trkpt lat="44.05867" lon="7.08463">
        <ele>1339.8000488281</ele>
        <time>2010-06-13T11:23:40.000Z</time>
      </trkpt>
      <trkpt lat="44.05877" lon="7.0849">
        <ele>1336</ele>
        <time>2010-06-13T11:23:44.000Z</time>
      </trkpt>
      <trkpt lat="44.0588" lon="7.08502">
        <ele>1334.1999511719</ele>
        <time>2010-06-13T11:23:46.000Z</time>
      </trkpt>
      <trkpt lat="44.05882" lon="7.08511">
        <ele>1333.1999511719</ele>
        <time>2010-06-13T11:23:48.000Z</time>
      </trkpt>
      <trkpt lat="44.05883" lon="7.0852">
        <ele>1332</ele>
        <time>2010-06-13T11:23:50.000Z</time>
      </trkpt>
      <trkpt lat="44.05885" lon="7.08528">
        <ele>1331.1999511719</ele>
        <time>2010-06-13T11:23:52.000Z</time>
      </trkpt>
      <trkpt lat="44.05882" lon="7.08543">
        <ele>1327.1999511719</ele>
        <time>2010-06-13T11:23:55.000Z</time>
      </trkpt>
      <trkpt lat="44.0588" lon="7.08548">
        <ele>1325.5999755859</ele>
        <time>2010-06-13T11:23:56.000Z</time>
      </trkpt>
      <trkpt lat="44.05878" lon="7.08561">
        <ele>1322.4000244141</ele>
        <time>2010-06-13T11:23:59.000Z</time>
      </trkpt>
      <trkpt lat="44.05878" lon="7.08565">
        <ele>1321.8000488281</ele>
        <time>2010-06-13T11:24:00.000Z</time>
      </trkpt>
      <trkpt lat="44.0588" lon="7.08572">
        <ele>1321.1999511719</ele>
        <time>2010-06-13T11:24:02.000Z</time>
      </trkpt>
      <trkpt lat="44.05879" lon="7.08577">
        <ele>1319.5999755859</ele>
        <time>2010-06-13T11:24:04.000Z</time>
      </trkpt>
      <trkpt lat="44.05877" lon="7.08581">
        <ele>1318.1999511719</ele>
        <time>2010-06-13T11:24:07.000Z</time>
      </trkpt>
      <trkpt lat="44.05875" lon="7.08585">
        <ele>1316.5999755859</ele>
        <time>2010-06-13T11:24:09.000Z</time>
      </trkpt>
      <trkpt lat="44.05874" lon="7.08588">
        <ele>1315.8000488281</ele>
        <time>2010-06-13T11:24:10.000Z</time>
      </trkpt>
      <trkpt lat="44.05874" lon="7.08596">
        <ele>1314</ele>
        <time>2010-06-13T11:24:13.000Z</time>
      </trkpt>
      <trkpt lat="44.05874" lon="7.08604">
        <ele>1313</ele>
        <time>2010-06-13T11:24:15.000Z</time>
      </trkpt>
      <trkpt lat="44.05874" lon="7.08626">
        <ele>1309.4000244141</ele>
        <time>2010-06-13T11:24:20.000Z</time>
      </trkpt>
      <trkpt lat="44.05877" lon="7.08655">
        <ele>1305.8000488281</ele>
        <time>2010-06-13T11:24:30.000Z</time>
      </trkpt>
      <trkpt lat="44.05875" lon="7.08675">
        <ele>1301.4000244141</ele>
        <time>2010-06-13T11:24:36.000Z</time>
      </trkpt>
      <trkpt lat="44.05882" lon="7.0869">
        <ele>1300.8000488281</ele>
        <time>2010-06-13T11:24:39.000Z</time>
      </trkpt>
      <trkpt lat="44.05884" lon="7.08701">
        <ele>1299.5999755859</ele>
        <time>2010-06-13T11:24:41.000Z</time>
      </trkpt>
      <trkpt lat="44.05884" lon="7.08707">
        <ele>1298.4000244141</ele>
        <time>2010-06-13T11:24:43.000Z</time>
      </trkpt>
      <trkpt lat="44.05877" lon="7.08707">
        <ele>1295.4000244141</ele>
        <time>2010-06-13T11:24:46.000Z</time>
      </trkpt>
      <trkpt lat="44.05875" lon="7.0871">
        <ele>1293.4000244141</ele>
        <time>2010-06-13T11:24:48.000Z</time>
      </trkpt>
      <trkpt lat="44.05872" lon="7.08712">
        <ele>1292.1999511719</ele>
        <time>2010-06-13T11:24:49.000Z</time>
      </trkpt>
      <trkpt lat="44.05869" lon="7.08722">
        <ele>1289</ele>
        <time>2010-06-13T11:24:53.000Z</time>
      </trkpt>
      <trkpt lat="44.05865" lon="7.08726">
        <ele>1286.1999511719</ele>
        <time>2010-06-13T11:24:55.000Z</time>
      </trkpt>
      <trkpt lat="44.05859" lon="7.08728">
        <ele>1283.4000244141</ele>
        <time>2010-06-13T11:24:57.000Z</time>
      </trkpt>
      <trkpt lat="44.05853" lon="7.0873">
        <ele>1280</ele>
        <time>2010-06-13T11:25:00.000Z</time>
      </trkpt>
      <trkpt lat="44.05849" lon="7.08735">
        <ele>1277.4000244141</ele>
        <time>2010-06-13T11:25:02.000Z</time>
      </trkpt>
      <trkpt lat="44.05846" lon="7.08746">
        <ele>1273.8000488281</ele>
        <time>2010-06-13T11:25:04.000Z</time>
      </trkpt>
      <trkpt lat="44.05845" lon="7.08754">
        <ele>1272.1999511719</ele>
        <time>2010-06-13T11:25:06.000Z</time>
      </trkpt>
      <trkpt lat="44.05846" lon="7.08755">
        <ele>1272.4000244141</ele>
        <time>2010-06-13T11:25:07.000Z</time>
      </trkpt>
      <trkpt lat="44.05848" lon="7.08755">
        <ele>1273.1999511719</ele>
        <time>2010-06-13T11:25:22.000Z</time>
      </trkpt>
      <trkpt lat="44.05842" lon="7.08751">
        <ele>1271.5999755859</ele>
        <time>2010-06-13T11:25:43.000Z</time>
      </trkpt>
      <trkpt lat="44.05846" lon="7.08758">
        <ele>1272</ele>
        <time>2010-06-13T11:27:35.000Z</time>
      </trkpt>
      <trkpt lat="44.05846" lon="7.08759">
        <ele>1271.8000488281</ele>
        <time>2010-06-13T11:32:10.000Z</time>
      </trkpt>
      <trkpt lat="44.05849" lon="7.08782">
        <ele>1269.4000244141</ele>
        <time>2010-06-13T11:32:18.000Z</time>
      </trkpt>
      <trkpt lat="44.05848" lon="7.08783">
        <ele>1269</ele>
        <time>2010-06-13T11:32:21.000Z</time>
      </trkpt>
      <trkpt lat="44.05849" lon="7.08787">
        <ele>1269</ele>
        <time>2010-06-13T11:32:36.000Z</time>
      </trkpt>
      <trkpt lat="44.05848" lon="7.08791">
        <ele>1267.8000488281</ele>
        <time>2010-06-13T11:33:40.000Z</time>
      </trkpt>
      <trkpt lat="44.05848" lon="7.08791">
        <ele>1267.8000488281</ele>
        <time>2010-06-13T11:34:59.000Z</time>
      </trkpt>
      <trkpt lat="44.05848" lon="7.08791">
        <ele>1267.8000488281</ele>
        <time>2010-06-13T11:35:01.000Z</time>
      </trkpt>
      <trkpt lat="44.05847" lon="7.08772">
        <ele>1270.1999511719</ele>
        <time>2010-06-13T11:35:06.000Z</time>
      </trkpt>
      <trkpt lat="44.05848" lon="7.08767">
        <ele>1271.4000244141</ele>
        <time>2010-06-13T11:35:10.000Z</time>
      </trkpt>
      <trkpt lat="44.05847" lon="7.08788">
        <ele>1268</ele>
        <time>2010-06-13T11:35:18.000Z</time>
      </trkpt>
      <trkpt lat="44.05846" lon="7.08791">
        <ele>1266.8000488281</ele>
        <time>2010-06-13T11:35:23.000Z</time>
      </trkpt>
      <trkpt lat="44.05833" lon="7.08787">
        <ele>1262.4000244141</ele>
        <time>2010-06-13T11:35:27.000Z</time>
      </trkpt>
      <trkpt lat="44.05818" lon="7.0879">
        <ele>1256.4000244141</ele>
        <time>2010-06-13T11:35:30.000Z</time>
      </trkpt>
      <trkpt lat="44.05814" lon="7.08794">
        <ele>1254.1999511719</ele>
        <time>2010-06-13T11:35:32.000Z</time>
      </trkpt>
      <trkpt lat="44.05813" lon="7.08796">
        <ele>1253.5999755859</ele>
        <time>2010-06-13T11:35:33.000Z</time>
      </trkpt>
      <trkpt lat="44.05811" lon="7.08796">
        <ele>1253</ele>
        <time>2010-06-13T11:35:34.000Z</time>
      </trkpt>
      <trkpt lat="44.05803" lon="7.08795">
        <ele>1250</ele>
        <time>2010-06-13T11:35:37.000Z</time>
      </trkpt>
      <trkpt lat="44.05789" lon="7.08788">
        <ele>1245.5999755859</ele>
        <time>2010-06-13T11:35:41.000Z</time>
      </trkpt>
      <trkpt lat="44.05785" lon="7.08785">
        <ele>1244.5999755859</ele>
        <time>2010-06-13T11:35:42.000Z</time>
      </trkpt>
      <trkpt lat="44.05779" lon="7.08784">
        <ele>1242.5999755859</ele>
        <time>2010-06-13T11:35:44.000Z</time>
      </trkpt>
      <trkpt lat="44.05771" lon="7.08788">
        <ele>1239</ele>
        <time>2010-06-13T11:35:46.000Z</time>
      </trkpt>
      <trkpt lat="44.05765" lon="7.08793">
        <ele>1235.8000488281</ele>
        <time>2010-06-13T11:35:49.000Z</time>
      </trkpt>
      <trkpt lat="44.05761" lon="7.08798">
        <ele>1233.5999755859</ele>
        <time>2010-06-13T11:35:51.000Z</time>
      </trkpt>
      <trkpt lat="44.05757" lon="7.08795">
        <ele>1232.5999755859</ele>
        <time>2010-06-13T11:35:53.000Z</time>
      </trkpt>
      <trkpt lat="44.05754" lon="7.0879">
        <ele>1232.1999511719</ele>
        <time>2010-06-13T11:35:54.000Z</time>
      </trkpt>
      <trkpt lat="44.05747" lon="7.08783">
        <ele>1230.1999511719</ele>
        <time>2010-06-13T11:35:56.000Z</time>
      </trkpt>
      <trkpt lat="44.0574" lon="7.08776">
        <ele>1228.8000488281</ele>
        <time>2010-06-13T11:35:58.000Z</time>
      </trkpt>
      <trkpt lat="44.05731" lon="7.08764">
        <ele>1226.5999755859</ele>
        <time>2010-06-13T11:36:00.000Z</time>
      </trkpt>
      <trkpt lat="44.05726" lon="7.08757">
        <ele>1225.5999755859</ele>
        <time>2010-06-13T11:36:01.000Z</time>
      </trkpt>
      <trkpt lat="44.05719" lon="7.08747">
        <ele>1224</ele>
        <time>2010-06-13T11:36:03.000Z</time>
      </trkpt>
      <trkpt lat="44.05717" lon="7.08742">
        <ele>1223.5999755859</ele>
        <time>2010-06-13T11:36:04.000Z</time>
      </trkpt>
      <trkpt lat="44.0571" lon="7.08698">
        <ele>1225.8000488281</ele>
        <time>2010-06-13T11:36:10.000Z</time>
      </trkpt>
      <trkpt lat="44.05705" lon="7.08684">
        <ele>1225.4000244141</ele>
        <time>2010-06-13T11:36:12.000Z</time>
      </trkpt>
      <trkpt lat="44.05698" lon="7.08653">
        <ele>1227.8000488281</ele>
        <time>2010-06-13T11:36:17.000Z</time>
      </trkpt>
      <trkpt lat="44.05687" lon="7.08628">
        <ele>1229.1999511719</ele>
        <time>2010-06-13T11:36:21.000Z</time>
      </trkpt>
      <trkpt lat="44.05651" lon="7.08591">
        <ele>1224.1999511719</ele>
        <time>2010-06-13T11:36:32.000Z</time>
      </trkpt>
      <trkpt lat="44.05613" lon="7.08545">
        <ele>1223.5999755859</ele>
        <time>2010-06-13T11:36:48.000Z</time>
      </trkpt>
      <trkpt lat="44.05596" lon="7.08505">
        <ele>1226.4000244141</ele>
        <time>2010-06-13T11:37:00.000Z</time>
      </trkpt>
      <trkpt lat="44.0556" lon="7.08445">
        <ele>1228.4000244141</ele>
        <time>2010-06-13T11:37:18.000Z</time>
      </trkpt>
      <trkpt lat="44.05531" lon="7.08402">
        <ele>1227</ele>
        <time>2010-06-13T11:37:34.000Z</time>
      </trkpt>
      <trkpt lat="44.05506" lon="7.08348">
        <ele>1231.8000488281</ele>
        <time>2010-06-13T11:37:45.000Z</time>
      </trkpt>
      <trkpt lat="44.05496" lon="7.08328">
        <ele>1233</ele>
        <time>2010-06-13T11:37:48.000Z</time>
      </trkpt>
      <trkpt lat="44.05483" lon="7.08312">
        <ele>1231.4000244141</ele>
        <time>2010-06-13T11:37:50.000Z</time>
      </trkpt>
      <trkpt lat="44.05464" lon="7.08293">
        <ele>1227.5999755859</ele>
        <time>2010-06-13T11:37:53.000Z</time>
      </trkpt>
      <trkpt lat="44.05449" lon="7.08273">
        <ele>1227</ele>
        <time>2010-06-13T11:37:56.000Z</time>
      </trkpt>
      <trkpt lat="44.05431" lon="7.08258">
        <ele>1223.8000488281</ele>
        <time>2010-06-13T11:37:59.000Z</time>
      </trkpt>
      <trkpt lat="44.05423" lon="7.08254">
        <ele>1221.1999511719</ele>
        <time>2010-06-13T11:38:00.000Z</time>
      </trkpt>
      <trkpt lat="44.05405" lon="7.08245">
        <ele>1218.1999511719</ele>
        <time>2010-06-13T11:38:02.000Z</time>
      </trkpt>
      <trkpt lat="44.05386" lon="7.08236">
        <ele>1214.8000488281</ele>
        <time>2010-06-13T11:38:04.000Z</time>
      </trkpt>
      <trkpt lat="44.05367" lon="7.08227">
        <ele>1212.1999511719</ele>
        <time>2010-06-13T11:38:06.000Z</time>
      </trkpt>
      <trkpt lat="44.0536" lon="7.08224">
        <ele>1211</ele>
        <time>2010-06-13T11:38:07.000Z</time>
      </trkpt>
      <trkpt lat="44.05346" lon="7.08218">
        <ele>1208</ele>
        <time>2010-06-13T11:38:09.000Z</time>
      </trkpt>
      <trkpt lat="44.05338" lon="7.08218">
        <ele>1205</ele>
        <time>2010-06-13T11:38:10.000Z</time>
      </trkpt>
      <trkpt lat="44.0533" lon="7.08214">
        <ele>1204</ele>
        <time>2010-06-13T11:38:11.000Z</time>
      </trkpt>
      <trkpt lat="44.05311" lon="7.08209">
        <ele>1199.5999755859</ele>
        <time>2010-06-13T11:38:13.000Z</time>
      </trkpt>
      <trkpt lat="44.0529" lon="7.082">
        <ele>1195.4000244141</ele>
        <time>2010-06-13T11:38:15.000Z</time>
      </trkpt>
      <trkpt lat="44.05279" lon="7.08195">
        <ele>1193.5999755859</ele>
        <time>2010-06-13T11:38:16.000Z</time>
      </trkpt>
      <trkpt lat="44.05258" lon="7.08187">
        <ele>1189.5999755859</ele>
        <time>2010-06-13T11:38:18.000Z</time>
      </trkpt>
      <trkpt lat="44.05236" lon="7.08178">
        <ele>1185.1999511719</ele>
        <time>2010-06-13T11:38:20.000Z</time>
      </trkpt>
      <trkpt lat="44.05201" lon="7.08153">
        <ele>1182.1999511719</ele>
        <time>2010-06-13T11:38:24.000Z</time>
      </trkpt>
      <trkpt lat="44.05179" lon="7.08133">
        <ele>1181.8000488281</ele>
        <time>2010-06-13T11:38:27.000Z</time>
      </trkpt>
      <trkpt lat="44.05161" lon="7.08123">
        <ele>1180</ele>
        <time>2010-06-13T11:38:29.000Z</time>
      </trkpt>
      <trkpt lat="44.05153" lon="7.08118">
        <ele>1180</ele>
        <time>2010-06-13T11:38:30.000Z</time>
      </trkpt>
      <trkpt lat="44.05146" lon="7.08113">
        <ele>1180.5999755859</ele>
        <time>2010-06-13T11:38:31.000Z</time>
      </trkpt>
      <trkpt lat="44.05136" lon="7.08085">
        <ele>1189.1999511719</ele>
        <time>2010-06-13T11:38:34.000Z</time>
      </trkpt>
      <trkpt lat="44.05122" lon="7.08079">
        <ele>1188.4000244141</ele>
        <time>2010-06-13T11:38:38.000Z</time>
      </trkpt>
      <trkpt lat="44.05105" lon="7.08094">
        <ele>1178</ele>
        <time>2010-06-13T11:38:49.000Z</time>
      </trkpt>
      <trkpt lat="44.05103" lon="7.08095">
        <ele>1177.4000244141</ele>
        <time>2010-06-13T11:38:50.000Z</time>
      </trkpt>
      <trkpt lat="44.05089" lon="7.08092">
        <ele>1174.8000488281</ele>
        <time>2010-06-13T11:38:56.000Z</time>
      </trkpt>
      <trkpt lat="44.05067" lon="7.08077">
        <ele>1173</ele>
        <time>2010-06-13T11:39:00.000Z</time>
      </trkpt>
      <trkpt lat="44.05055" lon="7.08066">
        <ele>1172.1999511719</ele>
        <time>2010-06-13T11:39:02.000Z</time>
      </trkpt>
      <trkpt lat="44.0504" lon="7.08055">
        <ele>1170.5999755859</ele>
        <time>2010-06-13T11:39:04.000Z</time>
      </trkpt>
      <trkpt lat="44.05033" lon="7.08049">
        <ele>1170.1999511719</ele>
        <time>2010-06-13T11:39:05.000Z</time>
      </trkpt>
      <trkpt lat="44.0502" lon="7.08039">
        <ele>1168.8000488281</ele>
        <time>2010-06-13T11:39:07.000Z</time>
      </trkpt>
      <trkpt lat="44.05007" lon="7.08028">
        <ele>1167.5999755859</ele>
        <time>2010-06-13T11:39:09.000Z</time>
      </trkpt>
      <trkpt lat="44.04994" lon="7.08016">
        <ele>1167.4000244141</ele>
        <time>2010-06-13T11:39:11.000Z</time>
      </trkpt>
      <trkpt lat="44.04974" lon="7.08005">
        <ele>1165.1999511719</ele>
        <time>2010-06-13T11:39:14.000Z</time>
      </trkpt>
      <trkpt lat="44.04961" lon="7.07996">
        <ele>1163.5999755859</ele>
        <time>2010-06-13T11:39:16.000Z</time>
      </trkpt>
      <trkpt lat="44.04946" lon="7.07992">
        <ele>1160.1999511719</ele>
        <time>2010-06-13T11:39:18.000Z</time>
      </trkpt>
      <trkpt lat="44.04932" lon="7.0799">
        <ele>1156</ele>
        <time>2010-06-13T11:39:20.000Z</time>
      </trkpt>
      <trkpt lat="44.04927" lon="7.07987">
        <ele>1154.8000488281</ele>
        <time>2010-06-13T11:39:21.000Z</time>
      </trkpt>
      <trkpt lat="44.0491" lon="7.07974">
        <ele>1155.8000488281</ele>
        <time>2010-06-13T11:39:24.000Z</time>
      </trkpt>
      <trkpt lat="44.04883" lon="7.07997">
        <ele>1146.8000488281</ele>
        <time>2010-06-13T11:39:29.000Z</time>
      </trkpt>
      <trkpt lat="44.04871" lon="7.08015">
        <ele>1140.8000488281</ele>
        <time>2010-06-13T11:39:32.000Z</time>
      </trkpt>
      <trkpt lat="44.04862" lon="7.08015">
        <ele>1140.5999755859</ele>
        <time>2010-06-13T11:39:34.000Z</time>
      </trkpt>
      <trkpt lat="44.04819" lon="7.07998">
        <ele>1146.4000244141</ele>
        <time>2010-06-13T11:39:40.000Z</time>
      </trkpt>
      <trkpt lat="44.04806" lon="7.07994">
        <ele>1149.1999511719</ele>
        <time>2010-06-13T11:39:42.000Z</time>
      </trkpt>
      <trkpt lat="44.04795" lon="7.08001">
        <ele>1148.8000488281</ele>
        <time>2010-06-13T11:39:45.000Z</time>
      </trkpt>
      <trkpt lat="44.04795" lon="7.08011">
        <ele>1147.4000244141</ele>
        <time>2010-06-13T11:39:48.000Z</time>
      </trkpt>
      <trkpt lat="44.04797" lon="7.08026">
        <ele>1144.4000244141</ele>
        <time>2010-06-13T11:39:55.000Z</time>
      </trkpt>
      <trkpt lat="44.04799" lon="7.08048">
        <ele>1140.4000244141</ele>
        <time>2010-06-13T11:40:05.000Z</time>
      </trkpt>
      <trkpt lat="44.04796" lon="7.08077">
        <ele>1136.5999755859</ele>
        <time>2010-06-13T11:40:19.000Z</time>
      </trkpt>
      <trkpt lat="44.04794" lon="7.08078">
        <ele>1137</ele>
        <time>2010-06-13T11:40:20.000Z</time>
      </trkpt>
      <trkpt lat="44.04779" lon="7.08086">
        <ele>1140.5999755859</ele>
        <time>2010-06-13T11:40:30.000Z</time>
      </trkpt>
      <trkpt lat="44.04767" lon="7.08107">
        <ele>1140.5999755859</ele>
        <time>2010-06-13T11:40:42.000Z</time>
      </trkpt>
      <trkpt lat="44.04767" lon="7.08122">
        <ele>1137.8000488281</ele>
        <time>2010-06-13T11:40:48.000Z</time>
      </trkpt>
      <trkpt lat="44.04764" lon="7.08132">
        <ele>1136.4000244141</ele>
        <time>2010-06-13T11:40:52.000Z</time>
      </trkpt>
      <trkpt lat="44.04754" lon="7.08133">
        <ele>1138.1999511719</ele>
        <time>2010-06-13T11:40:58.000Z</time>
      </trkpt>
      <trkpt lat="44.0474" lon="7.08112">
        <ele>1143.1999511719</ele>
        <time>2010-06-13T11:41:13.000Z</time>
      </trkpt>
      <trkpt lat="44.04722" lon="7.0809">
        <ele>1148.4000244141</ele>
        <time>2010-06-13T11:41:33.000Z</time>
      </trkpt>
      <trkpt lat="44.04717" lon="7.08088">
        <ele>1148.8000488281</ele>
        <time>2010-06-13T11:41:38.000Z</time>
      </trkpt>
      <trkpt lat="44.04712" lon="7.08088">
        <ele>1148.8000488281</ele>
        <time>2010-06-13T11:41:42.000Z</time>
      </trkpt>
      <trkpt lat="44.04707" lon="7.08075">
        <ele>1151.5999755859</ele>
        <time>2010-06-13T11:41:49.000Z</time>
      </trkpt>
      <trkpt lat="44.0468" lon="7.08057">
        <ele>1156.5999755859</ele>
        <time>2010-06-13T11:42:08.000Z</time>
      </trkpt>
      <trkpt lat="44.04679" lon="7.08056">
        <ele>1156.8000488281</ele>
        <time>2010-06-13T11:42:09.000Z</time>
      </trkpt>
      <trkpt lat="44.04653" lon="7.08044">
        <ele>1162.1999511719</ele>
        <time>2010-06-13T11:42:28.000Z</time>
      </trkpt>
      <trkpt lat="44.04623" lon="7.08032">
        <ele>1168</ele>
        <time>2010-06-13T11:42:46.000Z</time>
      </trkpt>
      <trkpt lat="44.04601" lon="7.0802">
        <ele>1174</ele>
        <time>2010-06-13T11:43:01.000Z</time>
      </trkpt>
      <trkpt lat="44.04593" lon="7.08017">
        <ele>1176</ele>
        <time>2010-06-13T11:43:07.000Z</time>
      </trkpt>
      <trkpt lat="44.04586" lon="7.08018">
        <ele>1176</ele>
        <time>2010-06-13T11:43:12.000Z</time>
      </trkpt>
      <trkpt lat="44.04568" lon="7.08018">
        <ele>1178.4000244141</ele>
        <time>2010-06-13T11:43:25.000Z</time>
      </trkpt>
      <trkpt lat="44.0455" lon="7.08017">
        <ele>1180.8000488281</ele>
        <time>2010-06-13T11:43:34.000Z</time>
      </trkpt>
      <trkpt lat="44.04542" lon="7.08013">
        <ele>1184</ele>
        <time>2010-06-13T11:43:40.000Z</time>
      </trkpt>
      <trkpt lat="44.04529" lon="7.08007">
        <ele>1188.8000488281</ele>
        <time>2010-06-13T11:43:47.000Z</time>
      </trkpt>
      <trkpt lat="44.04514" lon="7.08016">
        <ele>1185.8000488281</ele>
        <time>2010-06-13T11:43:56.000Z</time>
      </trkpt>
      <trkpt lat="44.04489" lon="7.08009">
        <ele>1191.1999511719</ele>
        <time>2010-06-13T11:44:08.000Z</time>
      </trkpt>
      <trkpt lat="44.04459" lon="7.08015">
        <ele>1189</ele>
        <time>2010-06-13T11:44:19.000Z</time>
      </trkpt>
      <trkpt lat="44.04438" lon="7.08011">
        <ele>1192</ele>
        <time>2010-06-13T11:44:26.000Z</time>
      </trkpt>
      <trkpt lat="44.0441" lon="7.08003">
        <ele>1196.8000488281</ele>
        <time>2010-06-13T11:44:36.000Z</time>
      </trkpt>
      <trkpt lat="44.04377" lon="7.08004">
        <ele>1197.1999511719</ele>
        <time>2010-06-13T11:44:49.000Z</time>
      </trkpt>
      <trkpt lat="44.04351" lon="7.08">
        <ele>1200.4000244141</ele>
        <time>2010-06-13T11:45:02.000Z</time>
      </trkpt>
      <trkpt lat="44.04327" lon="7.08001">
        <ele>1200</ele>
        <time>2010-06-13T11:45:15.000Z</time>
      </trkpt>
      <trkpt lat="44.04295" lon="7.07986">
        <ele>1204.8000488281</ele>
        <time>2010-06-13T11:45:31.000Z</time>
      </trkpt>
      <trkpt lat="44.04283" lon="7.07988">
        <ele>1203</ele>
        <time>2010-06-13T11:45:37.000Z</time>
      </trkpt>
      <trkpt lat="44.04281" lon="7.07988">
        <ele>1203</ele>
        <time>2010-06-13T11:45:38.000Z</time>
      </trkpt>
      <trkpt lat="44.04255" lon="7.07974">
        <ele>1208</ele>
        <time>2010-06-13T11:45:52.000Z</time>
      </trkpt>
      <trkpt lat="44.04254" lon="7.07975">
        <ele>1207.4000244141</ele>
        <time>2010-06-13T11:45:53.000Z</time>
      </trkpt>
      <trkpt lat="44.04221" lon="7.07974">
        <ele>1208.8000488281</ele>
        <time>2010-06-13T11:46:09.000Z</time>
      </trkpt>
      <trkpt lat="44.04198" lon="7.07968">
        <ele>1213</ele>
        <time>2010-06-13T11:46:16.000Z</time>
      </trkpt>
      <trkpt lat="44.04172" lon="7.07974">
        <ele>1211</ele>
        <time>2010-06-13T11:46:21.000Z</time>
      </trkpt>
      <trkpt lat="44.04154" lon="7.07976">
        <ele>1211.4000244141</ele>
        <time>2010-06-13T11:46:24.000Z</time>
      </trkpt>
      <trkpt lat="44.04139" lon="7.07982">
        <ele>1210.8000488281</ele>
        <time>2010-06-13T11:46:26.000Z</time>
      </trkpt>
      <trkpt lat="44.04124" lon="7.07986">
        <ele>1210.8000488281</ele>
        <time>2010-06-13T11:46:28.000Z</time>
      </trkpt>
      <trkpt lat="44.04119" lon="7.07987">
        <ele>1210.8000488281</ele>
        <time>2010-06-13T11:46:29.000Z</time>
      </trkpt>
      <trkpt lat="44.04111" lon="7.07991">
        <ele>1210.5999755859</ele>
        <time>2010-06-13T11:46:31.000Z</time>
      </trkpt>
      <trkpt lat="44.04102" lon="7.07999">
        <ele>1209.4000244141</ele>
        <time>2010-06-13T11:46:34.000Z</time>
      </trkpt>
      <trkpt lat="44.04097" lon="7.08002">
        <ele>1210.1999511719</ele>
        <time>2010-06-13T11:46:35.000Z</time>
      </trkpt>
      <trkpt lat="44.04091" lon="7.08023">
        <ele>1216.4000244141</ele>
        <time>2010-06-13T11:46:40.000Z</time>
      </trkpt>
      <trkpt lat="44.04097" lon="7.08024">
        <ele>1215.5999755859</ele>
        <time>2010-06-13T11:46:58.000Z</time>
      </trkpt>
      <trkpt lat="44.04092" lon="7.08035">
        <ele>1219.1999511719</ele>
        <time>2010-06-13T11:47:26.000Z</time>
      </trkpt>
      <trkpt lat="44.04095" lon="7.08037">
        <ele>1219.1999511719</ele>
        <time>2010-06-13T11:48:20.000Z</time>
      </trkpt>
      <trkpt lat="44.04093" lon="7.0803">
        <ele>1217.8000488281</ele>
        <time>2010-06-13T11:49:21.000Z</time>
      </trkpt>
      <trkpt lat="44.04093" lon="7.08026">
        <ele>1216.8000488281</ele>
        <time>2010-06-13T11:56:11.000Z</time>
      </trkpt>
      <trkpt lat="44.04093" lon="7.08027">
        <ele>1217</ele>
        <time>2010-06-13T11:56:14.000Z</time>
      </trkpt>
      <trkpt lat="44.04095" lon="7.08027">
        <ele>1216.5999755859</ele>
        <time>2010-06-13T11:57:09.000Z</time>
      </trkpt>
      <trkpt lat="44.04096" lon="7.08034">
        <ele>1218.1999511719</ele>
        <time>2010-06-13T11:58:23.000Z</time>
      </trkpt>
      <trkpt lat="44.04098" lon="7.08042">
        <ele>1219.1999511719</ele>
        <time>2010-06-13T11:58:27.000Z</time>
      </trkpt>
      <trkpt lat="44.04107" lon="7.0806">
        <ele>1220.5999755859</ele>
        <time>2010-06-13T11:58:35.000Z</time>
      </trkpt>
      <trkpt lat="44.04114" lon="7.08065">
        <ele>1219.5999755859</ele>
        <time>2010-06-13T11:58:38.000Z</time>
      </trkpt>
      <trkpt lat="44.04117" lon="7.0807">
        <ele>1219</ele>
        <time>2010-06-13T11:58:40.000Z</time>
      </trkpt>
      <trkpt lat="44.04115" lon="7.08078">
        <ele>1221.1999511719</ele>
        <time>2010-06-13T11:58:44.000Z</time>
      </trkpt>
      <trkpt lat="44.04108" lon="7.08075">
        <ele>1223.4000244141</ele>
        <time>2010-06-13T11:58:47.000Z</time>
      </trkpt>
      <trkpt lat="44.04107" lon="7.08071">
        <ele>1222.8000488281</ele>
        <time>2010-06-13T11:58:49.000Z</time>
      </trkpt>
      <trkpt lat="44.04088" lon="7.0806">
        <ele>1226.8000488281</ele>
        <time>2010-06-13T11:59:02.000Z</time>
      </trkpt>
      <trkpt lat="44.0408" lon="7.08057">
        <ele>1229.4000244141</ele>
        <time>2010-06-13T11:59:07.000Z</time>
      </trkpt>
      <trkpt lat="44.04075" lon="7.08052">
        <ele>1230.8000488281</ele>
        <time>2010-06-13T11:59:11.000Z</time>
      </trkpt>
      <trkpt lat="44.04072" lon="7.08049">
        <ele>1231.8000488281</ele>
        <time>2010-06-13T11:59:14.000Z</time>
      </trkpt>
      <trkpt lat="44.04067" lon="7.08045">
        <ele>1233.5999755859</ele>
        <time>2010-06-13T11:59:18.000Z</time>
      </trkpt>
      <trkpt lat="44.04062" lon="7.08035">
        <ele>1233.4000244141</ele>
        <time>2010-06-13T11:59:26.000Z</time>
      </trkpt>
      <trkpt lat="44.0406" lon="7.08028">
        <ele>1232.8000488281</ele>
        <time>2010-06-13T11:59:30.000Z</time>
      </trkpt>
      <trkpt lat="44.04059" lon="7.08025">
        <ele>1232.4000244141</ele>
        <time>2010-06-13T11:59:32.000Z</time>
      </trkpt>
      <trkpt lat="44.04053" lon="7.08005">
        <ele>1230</ele>
        <time>2010-06-13T11:59:44.000Z</time>
      </trkpt>
      <trkpt lat="44.04052" lon="7.08003">
        <ele>1230</ele>
        <time>2010-06-13T11:59:45.000Z</time>
      </trkpt>
      <trkpt lat="44.04049" lon="7.08005">
        <ele>1232.1999511719</ele>
        <time>2010-06-13T11:59:54.000Z</time>
      </trkpt>
      <trkpt lat="44.04058" lon="7.08048">
        <ele>1239.8000488281</ele>
        <time>2010-06-13T12:00:13.000Z</time>
      </trkpt>
      <trkpt lat="44.0406" lon="7.08072">
        <ele>1245.4000244141</ele>
        <time>2010-06-13T12:00:24.000Z</time>
      </trkpt>
      <trkpt lat="44.04072" lon="7.08102">
        <ele>1248.8000488281</ele>
        <time>2010-06-13T12:00:39.000Z</time>
      </trkpt>
      <trkpt lat="44.04083" lon="7.08124">
        <ele>1251.5999755859</ele>
        <time>2010-06-13T12:00:51.000Z</time>
      </trkpt>
      <trkpt lat="44.04111" lon="7.08137">
        <ele>1244.8000488281</ele>
        <time>2010-06-13T12:01:06.000Z</time>
      </trkpt>
      <trkpt lat="44.04118" lon="7.08139">
        <ele>1242.8000488281</ele>
        <time>2010-06-13T12:01:10.000Z</time>
      </trkpt>
      <trkpt lat="44.04132" lon="7.08152">
        <ele>1241.8000488281</ele>
        <time>2010-06-13T12:01:23.000Z</time>
      </trkpt>
      <trkpt lat="44.04144" lon="7.08162">
        <ele>1240.5999755859</ele>
        <time>2010-06-13T12:01:31.000Z</time>
      </trkpt>
      <trkpt lat="44.04147" lon="7.08165">
        <ele>1240</ele>
        <time>2010-06-13T12:01:33.000Z</time>
      </trkpt>
      <trkpt lat="44.04152" lon="7.08169">
        <ele>1239.1999511719</ele>
        <time>2010-06-13T12:01:36.000Z</time>
      </trkpt>
      <trkpt lat="44.04166" lon="7.082">
        <ele>1240.8000488281</ele>
        <time>2010-06-13T12:01:51.000Z</time>
      </trkpt>
      <trkpt lat="44.04164" lon="7.08253">
        <ele>1253.5999755859</ele>
        <time>2010-06-13T12:02:03.000Z</time>
      </trkpt>
      <trkpt lat="44.04146" lon="7.08303">
        <ele>1256</ele>
        <time>2010-06-13T12:02:15.000Z</time>
      </trkpt>
      <trkpt lat="44.04127" lon="7.08347">
        <ele>1254.4000244141</ele>
        <time>2010-06-13T12:02:25.000Z</time>
      </trkpt>
      <trkpt lat="44.04103" lon="7.0838">
        <ele>1252.1999511719</ele>
        <time>2010-06-13T12:02:30.000Z</time>
      </trkpt>
      <trkpt lat="44.04098" lon="7.08386">
        <ele>1251.5999755859</ele>
        <time>2010-06-13T12:02:31.000Z</time>
      </trkpt>
      <trkpt lat="44.04092" lon="7.084">
        <ele>1250</ele>
        <time>2010-06-13T12:02:33.000Z</time>
      </trkpt>
      <trkpt lat="44.04089" lon="7.08417">
        <ele>1247.5999755859</ele>
        <time>2010-06-13T12:02:35.000Z</time>
      </trkpt>
      <trkpt lat="44.04081" lon="7.08449">
        <ele>1242.4000244141</ele>
        <time>2010-06-13T12:02:38.000Z</time>
      </trkpt>
      <trkpt lat="44.04078" lon="7.08457">
        <ele>1241.4000244141</ele>
        <time>2010-06-13T12:02:39.000Z</time>
      </trkpt>
      <trkpt lat="44.04074" lon="7.08478">
        <ele>1238.1999511719</ele>
        <time>2010-06-13T12:02:42.000Z</time>
      </trkpt>
      <trkpt lat="44.04072" lon="7.08489">
        <ele>1236.4000244141</ele>
        <time>2010-06-13T12:02:44.000Z</time>
      </trkpt>
      <trkpt lat="44.04067" lon="7.08503">
        <ele>1234.4000244141</ele>
        <time>2010-06-13T12:02:46.000Z</time>
      </trkpt>
      <trkpt lat="44.04059" lon="7.0853">
        <ele>1231</ele>
        <time>2010-06-13T12:02:49.000Z</time>
      </trkpt>
      <trkpt lat="44.04055" lon="7.08547">
        <ele>1228.5999755859</ele>
        <time>2010-06-13T12:02:51.000Z</time>
      </trkpt>
      <trkpt lat="44.04053" lon="7.08556">
        <ele>1227.4000244141</ele>
        <time>2010-06-13T12:02:52.000Z</time>
      </trkpt>
      <trkpt lat="44.0404" lon="7.08568">
        <ele>1227.4000244141</ele>
        <time>2010-06-13T12:02:54.000Z</time>
      </trkpt>
      <trkpt lat="44.04031" lon="7.08581">
        <ele>1226.5999755859</ele>
        <time>2010-06-13T12:02:56.000Z</time>
      </trkpt>
      <trkpt lat="44.0403" lon="7.08589">
        <ele>1226.1999511719</ele>
        <time>2010-06-13T12:02:58.000Z</time>
      </trkpt>
      <trkpt lat="44.04037" lon="7.08599">
        <ele>1224.8000488281</ele>
        <time>2010-06-13T12:03:00.000Z</time>
      </trkpt>
      <trkpt lat="44.04037" lon="7.08621">
        <ele>1224.1999511719</ele>
        <time>2010-06-13T12:03:03.000Z</time>
      </trkpt>
      <trkpt lat="44.04033" lon="7.08638">
        <ele>1224.8000488281</ele>
        <time>2010-06-13T12:03:05.000Z</time>
      </trkpt>
      <trkpt lat="44.04031" lon="7.08651">
        <ele>1225</ele>
        <time>2010-06-13T12:03:07.000Z</time>
      </trkpt>
      <trkpt lat="44.04032" lon="7.08655">
        <ele>1224.5999755859</ele>
        <time>2010-06-13T12:03:09.000Z</time>
      </trkpt>
      <trkpt lat="44.04032" lon="7.08664">
        <ele>1224.4000244141</ele>
        <time>2010-06-13T12:03:14.000Z</time>
      </trkpt>
      <trkpt lat="44.04034" lon="7.08667">
        <ele>1224</ele>
        <time>2010-06-13T12:03:32.000Z</time>
      </trkpt>
      <trkpt lat="44.04036" lon="7.08693">
        <ele>1221.5999755859</ele>
        <time>2010-06-13T12:04:17.000Z</time>
      </trkpt>
      <trkpt lat="44.04036" lon="7.08696">
        <ele>1221.4000244141</ele>
        <time>2010-06-13T12:04:50.000Z</time>
      </trkpt>
      <trkpt lat="44.04045" lon="7.08731">
        <ele>1216.1999511719</ele>
        <time>2010-06-13T12:07:26.000Z</time>
      </trkpt>
      <trkpt lat="44.04053" lon="7.08758">
        <ele>1211.5999755859</ele>
        <time>2010-06-13T12:07:31.000Z</time>
      </trkpt>
      <trkpt lat="44.04057" lon="7.0878">
        <ele>1209.5999755859</ele>
        <time>2010-06-13T12:07:34.000Z</time>
      </trkpt>
      <trkpt lat="44.04058" lon="7.08825">
        <ele>1207.5999755859</ele>
        <time>2010-06-13T12:07:40.000Z</time>
      </trkpt>
      <trkpt lat="44.04059" lon="7.08846">
        <ele>1207</ele>
        <time>2010-06-13T12:07:43.000Z</time>
      </trkpt>
      <trkpt lat="44.04061" lon="7.08878">
        <ele>1207</ele>
        <time>2010-06-13T12:07:47.000Z</time>
      </trkpt>
      <trkpt lat="44.04065" lon="7.08935">
        <ele>1206</ele>
        <time>2010-06-13T12:07:53.000Z</time>
      </trkpt>
      <trkpt lat="44.04069" lon="7.08959">
        <ele>1204.1999511719</ele>
        <time>2010-06-13T12:07:55.000Z</time>
      </trkpt>
      <trkpt lat="44.04078" lon="7.09062">
        <ele>1197.1999511719</ele>
        <time>2010-06-13T12:08:03.000Z</time>
      </trkpt>
      <trkpt lat="44.04081" lon="7.09157">
        <ele>1199.4000244141</ele>
        <time>2010-06-13T12:08:13.000Z</time>
      </trkpt>
      <trkpt lat="44.0408" lon="7.09163">
        <ele>1200.4000244141</ele>
        <time>2010-06-13T12:08:14.000Z</time>
      </trkpt>
      <trkpt lat="44.04083" lon="7.09245">
        <ele>1189.5999755859</ele>
        <time>2010-06-13T12:08:30.000Z</time>
      </trkpt>
      <trkpt lat="44.04085" lon="7.09261">
        <ele>1186</ele>
        <time>2010-06-13T12:08:41.000Z</time>
      </trkpt>
      <trkpt lat="44.04086" lon="7.09262">
        <ele>1185.5999755859</ele>
        <time>2010-06-13T12:09:11.000Z</time>
      </trkpt>
      <trkpt lat="44.04086" lon="7.09262">
        <ele>1185.5999755859</ele>
        <time>2010-06-13T12:10:22.000Z</time>
      </trkpt>
      <trkpt lat="44.04086" lon="7.09262">
        <ele>1185.5999755859</ele>
        <time>2010-06-13T12:11:34.000Z</time>
      </trkpt>
      <trkpt lat="44.04065" lon="7.09288">
        <ele>1195.8000488281</ele>
        <time>2010-06-13T12:11:46.000Z</time>
      </trkpt>
      <trkpt lat="44.04048" lon="7.09316">
        <ele>1203.8000488281</ele>
        <time>2010-06-13T12:11:53.000Z</time>
      </trkpt>
      <trkpt lat="44.04055" lon="7.09348">
        <ele>1192</ele>
        <time>2010-06-13T12:11:58.000Z</time>
      </trkpt>
      <trkpt lat="44.04052" lon="7.0937">
        <ele>1188</ele>
        <time>2010-06-13T12:12:01.000Z</time>
      </trkpt>
      <trkpt lat="44.04038" lon="7.09417">
        <ele>1186.5999755859</ele>
        <time>2010-06-13T12:12:08.000Z</time>
      </trkpt>
      <trkpt lat="44.04033" lon="7.09428">
        <ele>1186.1999511719</ele>
        <time>2010-06-13T12:12:10.000Z</time>
      </trkpt>
      <trkpt lat="44.04007" lon="7.0947">
        <ele>1189.5999755859</ele>
        <time>2010-06-13T12:12:19.000Z</time>
      </trkpt>
      <trkpt lat="44.03991" lon="7.09489">
        <ele>1195</ele>
        <time>2010-06-13T12:12:24.000Z</time>
      </trkpt>
      <trkpt lat="44.03962" lon="7.09564">
        <ele>1192.8000488281</ele>
        <time>2010-06-13T12:12:40.000Z</time>
      </trkpt>
      <trkpt lat="44.0396" lon="7.09571">
        <ele>1192</ele>
        <time>2010-06-13T12:12:42.000Z</time>
      </trkpt>
      <trkpt lat="44.03941" lon="7.09591">
        <ele>1199.8000488281</ele>
        <time>2010-06-13T12:12:50.000Z</time>
      </trkpt>
      <trkpt lat="44.03918" lon="7.09665">
        <ele>1192.8000488281</ele>
        <time>2010-06-13T12:13:04.000Z</time>
      </trkpt>
      <trkpt lat="44.0389" lon="7.09733">
        <ele>1190.5999755859</ele>
        <time>2010-06-13T12:13:21.000Z</time>
      </trkpt>
      <trkpt lat="44.03875" lon="7.09755">
        <ele>1191.8000488281</ele>
        <time>2010-06-13T12:13:30.000Z</time>
      </trkpt>
      <trkpt lat="44.03865" lon="7.09764">
        <ele>1193.5999755859</ele>
        <time>2010-06-13T12:13:35.000Z</time>
      </trkpt>
      <trkpt lat="44.03832" lon="7.09784">
        <ele>1202.1999511719</ele>
        <time>2010-06-13T12:13:47.000Z</time>
      </trkpt>
      <trkpt lat="44.03801" lon="7.09802">
        <ele>1201</ele>
        <time>2010-06-13T12:13:59.000Z</time>
      </trkpt>
      <trkpt lat="44.03781" lon="7.09807">
        <ele>1202.5999755859</ele>
        <time>2010-06-13T12:14:08.000Z</time>
      </trkpt>
      <trkpt lat="44.03756" lon="7.09814">
        <ele>1204.4000244141</ele>
        <time>2010-06-13T12:14:21.000Z</time>
      </trkpt>
      <trkpt lat="44.03732" lon="7.09824">
        <ele>1202</ele>
        <time>2010-06-13T12:14:49.000Z</time>
      </trkpt>
      <trkpt lat="44.03702" lon="7.09835">
        <ele>1199.1999511719</ele>
        <time>2010-06-13T12:14:55.000Z</time>
      </trkpt>
      <trkpt lat="44.03632" lon="7.0983">
        <ele>1199</ele>
        <time>2010-06-13T12:15:08.000Z</time>
      </trkpt>
      <trkpt lat="44.03578" lon="7.09826">
        <ele>1194</ele>
        <time>2010-06-13T12:15:17.000Z</time>
      </trkpt>
      <trkpt lat="44.03549" lon="7.09813">
        <ele>1196</ele>
        <time>2010-06-13T12:15:22.000Z</time>
      </trkpt>
      <trkpt lat="44.03477" lon="7.09801">
        <ele>1190</ele>
        <time>2010-06-13T12:15:34.000Z</time>
      </trkpt>
      <trkpt lat="44.03416" lon="7.09768">
        <ele>1193</ele>
        <time>2010-06-13T12:15:47.000Z</time>
      </trkpt>
      <trkpt lat="44.03379" lon="7.09746">
        <ele>1202.5999755859</ele>
        <time>2010-06-13T12:15:55.000Z</time>
      </trkpt>
      <trkpt lat="44.03365" lon="7.09749">
        <ele>1201.1999511719</ele>
        <time>2010-06-13T12:15:58.000Z</time>
      </trkpt>
      <trkpt lat="44.03345" lon="7.09763">
        <ele>1195.4000244141</ele>
        <time>2010-06-13T12:16:03.000Z</time>
      </trkpt>
      <trkpt lat="44.03314" lon="7.09776">
        <ele>1192.4000244141</ele>
        <time>2010-06-13T12:16:11.000Z</time>
      </trkpt>
      <trkpt lat="44.03271" lon="7.09748">
        <ele>1203.8000488281</ele>
        <time>2010-06-13T12:16:23.000Z</time>
      </trkpt>
      <trkpt lat="44.03245" lon="7.0979">
        <ele>1196</ele>
        <time>2010-06-13T12:16:39.000Z</time>
      </trkpt>
      <trkpt lat="44.03237" lon="7.09816">
        <ele>1190.4000244141</ele>
        <time>2010-06-13T12:16:48.000Z</time>
      </trkpt>
      <trkpt lat="44.03235" lon="7.09829">
        <ele>1187.8000488281</ele>
        <time>2010-06-13T12:16:59.000Z</time>
      </trkpt>
      <trkpt lat="44.03236" lon="7.09829">
        <ele>1187.8000488281</ele>
        <time>2010-06-13T12:17:02.000Z</time>
      </trkpt>
      <trkpt lat="44.03241" lon="7.09832">
        <ele>1188</ele>
        <time>2010-06-13T12:17:07.000Z</time>
      </trkpt>
      <trkpt lat="44.03236" lon="7.09832">
        <ele>1187.4000244141</ele>
        <time>2010-06-13T12:17:20.000Z</time>
      </trkpt>
      <trkpt lat="44.03237" lon="7.09831">
        <ele>1187.5999755859</ele>
        <time>2010-06-13T12:17:42.000Z</time>
      </trkpt>
      <trkpt lat="44.03237" lon="7.0983">
        <ele>1187.8000488281</ele>
        <time>2010-06-13T12:18:01.000Z</time>
      </trkpt>
      <trkpt lat="44.03238" lon="7.09834">
        <ele>1187.4000244141</ele>
        <time>2010-06-13T12:20:25.000Z</time>
      </trkpt>
      <trkpt lat="44.03237" lon="7.09835">
        <ele>1187.4000244141</ele>
        <time>2010-06-13T12:24:35.000Z</time>
      </trkpt>
      <trkpt lat="44.03237" lon="7.09836">
        <ele>1187.4000244141</ele>
        <time>2010-06-13T12:24:54.000Z</time>
      </trkpt>
      <trkpt lat="44.03237" lon="7.09834">
        <ele>1187.1999511719</ele>
        <time>2010-06-13T12:25:18.000Z</time>
      </trkpt>
      <trkpt lat="44.03237" lon="7.09828">
        <ele>1188</ele>
        <time>2010-06-13T12:25:33.000Z</time>
      </trkpt>
      <trkpt lat="44.03237" lon="7.09832">
        <ele>1187.4000244141</ele>
        <time>2010-06-13T12:26:04.000Z</time>
      </trkpt>
      <trkpt lat="44.03235" lon="7.09831">
        <ele>1187.4000244141</ele>
        <time>2010-06-13T12:26:36.000Z</time>
      </trkpt>
      <trkpt lat="44.03214" lon="7.09786">
        <ele>1192</ele>
        <time>2010-06-13T12:26:51.000Z</time>
      </trkpt>
      <trkpt lat="44.03201" lon="7.09755">
        <ele>1194.8000488281</ele>
        <time>2010-06-13T12:27:04.000Z</time>
      </trkpt>
      <trkpt lat="44.03201" lon="7.09752">
        <ele>1195.1999511719</ele>
        <time>2010-06-13T12:27:21.000Z</time>
      </trkpt>
      <trkpt lat="44.03201" lon="7.09752">
        <ele>1195.1999511719</ele>
        <time>2010-06-13T12:28:08.000Z</time>
      </trkpt>
      <trkpt lat="44.03193" lon="7.09738">
        <ele>1197.1999511719</ele>
        <time>2010-06-13T12:28:16.000Z</time>
      </trkpt>
      <trkpt lat="44.03182" lon="7.09699">
        <ele>1204.4000244141</ele>
        <time>2010-06-13T12:28:31.000Z</time>
      </trkpt>
      <trkpt lat="44.03173" lon="7.09663">
        <ele>1210.8000488281</ele>
        <time>2010-06-13T12:28:46.000Z</time>
      </trkpt>
      <trkpt lat="44.03155" lon="7.09633">
        <ele>1210.8000488281</ele>
        <time>2010-06-13T12:29:04.000Z</time>
      </trkpt>
      <trkpt lat="44.03146" lon="7.09602">
        <ele>1212.8000488281</ele>
        <time>2010-06-13T12:29:20.000Z</time>
      </trkpt>
      <trkpt lat="44.03141" lon="7.09565">
        <ele>1217.1999511719</ele>
        <time>2010-06-13T12:29:36.000Z</time>
      </trkpt>
      <trkpt lat="44.03127" lon="7.09528">
        <ele>1219.4000244141</ele>
        <time>2010-06-13T12:29:54.000Z</time>
      </trkpt>
      <trkpt lat="44.0311" lon="7.09484">
        <ele>1222.4000244141</ele>
        <time>2010-06-13T12:30:16.000Z</time>
      </trkpt>
      <trkpt lat="44.031" lon="7.09454">
        <ele>1224.4000244141</ele>
        <time>2010-06-13T12:30:30.000Z</time>
      </trkpt>
      <trkpt lat="44.03078" lon="7.09421">
        <ele>1222.1999511719</ele>
        <time>2010-06-13T12:30:49.000Z</time>
      </trkpt>
      <trkpt lat="44.03076" lon="7.09383">
        <ele>1230</ele>
        <time>2010-06-13T12:31:04.000Z</time>
      </trkpt>
      <trkpt lat="44.03078" lon="7.09347">
        <ele>1239.1999511719</ele>
        <time>2010-06-13T12:31:19.000Z</time>
      </trkpt>
      <trkpt lat="44.03049" lon="7.0932">
        <ele>1237.4000244141</ele>
        <time>2010-06-13T12:31:37.000Z</time>
      </trkpt>
      <trkpt lat="44.03012" lon="7.09295">
        <ele>1233.8000488281</ele>
        <time>2010-06-13T12:31:57.000Z</time>
      </trkpt>
      <trkpt lat="44.02984" lon="7.09265">
        <ele>1235.1999511719</ele>
        <time>2010-06-13T12:32:15.000Z</time>
      </trkpt>
      <trkpt lat="44.02962" lon="7.09231">
        <ele>1241.4000244141</ele>
        <time>2010-06-13T12:32:33.000Z</time>
      </trkpt>
      <trkpt lat="44.02941" lon="7.09203">
        <ele>1247.1999511719</ele>
        <time>2010-06-13T12:32:49.000Z</time>
      </trkpt>
      <trkpt lat="44.02914" lon="7.09182">
        <ele>1248.5999755859</ele>
        <time>2010-06-13T12:33:08.000Z</time>
      </trkpt>
      <trkpt lat="44.02896" lon="7.09169">
        <ele>1248.4000244141</ele>
        <time>2010-06-13T12:33:22.000Z</time>
      </trkpt>
      <trkpt lat="44.02891" lon="7.09165">
        <ele>1248.8000488281</ele>
        <time>2010-06-13T12:33:25.000Z</time>
      </trkpt>
      <trkpt lat="44.02872" lon="7.09139">
        <ele>1252.4000244141</ele>
        <time>2010-06-13T12:33:42.000Z</time>
      </trkpt>
      <trkpt lat="44.02855" lon="7.09109">
        <ele>1258</ele>
        <time>2010-06-13T12:34:01.000Z</time>
      </trkpt>
      <trkpt lat="44.02838" lon="7.09088">
        <ele>1260.5999755859</ele>
        <time>2010-06-13T12:34:16.000Z</time>
      </trkpt>
      <trkpt lat="44.02815" lon="7.09062">
        <ele>1261.5999755859</ele>
        <time>2010-06-13T12:34:34.000Z</time>
      </trkpt>
      <trkpt lat="44.02795" lon="7.09038">
        <ele>1262.5999755859</ele>
        <time>2010-06-13T12:34:52.000Z</time>
      </trkpt>
      <trkpt lat="44.02773" lon="7.09007">
        <ele>1266.1999511719</ele>
        <time>2010-06-13T12:35:10.000Z</time>
      </trkpt>
      <trkpt lat="44.02754" lon="7.08968">
        <ele>1266</ele>
        <time>2010-06-13T12:35:29.000Z</time>
      </trkpt>
      <trkpt lat="44.02751" lon="7.08931">
        <ele>1268.1999511719</ele>
        <time>2010-06-13T12:35:46.000Z</time>
      </trkpt>
      <trkpt lat="44.02771" lon="7.08912">
        <ele>1276.8000488281</ele>
        <time>2010-06-13T12:35:59.000Z</time>
      </trkpt>
      <trkpt lat="44.02784" lon="7.08911">
        <ele>1281.4000244141</ele>
        <time>2010-06-13T12:36:05.000Z</time>
      </trkpt>
      <trkpt lat="44.02786" lon="7.08919">
        <ele>1281.5999755859</ele>
        <time>2010-06-13T12:36:09.000Z</time>
      </trkpt>
      <trkpt lat="44.02782" lon="7.08963">
        <ele>1275</ele>
        <time>2010-06-13T12:36:26.000Z</time>
      </trkpt>
      <trkpt lat="44.02798" lon="7.08985">
        <ele>1277.1999511719</ele>
        <time>2010-06-13T12:36:39.000Z</time>
      </trkpt>
      <trkpt lat="44.02815" lon="7.08993">
        <ele>1280.8000488281</ele>
        <time>2010-06-13T12:36:48.000Z</time>
      </trkpt>
      <trkpt lat="44.02842" lon="7.09004">
        <ele>1286.1999511719</ele>
        <time>2010-06-13T12:37:04.000Z</time>
      </trkpt>
      <trkpt lat="44.02871" lon="7.09026">
        <ele>1289</ele>
        <time>2010-06-13T12:37:21.000Z</time>
      </trkpt>
      <trkpt lat="44.02895" lon="7.09047">
        <ele>1290.1999511719</ele>
        <time>2010-06-13T12:37:36.000Z</time>
      </trkpt>
      <trkpt lat="44.02926" lon="7.09068">
        <ele>1292.8000488281</ele>
        <time>2010-06-13T12:37:54.000Z</time>
      </trkpt>
      <trkpt lat="44.02951" lon="7.09076">
        <ele>1297.1999511719</ele>
        <time>2010-06-13T12:38:08.000Z</time>
      </trkpt>
      <trkpt lat="44.0296" lon="7.0908">
        <ele>1298.4000244141</ele>
        <time>2010-06-13T12:38:13.000Z</time>
      </trkpt>
      <trkpt lat="44.02961" lon="7.09068">
        <ele>1302.4000244141</ele>
        <time>2010-06-13T12:38:21.000Z</time>
      </trkpt>
      <trkpt lat="44.02928" lon="7.09044">
        <ele>1300.5999755859</ele>
        <time>2010-06-13T12:38:39.000Z</time>
      </trkpt>
      <trkpt lat="44.02905" lon="7.09016">
        <ele>1302.8000488281</ele>
        <time>2010-06-13T12:38:54.000Z</time>
      </trkpt>
      <trkpt lat="44.02892" lon="7.08979">
        <ele>1306.4000244141</ele>
        <time>2010-06-13T12:39:09.000Z</time>
      </trkpt>
      <trkpt lat="44.02883" lon="7.08938">
        <ele>1310</ele>
        <time>2010-06-13T12:39:24.000Z</time>
      </trkpt>
      <trkpt lat="44.02888" lon="7.08895">
        <ele>1316.8000488281</ele>
        <time>2010-06-13T12:39:39.000Z</time>
      </trkpt>
      <trkpt lat="44.02873" lon="7.08857">
        <ele>1316</ele>
        <time>2010-06-13T12:39:54.000Z</time>
      </trkpt>
      <trkpt lat="44.02858" lon="7.08819">
        <ele>1315.1999511719</ele>
        <time>2010-06-13T12:40:10.000Z</time>
      </trkpt>
      <trkpt lat="44.02868" lon="7.08776">
        <ele>1322.8000488281</ele>
        <time>2010-06-13T12:40:26.000Z</time>
      </trkpt>
      <trkpt lat="44.02868" lon="7.08746">
        <ele>1325.8000488281</ele>
        <time>2010-06-13T12:40:36.000Z</time>
      </trkpt>
      <trkpt lat="44.0285" lon="7.08696">
        <ele>1329.4000244141</ele>
        <time>2010-06-13T12:40:55.000Z</time>
      </trkpt>
      <trkpt lat="44.02828" lon="7.08657">
        <ele>1331</ele>
        <time>2010-06-13T12:41:13.000Z</time>
      </trkpt>
      <trkpt lat="44.02804" lon="7.08615">
        <ele>1334</ele>
        <time>2010-06-13T12:41:32.000Z</time>
      </trkpt>
      <trkpt lat="44.02795" lon="7.08601">
        <ele>1334.5999755859</ele>
        <time>2010-06-13T12:41:40.000Z</time>
      </trkpt>
      <trkpt lat="44.02779" lon="7.08563">
        <ele>1336.5999755859</ele>
        <time>2010-06-13T12:41:58.000Z</time>
      </trkpt>
      <trkpt lat="44.02764" lon="7.08534">
        <ele>1335.4000244141</ele>
        <time>2010-06-13T12:42:13.000Z</time>
      </trkpt>
      <trkpt lat="44.02761" lon="7.08494">
        <ele>1338</ele>
        <time>2010-06-13T12:42:31.000Z</time>
      </trkpt>
      <trkpt lat="44.02781" lon="7.08458">
        <ele>1345.4000244141</ele>
        <time>2010-06-13T12:42:49.000Z</time>
      </trkpt>
      <trkpt lat="44.02801" lon="7.08431">
        <ele>1353.1999511719</ele>
        <time>2010-06-13T12:43:05.000Z</time>
      </trkpt>
      <trkpt lat="44.02817" lon="7.08398">
        <ele>1362</ele>
        <time>2010-06-13T12:43:21.000Z</time>
      </trkpt>
      <trkpt lat="44.02806" lon="7.08356">
        <ele>1362.5999755859</ele>
        <time>2010-06-13T12:43:39.000Z</time>
      </trkpt>
      <trkpt lat="44.0279" lon="7.08306">
        <ele>1368.1999511719</ele>
        <time>2010-06-13T12:44:01.000Z</time>
      </trkpt>
      <trkpt lat="44.0277" lon="7.0828">
        <ele>1369.5999755859</ele>
        <time>2010-06-13T12:44:17.000Z</time>
      </trkpt>
      <trkpt lat="44.02741" lon="7.08264">
        <ele>1364.5999755859</ele>
        <time>2010-06-13T12:44:35.000Z</time>
      </trkpt>
      <trkpt lat="44.02724" lon="7.08237">
        <ele>1363.4000244141</ele>
        <time>2010-06-13T12:44:50.000Z</time>
      </trkpt>
      <trkpt lat="44.02729" lon="7.08208">
        <ele>1367.5999755859</ele>
        <time>2010-06-13T12:45:04.000Z</time>
      </trkpt>
      <trkpt lat="44.0275" lon="7.08178">
        <ele>1379</ele>
        <time>2010-06-13T12:45:21.000Z</time>
      </trkpt>
      <trkpt lat="44.02749" lon="7.08149">
        <ele>1380.8000488281</ele>
        <time>2010-06-13T12:45:34.000Z</time>
      </trkpt>
      <trkpt lat="44.02738" lon="7.08126">
        <ele>1377.4000244141</ele>
        <time>2010-06-13T12:45:46.000Z</time>
      </trkpt>
      <trkpt lat="44.02735" lon="7.08078">
        <ele>1379.1999511719</ele>
        <time>2010-06-13T12:46:05.000Z</time>
      </trkpt>
      <trkpt lat="44.02747" lon="7.08035">
        <ele>1387.5999755859</ele>
        <time>2010-06-13T12:46:22.000Z</time>
      </trkpt>
      <trkpt lat="44.02754" lon="7.07983">
        <ele>1396</ele>
        <time>2010-06-13T12:46:41.000Z</time>
      </trkpt>
      <trkpt lat="44.02731" lon="7.07935">
        <ele>1395</ele>
        <time>2010-06-13T12:47:00.000Z</time>
      </trkpt>
      <trkpt lat="44.02703" lon="7.07892">
        <ele>1393.4000244141</ele>
        <time>2010-06-13T12:47:17.000Z</time>
      </trkpt>
      <trkpt lat="44.02685" lon="7.07843">
        <ele>1398</ele>
        <time>2010-06-13T12:47:32.000Z</time>
      </trkpt>
      <trkpt lat="44.02661" lon="7.07801">
        <ele>1397</ele>
        <time>2010-06-13T12:47:46.000Z</time>
      </trkpt>
      <trkpt lat="44.02643" lon="7.07739">
        <ele>1402.5999755859</ele>
        <time>2010-06-13T12:48:04.000Z</time>
      </trkpt>
      <trkpt lat="44.02614" lon="7.07686">
        <ele>1401.5999755859</ele>
        <time>2010-06-13T12:48:21.000Z</time>
      </trkpt>
      <trkpt lat="44.02591" lon="7.07622">
        <ele>1405.8000488281</ele>
        <time>2010-06-13T12:48:37.000Z</time>
      </trkpt>
      <trkpt lat="44.02564" lon="7.07567">
        <ele>1405.5999755859</ele>
        <time>2010-06-13T12:48:53.000Z</time>
      </trkpt>
      <trkpt lat="44.02542" lon="7.07521">
        <ele>1404.5999755859</ele>
        <time>2010-06-13T12:49:08.000Z</time>
      </trkpt>
      <trkpt lat="44.02535" lon="7.07471">
        <ele>1408.1999511719</ele>
        <time>2010-06-13T12:49:22.000Z</time>
      </trkpt>
      <trkpt lat="44.02537" lon="7.07395">
        <ele>1416</ele>
        <time>2010-06-13T12:49:40.000Z</time>
      </trkpt>
      <trkpt lat="44.02538" lon="7.07373">
        <ele>1417.1999511719</ele>
        <time>2010-06-13T12:49:45.000Z</time>
      </trkpt>
      <trkpt lat="44.02534" lon="7.0728">
        <ele>1416.4000244141</ele>
        <time>2010-06-13T12:50:06.000Z</time>
      </trkpt>
      <trkpt lat="44.02534" lon="7.07234">
        <ele>1415.5999755859</ele>
        <time>2010-06-13T12:50:18.000Z</time>
      </trkpt>
      <trkpt lat="44.02543" lon="7.07177">
        <ele>1420.5999755859</ele>
        <time>2010-06-13T12:50:33.000Z</time>
      </trkpt>
      <trkpt lat="44.02548" lon="7.07117">
        <ele>1423.1999511719</ele>
        <time>2010-06-13T12:50:48.000Z</time>
      </trkpt>
      <trkpt lat="44.0256" lon="7.07055">
        <ele>1430.8000488281</ele>
        <time>2010-06-13T12:51:05.000Z</time>
      </trkpt>
      <trkpt lat="44.02567" lon="7.06991">
        <ele>1434.1999511719</ele>
        <time>2010-06-13T12:51:21.000Z</time>
      </trkpt>
      <trkpt lat="44.02554" lon="7.06919">
        <ele>1431.1999511719</ele>
        <time>2010-06-13T12:51:41.000Z</time>
      </trkpt>
      <trkpt lat="44.02549" lon="7.06866">
        <ele>1435.1999511719</ele>
        <time>2010-06-13T12:51:56.000Z</time>
      </trkpt>
      <trkpt lat="44.0255" lon="7.06857">
        <ele>1436.5999755859</ele>
        <time>2010-06-13T12:52:00.000Z</time>
      </trkpt>
      <trkpt lat="44.02552" lon="7.06852">
        <ele>1437.5999755859</ele>
        <time>2010-06-13T12:52:05.000Z</time>
      </trkpt>
      <trkpt lat="44.02558" lon="7.06836">
        <ele>1440.4000244141</ele>
        <time>2010-06-13T12:52:23.000Z</time>
      </trkpt>
      <trkpt lat="44.02559" lon="7.06835">
        <ele>1440.5999755859</ele>
        <time>2010-06-13T12:53:39.000Z</time>
      </trkpt>
      <trkpt lat="44.02559" lon="7.06835">
        <ele>1440.8000488281</ele>
        <time>2010-06-13T12:54:01.000Z</time>
      </trkpt>
      <trkpt lat="44.02556" lon="7.06821">
        <ele>1441.4000244141</ele>
        <time>2010-06-13T12:54:05.000Z</time>
      </trkpt>
      <trkpt lat="44.02552" lon="7.06805">
        <ele>1442.1999511719</ele>
        <time>2010-06-13T12:54:18.000Z</time>
      </trkpt>
      <trkpt lat="44.02552" lon="7.06805">
        <ele>1442.1999511719</ele>
        <time>2010-06-13T12:54:46.000Z</time>
      </trkpt>
      <trkpt lat="44.02551" lon="7.06804">
        <ele>1442.4000244141</ele>
        <time>2010-06-13T12:55:05.000Z</time>
      </trkpt>
      <trkpt lat="44.02554" lon="7.06803">
        <ele>1442.5999755859</ele>
        <time>2010-06-13T12:55:29.000Z</time>
      </trkpt>
      <trkpt lat="44.02553" lon="7.06803">
        <ele>1442.4000244141</ele>
        <time>2010-06-13T13:01:28.000Z</time>
      </trkpt>
      <trkpt lat="44.02553" lon="7.06804">
        <ele>1442.4000244141</ele>
        <time>2010-06-13T13:01:47.000Z</time>
      </trkpt>
      <trkpt lat="44.02553" lon="7.06804">
        <ele>1442.4000244141</ele>
        <time>2010-06-13T13:02:00.000Z</time>
      </trkpt>
      <trkpt lat="44.02555" lon="7.06804">
        <ele>1442.5999755859</ele>
        <time>2010-06-13T13:02:19.000Z</time>
      </trkpt>
      <trkpt lat="44.02555" lon="7.06804">
        <ele>1442.5999755859</ele>
        <time>2010-06-13T13:02:27.000Z</time>
      </trkpt>
      <trkpt lat="44.02549" lon="7.06802">
        <ele>1442.4000244141</ele>
        <time>2010-06-13T13:18:56.000Z</time>
      </trkpt>
      <trkpt lat="44.02546" lon="7.06798">
        <ele>1442.8000488281</ele>
        <time>2010-06-13T13:19:01.000Z</time>
      </trkpt>
      <trkpt lat="44.02544" lon="7.06793">
        <ele>1443.1999511719</ele>
        <time>2010-06-13T13:19:19.000Z</time>
      </trkpt>
      <trkpt lat="44.02544" lon="7.0679">
        <ele>1443.5999755859</ele>
        <time>2010-06-13T13:19:53.000Z</time>
      </trkpt>
      <trkpt lat="44.02545" lon="7.0679">
        <ele>1443.5999755859</ele>
        <time>2010-06-13T13:21:36.000Z</time>
      </trkpt>
      <trkpt lat="44.02549" lon="7.0678">
        <ele>1444.5999755859</ele>
        <time>2010-06-13T13:21:41.000Z</time>
      </trkpt>
      <trkpt lat="44.02569" lon="7.06731">
        <ele>1449.1999511719</ele>
        <time>2010-06-13T13:21:52.000Z</time>
      </trkpt>
      <trkpt lat="44.02575" lon="7.06722">
        <ele>1450</ele>
        <time>2010-06-13T13:21:53.000Z</time>
      </trkpt>
      <trkpt lat="44.02596" lon="7.06689">
        <ele>1450.4000244141</ele>
        <time>2010-06-13T13:21:59.000Z</time>
      </trkpt>
      <trkpt lat="44.02606" lon="7.0668">
        <ele>1447.8000488281</ele>
        <time>2010-06-13T13:22:02.000Z</time>
      </trkpt>
      <trkpt lat="44.02611" lon="7.06672">
        <ele>1446.1999511719</ele>
        <time>2010-06-13T13:22:04.000Z</time>
      </trkpt>
      <trkpt lat="44.02618" lon="7.06662">
        <ele>1444.4000244141</ele>
        <time>2010-06-13T13:22:06.000Z</time>
      </trkpt>
      <trkpt lat="44.02625" lon="7.06654">
        <ele>1442.4000244141</ele>
        <time>2010-06-13T13:22:08.000Z</time>
      </trkpt>
      <trkpt lat="44.02637" lon="7.06635">
        <ele>1439.4000244141</ele>
        <time>2010-06-13T13:22:11.000Z</time>
      </trkpt>
      <trkpt lat="44.02644" lon="7.06625">
        <ele>1437.4000244141</ele>
        <time>2010-06-13T13:22:13.000Z</time>
      </trkpt>
      <trkpt lat="44.02649" lon="7.06618">
        <ele>1435.4000244141</ele>
        <time>2010-06-13T13:22:14.000Z</time>
      </trkpt>
      <trkpt lat="44.02658" lon="7.06607">
        <ele>1432.1999511719</ele>
        <time>2010-06-13T13:22:16.000Z</time>
      </trkpt>
      <trkpt lat="44.02665" lon="7.06597">
        <ele>1429.4000244141</ele>
        <time>2010-06-13T13:22:18.000Z</time>
      </trkpt>
      <trkpt lat="44.02669" lon="7.06594">
        <ele>1428</ele>
        <time>2010-06-13T13:22:19.000Z</time>
      </trkpt>
      <trkpt lat="44.02679" lon="7.06581">
        <ele>1425.5999755859</ele>
        <time>2010-06-13T13:22:22.000Z</time>
      </trkpt>
      <trkpt lat="44.02682" lon="7.06578">
        <ele>1424.5999755859</ele>
        <time>2010-06-13T13:22:23.000Z</time>
      </trkpt>
      <trkpt lat="44.0269" lon="7.0657">
        <ele>1422.1999511719</ele>
        <time>2010-06-13T13:22:25.000Z</time>
      </trkpt>
      <trkpt lat="44.02698" lon="7.06562">
        <ele>1419.5999755859</ele>
        <time>2010-06-13T13:22:27.000Z</time>
      </trkpt>
      <trkpt lat="44.02703" lon="7.06554">
        <ele>1417.5999755859</ele>
        <time>2010-06-13T13:22:29.000Z</time>
      </trkpt>
      <trkpt lat="44.02706" lon="7.0655">
        <ele>1416.5999755859</ele>
        <time>2010-06-13T13:22:30.000Z</time>
      </trkpt>
      <trkpt lat="44.0271" lon="7.06542">
        <ele>1415.1999511719</ele>
        <time>2010-06-13T13:22:32.000Z</time>
      </trkpt>
      <trkpt lat="44.02715" lon="7.06535">
        <ele>1413.1999511719</ele>
        <time>2010-06-13T13:22:34.000Z</time>
      </trkpt>
      <trkpt lat="44.02726" lon="7.06518">
        <ele>1408</ele>
        <time>2010-06-13T13:22:38.000Z</time>
      </trkpt>
      <trkpt lat="44.02729" lon="7.06513">
        <ele>1406.5999755859</ele>
        <time>2010-06-13T13:22:39.000Z</time>
      </trkpt>
      <trkpt lat="44.02736" lon="7.06499">
        <ele>1403</ele>
        <time>2010-06-13T13:22:41.000Z</time>
      </trkpt>
      <trkpt lat="44.0274" lon="7.06493">
        <ele>1401.1999511719</ele>
        <time>2010-06-13T13:22:42.000Z</time>
      </trkpt>
      <trkpt lat="44.02753" lon="7.06471">
        <ele>1394.8000488281</ele>
        <time>2010-06-13T13:22:45.000Z</time>
      </trkpt>
      <trkpt lat="44.02756" lon="7.06463">
        <ele>1393.5999755859</ele>
        <time>2010-06-13T13:22:46.000Z</time>
      </trkpt>
      <trkpt lat="44.0276" lon="7.06447">
        <ele>1392.1999511719</ele>
        <time>2010-06-13T13:22:48.000Z</time>
      </trkpt>
      <trkpt lat="44.02763" lon="7.06433">
        <ele>1390.5999755859</ele>
        <time>2010-06-13T13:22:50.000Z</time>
      </trkpt>
      <trkpt lat="44.02766" lon="7.06421">
        <ele>1389.1999511719</ele>
        <time>2010-06-13T13:22:52.000Z</time>
      </trkpt>
      <trkpt lat="44.02766" lon="7.06418">
        <ele>1389.1999511719</ele>
        <time>2010-06-13T13:22:53.000Z</time>
      </trkpt>
      <trkpt lat="44.02766" lon="7.06413">
        <ele>1388.8000488281</ele>
        <time>2010-06-13T13:22:55.000Z</time>
      </trkpt>
      <trkpt lat="44.02758" lon="7.0641">
        <ele>1391.8000488281</ele>
        <time>2010-06-13T13:23:20.000Z</time>
      </trkpt>
      <trkpt lat="44.02758" lon="7.06408">
        <ele>1391.8000488281</ele>
        <time>2010-06-13T13:23:59.000Z</time>
      </trkpt>
      <trkpt lat="44.02761" lon="7.06402">
        <ele>1390.4000244141</ele>
        <time>2010-06-13T13:24:03.000Z</time>
      </trkpt>
      <trkpt lat="44.02766" lon="7.06387">
        <ele>1387.8000488281</ele>
        <time>2010-06-13T13:24:07.000Z</time>
      </trkpt>
      <trkpt lat="44.02771" lon="7.06373">
        <ele>1385.1999511719</ele>
        <time>2010-06-13T13:24:09.000Z</time>
      </trkpt>
      <trkpt lat="44.02776" lon="7.06366">
        <ele>1383</ele>
        <time>2010-06-13T13:24:10.000Z</time>
      </trkpt>
      <trkpt lat="44.02785" lon="7.06346">
        <ele>1378.8000488281</ele>
        <time>2010-06-13T13:24:13.000Z</time>
      </trkpt>
      <trkpt lat="44.02793" lon="7.06332">
        <ele>1374.8000488281</ele>
        <time>2010-06-13T13:24:15.000Z</time>
      </trkpt>
      <trkpt lat="44.02794" lon="7.0632">
        <ele>1373.8000488281</ele>
        <time>2010-06-13T13:24:16.000Z</time>
      </trkpt>
      <trkpt lat="44.028" lon="7.06301">
        <ele>1371.1999511719</ele>
        <time>2010-06-13T13:24:18.000Z</time>
      </trkpt>
      <trkpt lat="44.02805" lon="7.06291">
        <ele>1368.5999755859</ele>
        <time>2010-06-13T13:24:19.000Z</time>
      </trkpt>
      <trkpt lat="44.02814" lon="7.06269">
        <ele>1364.1999511719</ele>
        <time>2010-06-13T13:24:22.000Z</time>
      </trkpt>
      <trkpt lat="44.02816" lon="7.06263">
        <ele>1363.1999511719</ele>
        <time>2010-06-13T13:24:23.000Z</time>
      </trkpt>
      <trkpt lat="44.0282" lon="7.06252">
        <ele>1361</ele>
        <time>2010-06-13T13:24:25.000Z</time>
      </trkpt>
      <trkpt lat="44.02828" lon="7.0624">
        <ele>1357.5999755859</ele>
        <time>2010-06-13T13:24:27.000Z</time>
      </trkpt>
      <trkpt lat="44.02829" lon="7.06225">
        <ele>1356.1999511719</ele>
        <time>2010-06-13T13:24:29.000Z</time>
      </trkpt>
      <trkpt lat="44.0283" lon="7.06208">
        <ele>1354.8000488281</ele>
        <time>2010-06-13T13:24:31.000Z</time>
      </trkpt>
      <trkpt lat="44.0283" lon="7.06184">
        <ele>1353.1999511719</ele>
        <time>2010-06-13T13:24:34.000Z</time>
      </trkpt>
      <trkpt lat="44.02829" lon="7.06171">
        <ele>1353</ele>
        <time>2010-06-13T13:24:36.000Z</time>
      </trkpt>
      <trkpt lat="44.02825" lon="7.06156">
        <ele>1353.4000244141</ele>
        <time>2010-06-13T13:24:39.000Z</time>
      </trkpt>
      <trkpt lat="44.02825" lon="7.06152">
        <ele>1353.1999511719</ele>
        <time>2010-06-13T13:24:40.000Z</time>
      </trkpt>
      <trkpt lat="44.02834" lon="7.06121">
        <ele>1348.1999511719</ele>
        <time>2010-06-13T13:24:45.000Z</time>
      </trkpt>
      <trkpt lat="44.02839" lon="7.06078">
        <ele>1346.1999511719</ele>
        <time>2010-06-13T13:24:50.000Z</time>
      </trkpt>
      <trkpt lat="44.02841" lon="7.06067">
        <ele>1345.5999755859</ele>
        <time>2010-06-13T13:24:52.000Z</time>
      </trkpt>
      <trkpt lat="44.02827" lon="7.06026">
        <ele>1342.1999511719</ele>
        <time>2010-06-13T13:25:02.000Z</time>
      </trkpt>
      <trkpt lat="44.02825" lon="7.06021">
        <ele>1342.1999511719</ele>
        <time>2010-06-13T13:25:03.000Z</time>
      </trkpt>
      <trkpt lat="44.02803" lon="7.05987">
        <ele>1343</ele>
        <time>2010-06-13T13:25:13.000Z</time>
      </trkpt>
      <trkpt lat="44.02802" lon="7.05983">
        <ele>1343</ele>
        <time>2010-06-13T13:25:14.000Z</time>
      </trkpt>
      <trkpt lat="44.02809" lon="7.05974">
        <ele>1341.5999755859</ele>
        <time>2010-06-13T13:25:17.000Z</time>
      </trkpt>
      <trkpt lat="44.02804" lon="7.05959">
        <ele>1342</ele>
        <time>2010-06-13T13:25:21.000Z</time>
      </trkpt>
      <trkpt lat="44.02803" lon="7.05945">
        <ele>1341.8000488281</ele>
        <time>2010-06-13T13:25:35.000Z</time>
      </trkpt>
      <trkpt lat="44.02801" lon="7.05942">
        <ele>1342.1999511719</ele>
        <time>2010-06-13T13:25:43.000Z</time>
      </trkpt>
      <trkpt lat="44.02806" lon="7.05924">
        <ele>1340.5999755859</ele>
        <time>2010-06-13T13:25:47.000Z</time>
      </trkpt>
      <trkpt lat="44.02808" lon="7.05917">
        <ele>1340</ele>
        <time>2010-06-13T13:25:50.000Z</time>
      </trkpt>
      <trkpt lat="44.02805" lon="7.05906">
        <ele>1341.1999511719</ele>
        <time>2010-06-13T13:25:53.000Z</time>
      </trkpt>
      <trkpt lat="44.028" lon="7.05898">
        <ele>1342.8000488281</ele>
        <time>2010-06-13T13:25:59.000Z</time>
      </trkpt>
      <trkpt lat="44.02797" lon="7.05863">
        <ele>1346</ele>
        <time>2010-06-13T13:26:18.000Z</time>
      </trkpt>
      <trkpt lat="44.028" lon="7.05837">
        <ele>1346.4000244141</ele>
        <time>2010-06-13T13:26:50.000Z</time>
      </trkpt>
      <trkpt lat="44.0281" lon="7.05797">
        <ele>1340.1999511719</ele>
        <time>2010-06-13T13:26:56.000Z</time>
      </trkpt>
      <trkpt lat="44.02828" lon="7.05754">
        <ele>1326.5999755859</ele>
        <time>2010-06-13T13:27:01.000Z</time>
      </trkpt>
      <trkpt lat="44.02841" lon="7.05708">
        <ele>1326</ele>
        <time>2010-06-13T13:27:05.000Z</time>
      </trkpt>
      <trkpt lat="44.02844" lon="7.05696">
        <ele>1326.4000244141</ele>
        <time>2010-06-13T13:27:06.000Z</time>
      </trkpt>
      <trkpt lat="44.02853" lon="7.05667">
        <ele>1326.1999511719</ele>
        <time>2010-06-13T13:27:08.000Z</time>
      </trkpt>
      <trkpt lat="44.02861" lon="7.05642">
        <ele>1325</ele>
        <time>2010-06-13T13:27:10.000Z</time>
      </trkpt>
      <trkpt lat="44.02873" lon="7.05615">
        <ele>1321.8000488281</ele>
        <time>2010-06-13T13:27:13.000Z</time>
      </trkpt>
      <trkpt lat="44.02892" lon="7.05581">
        <ele>1313.8000488281</ele>
        <time>2010-06-13T13:27:17.000Z</time>
      </trkpt>
      <trkpt lat="44.02905" lon="7.05536">
        <ele>1305.8000488281</ele>
        <time>2010-06-13T13:27:21.000Z</time>
      </trkpt>
      <trkpt lat="44.02906" lon="7.05525">
        <ele>1304.4000244141</ele>
        <time>2010-06-13T13:27:22.000Z</time>
      </trkpt>
      <trkpt lat="44.02913" lon="7.05506">
        <ele>1299.1999511719</ele>
        <time>2010-06-13T13:27:24.000Z</time>
      </trkpt>
      <trkpt lat="44.02917" lon="7.05497">
        <ele>1297</ele>
        <time>2010-06-13T13:27:25.000Z</time>
      </trkpt>
      <trkpt lat="44.02924" lon="7.05464">
        <ele>1297.5999755859</ele>
        <time>2010-06-13T13:27:28.000Z</time>
      </trkpt>
      <trkpt lat="44.02928" lon="7.05452">
        <ele>1297.4000244141</ele>
        <time>2010-06-13T13:27:29.000Z</time>
      </trkpt>
      <trkpt lat="44.02932" lon="7.05424">
        <ele>1296.4000244141</ele>
        <time>2010-06-13T13:27:31.000Z</time>
      </trkpt>
      <trkpt lat="44.02937" lon="7.05397">
        <ele>1294.5999755859</ele>
        <time>2010-06-13T13:27:33.000Z</time>
      </trkpt>
      <trkpt lat="44.02948" lon="7.05368">
        <ele>1290.4000244141</ele>
        <time>2010-06-13T13:27:36.000Z</time>
      </trkpt>
      <trkpt lat="44.02955" lon="7.05353">
        <ele>1287.5999755859</ele>
        <time>2010-06-13T13:27:38.000Z</time>
      </trkpt>
      <trkpt lat="44.0296" lon="7.05332">
        <ele>1283.8000488281</ele>
        <time>2010-06-13T13:27:43.000Z</time>
      </trkpt>
      <trkpt lat="44.02962" lon="7.05326">
        <ele>1283.1999511719</ele>
        <time>2010-06-13T13:27:45.000Z</time>
      </trkpt>
      <trkpt lat="44.02963" lon="7.05307">
        <ele>1282</ele>
        <time>2010-06-13T13:27:48.000Z</time>
      </trkpt>
      <trkpt lat="44.02969" lon="7.05287">
        <ele>1279.1999511719</ele>
        <time>2010-06-13T13:27:51.000Z</time>
      </trkpt>
      <trkpt lat="44.02971" lon="7.05279">
        <ele>1278.1999511719</ele>
        <time>2010-06-13T13:27:52.000Z</time>
      </trkpt>
      <trkpt lat="44.02963" lon="7.05273">
        <ele>1280.1999511719</ele>
        <time>2010-06-13T13:27:56.000Z</time>
      </trkpt>
      <trkpt lat="44.02963" lon="7.05258">
        <ele>1279.4000244141</ele>
        <time>2010-06-13T13:28:28.000Z</time>
      </trkpt>
      <trkpt lat="44.02974" lon="7.0523">
        <ele>1274.5999755859</ele>
        <time>2010-06-13T13:28:33.000Z</time>
      </trkpt>
      <trkpt lat="44.02979" lon="7.05224">
        <ele>1272.4000244141</ele>
        <time>2010-06-13T13:28:34.000Z</time>
      </trkpt>
      <trkpt lat="44.02982" lon="7.05217">
        <ele>1270.8000488281</ele>
        <time>2010-06-13T13:28:35.000Z</time>
      </trkpt>
      <trkpt lat="44.02988" lon="7.05189">
        <ele>1267</ele>
        <time>2010-06-13T13:28:38.000Z</time>
      </trkpt>
      <trkpt lat="44.0301" lon="7.05149">
        <ele>1261</ele>
        <time>2010-06-13T13:28:43.000Z</time>
      </trkpt>
      <trkpt lat="44.03012" lon="7.05139">
        <ele>1260.8000488281</ele>
        <time>2010-06-13T13:28:44.000Z</time>
      </trkpt>
      <trkpt lat="44.03016" lon="7.05097">
        <ele>1259.4000244141</ele>
        <time>2010-06-13T13:28:53.000Z</time>
      </trkpt>
      <trkpt lat="44.03021" lon="7.05062">
        <ele>1259.1999511719</ele>
        <time>2010-06-13T13:29:06.000Z</time>
      </trkpt>
      <trkpt lat="44.03021" lon="7.05061">
        <ele>1259.4000244141</ele>
        <time>2010-06-13T13:29:09.000Z</time>
      </trkpt>
      <trkpt lat="44.03035" lon="7.0503">
        <ele>1256.8000488281</ele>
        <time>2010-06-13T13:29:23.000Z</time>
      </trkpt>
      <trkpt lat="44.0304" lon="7.05023">
        <ele>1255.4000244141</ele>
        <time>2010-06-13T13:29:25.000Z</time>
      </trkpt>
      <trkpt lat="44.03069" lon="7.05005">
        <ele>1244.5999755859</ele>
        <time>2010-06-13T13:29:34.000Z</time>
      </trkpt>
      <trkpt lat="44.03088" lon="7.04983">
        <ele>1239</ele>
        <time>2010-06-13T13:29:38.000Z</time>
      </trkpt>
      <trkpt lat="44.03094" lon="7.04969">
        <ele>1238.4000244141</ele>
        <time>2010-06-13T13:29:41.000Z</time>
      </trkpt>
      <trkpt lat="44.03095" lon="7.04961">
        <ele>1238.5999755859</ele>
        <time>2010-06-13T13:29:43.000Z</time>
      </trkpt>
      <trkpt lat="44.03093" lon="7.04955">
        <ele>1239.1999511719</ele>
        <time>2010-06-13T13:29:45.000Z</time>
      </trkpt>
      <trkpt lat="44.03094" lon="7.04947">
        <ele>1239.5999755859</ele>
        <time>2010-06-13T13:29:47.000Z</time>
      </trkpt>
      <trkpt lat="44.03097" lon="7.04944">
        <ele>1238.5999755859</ele>
        <time>2010-06-13T13:29:49.000Z</time>
      </trkpt>
      <trkpt lat="44.03105" lon="7.04951">
        <ele>1236</ele>
        <time>2010-06-13T13:29:52.000Z</time>
      </trkpt>
      <trkpt lat="44.03109" lon="7.04942">
        <ele>1235</ele>
        <time>2010-06-13T13:29:56.000Z</time>
      </trkpt>
      <trkpt lat="44.03107" lon="7.04939">
        <ele>1235.5999755859</ele>
        <time>2010-06-13T13:30:02.000Z</time>
      </trkpt>
      <trkpt lat="44.03103" lon="7.04928">
        <ele>1237.1999511719</ele>
        <time>2010-06-13T13:30:08.000Z</time>
      </trkpt>
      <trkpt lat="44.03102" lon="7.04927">
        <ele>1237.8000488281</ele>
        <time>2010-06-13T13:30:09.000Z</time>
      </trkpt>
      <trkpt lat="44.03101" lon="7.04925">
        <ele>1238</ele>
        <time>2010-06-13T13:30:12.000Z</time>
      </trkpt>
      <trkpt lat="44.03111" lon="7.04929">
        <ele>1234.4000244141</ele>
        <time>2010-06-13T13:30:18.000Z</time>
      </trkpt>
      <trkpt lat="44.03104" lon="7.04919">
        <ele>1237.4000244141</ele>
        <time>2010-06-13T13:30:21.000Z</time>
      </trkpt>
      <trkpt lat="44.03098" lon="7.0491">
        <ele>1239.1999511719</ele>
        <time>2010-06-13T13:30:25.000Z</time>
      </trkpt>
      <trkpt lat="44.03096" lon="7.04904">
        <ele>1239.4000244141</ele>
        <time>2010-06-13T13:30:28.000Z</time>
      </trkpt>
      <trkpt lat="44.03099" lon="7.04899">
        <ele>1238.1999511719</ele>
        <time>2010-06-13T13:30:31.000Z</time>
      </trkpt>
      <trkpt lat="44.03099" lon="7.04901">
        <ele>1238.1999511719</ele>
        <time>2010-06-13T13:30:32.000Z</time>
      </trkpt>
      <trkpt lat="44.03104" lon="7.04896">
        <ele>1235.8000488281</ele>
        <time>2010-06-13T13:30:36.000Z</time>
      </trkpt>
      <trkpt lat="44.03105" lon="7.04887">
        <ele>1234.8000488281</ele>
        <time>2010-06-13T13:30:41.000Z</time>
      </trkpt>
      <trkpt lat="44.03115" lon="7.04898">
        <ele>1231.8000488281</ele>
        <time>2010-06-13T13:30:45.000Z</time>
      </trkpt>
      <trkpt lat="44.0312" lon="7.04906">
        <ele>1230.5999755859</ele>
        <time>2010-06-13T13:30:48.000Z</time>
      </trkpt>
      <trkpt lat="44.0312" lon="7.04898">
        <ele>1230</ele>
        <time>2010-06-13T13:30:52.000Z</time>
      </trkpt>
      <trkpt lat="44.03117" lon="7.04885">
        <ele>1230.1999511719</ele>
        <time>2010-06-13T13:30:56.000Z</time>
      </trkpt>
      <trkpt lat="44.03116" lon="7.04877">
        <ele>1230</ele>
        <time>2010-06-13T13:30:58.000Z</time>
      </trkpt>
      <trkpt lat="44.03105" lon="7.04858">
        <ele>1232.8000488281</ele>
        <time>2010-06-13T13:31:02.000Z</time>
      </trkpt>
      <trkpt lat="44.03104" lon="7.04856">
        <ele>1233.4000244141</ele>
        <time>2010-06-13T13:31:03.000Z</time>
      </trkpt>
      <trkpt lat="44.03102" lon="7.04853">
        <ele>1233.8000488281</ele>
        <time>2010-06-13T13:31:04.000Z</time>
      </trkpt>
      <trkpt lat="44.03104" lon="7.04848">
        <ele>1232.5999755859</ele>
        <time>2010-06-13T13:31:08.000Z</time>
      </trkpt>
      <trkpt lat="44.03117" lon="7.04857">
        <ele>1228.4000244141</ele>
        <time>2010-06-13T13:31:12.000Z</time>
      </trkpt>
      <trkpt lat="44.03129" lon="7.04869">
        <ele>1224.4000244141</ele>
        <time>2010-06-13T13:31:16.000Z</time>
      </trkpt>
      <trkpt lat="44.03131" lon="7.0487">
        <ele>1223.5999755859</ele>
        <time>2010-06-13T13:31:17.000Z</time>
      </trkpt>
      <trkpt lat="44.03134" lon="7.04869">
        <ele>1222.4000244141</ele>
        <time>2010-06-13T13:31:19.000Z</time>
      </trkpt>
      <trkpt lat="44.03134" lon="7.04856">
        <ele>1221.4000244141</ele>
        <time>2010-06-13T13:31:23.000Z</time>
      </trkpt>
      <trkpt lat="44.03133" lon="7.04845">
        <ele>1221</ele>
        <time>2010-06-13T13:31:26.000Z</time>
      </trkpt>
      <trkpt lat="44.03133" lon="7.04838">
        <ele>1220.8000488281</ele>
        <time>2010-06-13T13:31:28.000Z</time>
      </trkpt>
      <trkpt lat="44.03133" lon="7.04821">
        <ele>1219.4000244141</ele>
        <time>2010-06-13T13:31:33.000Z</time>
      </trkpt>
      <trkpt lat="44.03134" lon="7.04819">
        <ele>1218.8000488281</ele>
        <time>2010-06-13T13:31:34.000Z</time>
      </trkpt>
      <trkpt lat="44.03133" lon="7.04813">
        <ele>1218.5999755859</ele>
        <time>2010-06-13T13:31:37.000Z</time>
      </trkpt>
      <trkpt lat="44.03139" lon="7.04822">
        <ele>1216.8000488281</ele>
        <time>2010-06-13T13:31:40.000Z</time>
      </trkpt>
      <trkpt lat="44.03142" lon="7.04826">
        <ele>1216</ele>
        <time>2010-06-13T13:31:41.000Z</time>
      </trkpt>
      <trkpt lat="44.03151" lon="7.04837">
        <ele>1213.5999755859</ele>
        <time>2010-06-13T13:31:44.000Z</time>
      </trkpt>
      <trkpt lat="44.03157" lon="7.04842">
        <ele>1211.1999511719</ele>
        <time>2010-06-13T13:31:54.000Z</time>
      </trkpt>
      <trkpt lat="44.03161" lon="7.04844">
        <ele>1210</ele>
        <time>2010-06-13T13:32:10.000Z</time>
      </trkpt>
      <trkpt lat="44.03162" lon="7.04851">
        <ele>1210.1999511719</ele>
        <time>2010-06-13T13:32:14.000Z</time>
      </trkpt>
      <trkpt lat="44.03164" lon="7.04856">
        <ele>1210</ele>
        <time>2010-06-13T13:32:18.000Z</time>
      </trkpt>
      <trkpt lat="44.03167" lon="7.04855">
        <ele>1208.8000488281</ele>
        <time>2010-06-13T13:32:20.000Z</time>
      </trkpt>
      <trkpt lat="44.03168" lon="7.04847">
        <ele>1208.5999755859</ele>
        <time>2010-06-13T13:32:26.000Z</time>
      </trkpt>
      <trkpt lat="44.03169" lon="7.0483">
        <ele>1207.1999511719</ele>
        <time>2010-06-13T13:32:42.000Z</time>
      </trkpt>
      <trkpt lat="44.03166" lon="7.04824">
        <ele>1206</ele>
        <time>2010-06-13T13:32:47.000Z</time>
      </trkpt>
      <trkpt lat="44.03157" lon="7.04805">
        <ele>1207.8000488281</ele>
        <time>2010-06-13T13:33:06.000Z</time>
      </trkpt>
      <trkpt lat="44.03162" lon="7.04774">
        <ele>1202.1999511719</ele>
        <time>2010-06-13T13:33:25.000Z</time>
      </trkpt>
      <trkpt lat="44.03178" lon="7.04741">
        <ele>1199.1999511719</ele>
        <time>2010-06-13T13:33:36.000Z</time>
      </trkpt>
      <trkpt lat="44.0319" lon="7.04734">
        <ele>1201</ele>
        <time>2010-06-13T13:33:39.000Z</time>
      </trkpt>
      <trkpt lat="44.03193" lon="7.04723">
        <ele>1200.5999755859</ele>
        <time>2010-06-13T13:33:42.000Z</time>
      </trkpt>
      <trkpt lat="44.03169" lon="7.047">
        <ele>1197</ele>
        <time>2010-06-13T13:33:55.000Z</time>
      </trkpt>
      <trkpt lat="44.03166" lon="7.047">
        <ele>1197.5999755859</ele>
        <time>2010-06-13T13:34:02.000Z</time>
      </trkpt>
      <trkpt lat="44.03168" lon="7.047">
        <ele>1197</ele>
        <time>2010-06-13T13:34:04.000Z</time>
      </trkpt>
      <trkpt lat="44.03169" lon="7.047">
        <ele>1197</ele>
        <time>2010-06-13T13:34:06.000Z</time>
      </trkpt>
      <trkpt lat="44.03173" lon="7.04696">
        <ele>1197.4000244141</ele>
        <time>2010-06-13T13:34:10.000Z</time>
      </trkpt>
      <trkpt lat="44.03168" lon="7.04686">
        <ele>1197</ele>
        <time>2010-06-13T13:34:15.000Z</time>
      </trkpt>
      <trkpt lat="44.03168" lon="7.04679">
        <ele>1197</ele>
        <time>2010-06-13T13:34:19.000Z</time>
      </trkpt>
      <trkpt lat="44.03168" lon="7.04678">
        <ele>1197</ele>
        <time>2010-06-13T13:34:21.000Z</time>
      </trkpt>
      <trkpt lat="44.0317" lon="7.04673">
        <ele>1197</ele>
        <time>2010-06-13T13:34:32.000Z</time>
      </trkpt>
      <trkpt lat="44.03192" lon="7.04669">
        <ele>1196.8000488281</ele>
        <time>2010-06-13T13:34:42.000Z</time>
      </trkpt>
      <trkpt lat="44.03192" lon="7.04656">
        <ele>1196.1999511719</ele>
        <time>2010-06-13T13:34:48.000Z</time>
      </trkpt>
      <trkpt lat="44.03217" lon="7.04648">
        <ele>1194.8000488281</ele>
        <time>2010-06-13T13:34:54.000Z</time>
      </trkpt>
      <trkpt lat="44.03219" lon="7.04645">
        <ele>1194.5999755859</ele>
        <time>2010-06-13T13:34:55.000Z</time>
      </trkpt>
      <trkpt lat="44.03213" lon="7.04617">
        <ele>1192.5999755859</ele>
        <time>2010-06-13T13:35:02.000Z</time>
      </trkpt>
      <trkpt lat="44.03215" lon="7.04615">
        <ele>1192.4000244141</ele>
        <time>2010-06-13T13:35:03.000Z</time>
      </trkpt>
      <trkpt lat="44.03214" lon="7.04612">
        <ele>1192.1999511719</ele>
        <time>2010-06-13T13:35:05.000Z</time>
      </trkpt>
      <trkpt lat="44.03212" lon="7.04612">
        <ele>1192.4000244141</ele>
        <time>2010-06-13T13:35:10.000Z</time>
      </trkpt>
      <trkpt lat="44.03215" lon="7.04616">
        <ele>1192.4000244141</ele>
        <time>2010-06-13T13:35:15.000Z</time>
      </trkpt>
      <trkpt lat="44.0323" lon="7.04616">
        <ele>1191</ele>
        <time>2010-06-13T13:35:21.000Z</time>
      </trkpt>
      <trkpt lat="44.03229" lon="7.0456">
        <ele>1186.8000488281</ele>
        <time>2010-06-13T13:35:35.000Z</time>
      </trkpt>
      <trkpt lat="44.03221" lon="7.04516">
        <ele>1185.5999755859</ele>
        <time>2010-06-13T13:35:47.000Z</time>
      </trkpt>
      <trkpt lat="44.03216" lon="7.04512">
        <ele>1185.8000488281</ele>
        <time>2010-06-13T13:35:50.000Z</time>
      </trkpt>
      <trkpt lat="44.03218" lon="7.04506">
        <ele>1185.4000244141</ele>
        <time>2010-06-13T13:36:01.000Z</time>
      </trkpt>
      <trkpt lat="44.0322" lon="7.04502">
        <ele>1184.8000488281</ele>
        <time>2010-06-13T13:36:05.000Z</time>
      </trkpt>
      <trkpt lat="44.03215" lon="7.04501">
        <ele>1185.4000244141</ele>
        <time>2010-06-13T13:36:14.000Z</time>
      </trkpt>
      <trkpt lat="44.03226" lon="7.04486">
        <ele>1185</ele>
        <time>2010-06-13T13:36:22.000Z</time>
      </trkpt>
      <trkpt lat="44.03233" lon="7.04471">
        <ele>1186</ele>
        <time>2010-06-13T13:36:32.000Z</time>
      </trkpt>
      <trkpt lat="44.03236" lon="7.0447">
        <ele>1186.1999511719</ele>
        <time>2010-06-13T13:36:34.000Z</time>
      </trkpt>
      <trkpt lat="44.03238" lon="7.04466">
        <ele>1186.8000488281</ele>
        <time>2010-06-13T13:36:38.000Z</time>
      </trkpt>
      <trkpt lat="44.03239" lon="7.04463">
        <ele>1187</ele>
        <time>2010-06-13T13:36:50.000Z</time>
      </trkpt>
      <trkpt lat="44.03233" lon="7.04463">
        <ele>1186.5999755859</ele>
        <time>2010-06-13T13:37:01.000Z</time>
      </trkpt>
      <trkpt lat="44.03231" lon="7.04454">
        <ele>1187.1999511719</ele>
        <time>2010-06-13T13:37:14.000Z</time>
      </trkpt>
      <trkpt lat="44.03227" lon="7.04443">
        <ele>1187.5999755859</ele>
        <time>2010-06-13T13:37:27.000Z</time>
      </trkpt>
      <trkpt lat="44.03229" lon="7.04436">
        <ele>1188.4000244141</ele>
        <time>2010-06-13T13:37:29.000Z</time>
      </trkpt>
      <trkpt lat="44.03212" lon="7.04389">
        <ele>1183.4000244141</ele>
        <time>2010-06-13T13:37:39.000Z</time>
      </trkpt>
      <trkpt lat="44.03209" lon="7.04386">
        <ele>1182.4000244141</ele>
        <time>2010-06-13T13:37:40.000Z</time>
      </trkpt>
      <trkpt lat="44.03201" lon="7.0437">
        <ele>1178.4000244141</ele>
        <time>2010-06-13T13:37:44.000Z</time>
      </trkpt>
      <trkpt lat="44.03198" lon="7.04369">
        <ele>1177.1999511719</ele>
        <time>2010-06-13T13:37:58.000Z</time>
      </trkpt>
      <trkpt lat="44.03197" lon="7.0437">
        <ele>1177</ele>
        <time>2010-06-13T13:38:50.000Z</time>
      </trkpt>
      <trkpt lat="44.03197" lon="7.0437">
        <ele>1177</ele>
        <time>2010-06-13T13:39:07.000Z</time>
      </trkpt>
      <trkpt lat="44.03201" lon="7.04347">
        <ele>1176.1999511719</ele>
        <time>2010-06-13T13:39:12.000Z</time>
      </trkpt>
      <trkpt lat="44.03202" lon="7.04342">
        <ele>1176.1999511719</ele>
        <time>2010-06-13T13:39:13.000Z</time>
      </trkpt>
      <trkpt lat="44.03203" lon="7.04329">
        <ele>1175.1999511719</ele>
        <time>2010-06-13T13:39:15.000Z</time>
      </trkpt>
      <trkpt lat="44.03205" lon="7.04315">
        <ele>1173.1999511719</ele>
        <time>2010-06-13T13:39:17.000Z</time>
      </trkpt>
      <trkpt lat="44.03206" lon="7.04302">
        <ele>1170.5999755859</ele>
        <time>2010-06-13T13:39:19.000Z</time>
      </trkpt>
      <trkpt lat="44.03207" lon="7.04295">
        <ele>1169.8000488281</ele>
        <time>2010-06-13T13:39:20.000Z</time>
      </trkpt>
      <trkpt lat="44.0321" lon="7.04281">
        <ele>1168.1999511719</ele>
        <time>2010-06-13T13:39:22.000Z</time>
      </trkpt>
      <trkpt lat="44.03211" lon="7.04266">
        <ele>1165.4000244141</ele>
        <time>2010-06-13T13:39:24.000Z</time>
      </trkpt>
      <trkpt lat="44.03212" lon="7.04247">
        <ele>1162</ele>
        <time>2010-06-13T13:39:26.000Z</time>
      </trkpt>
      <trkpt lat="44.03212" lon="7.04229">
        <ele>1159.4000244141</ele>
        <time>2010-06-13T13:39:28.000Z</time>
      </trkpt>
      <trkpt lat="44.03212" lon="7.04222">
        <ele>1158</ele>
        <time>2010-06-13T13:39:29.000Z</time>
      </trkpt>
      <trkpt lat="44.03212" lon="7.04214">
        <ele>1156.8000488281</ele>
        <time>2010-06-13T13:39:30.000Z</time>
      </trkpt>
      <trkpt lat="44.03214" lon="7.0419">
        <ele>1153.5999755859</ele>
        <time>2010-06-13T13:39:34.000Z</time>
      </trkpt>
      <trkpt lat="44.03209" lon="7.04172">
        <ele>1149</ele>
        <time>2010-06-13T13:39:38.000Z</time>
      </trkpt>
      <trkpt lat="44.03208" lon="7.0416">
        <ele>1146.8000488281</ele>
        <time>2010-06-13T13:39:40.000Z</time>
      </trkpt>
      <trkpt lat="44.03206" lon="7.04148">
        <ele>1144.5999755859</ele>
        <time>2010-06-13T13:39:42.000Z</time>
      </trkpt>
      <trkpt lat="44.03204" lon="7.04132">
        <ele>1142</ele>
        <time>2010-06-13T13:39:48.000Z</time>
      </trkpt>
      <trkpt lat="44.03194" lon="7.0412">
        <ele>1136.1999511719</ele>
        <time>2010-06-13T13:39:52.000Z</time>
      </trkpt>
      <trkpt lat="44.03192" lon="7.04116">
        <ele>1135</ele>
        <time>2010-06-13T13:39:53.000Z</time>
      </trkpt>
      <trkpt lat="44.03203" lon="7.04075">
        <ele>1135</ele>
        <time>2010-06-13T13:40:02.000Z</time>
      </trkpt>
      <trkpt lat="44.03203" lon="7.04066">
        <ele>1134.8000488281</ele>
        <time>2010-06-13T13:40:04.000Z</time>
      </trkpt>
      <trkpt lat="44.032" lon="7.04061">
        <ele>1133.5999755859</ele>
        <time>2010-06-13T13:40:06.000Z</time>
      </trkpt>
      <trkpt lat="44.0319" lon="7.04044">
        <ele>1128.5999755859</ele>
        <time>2010-06-13T13:40:10.000Z</time>
      </trkpt>
      <trkpt lat="44.03188" lon="7.04032">
        <ele>1127</ele>
        <time>2010-06-13T13:40:13.000Z</time>
      </trkpt>
      <trkpt lat="44.03185" lon="7.04025">
        <ele>1125.1999511719</ele>
        <time>2010-06-13T13:40:15.000Z</time>
      </trkpt>
      <trkpt lat="44.03175" lon="7.04007">
        <ele>1119.5999755859</ele>
        <time>2010-06-13T13:40:20.000Z</time>
      </trkpt>
      <trkpt lat="44.03174" lon="7.03997">
        <ele>1118.5999755859</ele>
        <time>2010-06-13T13:40:22.000Z</time>
      </trkpt>
      <trkpt lat="44.03182" lon="7.03966">
        <ele>1120.1999511719</ele>
        <time>2010-06-13T13:40:29.000Z</time>
      </trkpt>
      <trkpt lat="44.03183" lon="7.03958">
        <ele>1120.1999511719</ele>
        <time>2010-06-13T13:40:31.000Z</time>
      </trkpt>
      <trkpt lat="44.03179" lon="7.03947">
        <ele>1116.5999755859</ele>
        <time>2010-06-13T13:40:35.000Z</time>
      </trkpt>
      <trkpt lat="44.03181" lon="7.03932">
        <ele>1116.4000244141</ele>
        <time>2010-06-13T13:40:41.000Z</time>
      </trkpt>
      <trkpt lat="44.03181" lon="7.03898">
        <ele>1113.5999755859</ele>
        <time>2010-06-13T13:40:48.000Z</time>
      </trkpt>
      <trkpt lat="44.03181" lon="7.0389">
        <ele>1113</ele>
        <time>2010-06-13T13:40:50.000Z</time>
      </trkpt>
      <trkpt lat="44.03181" lon="7.03888">
        <ele>1112.5999755859</ele>
        <time>2010-06-13T13:40:51.000Z</time>
      </trkpt>
      <trkpt lat="44.03177" lon="7.03863">
        <ele>1107.8000488281</ele>
        <time>2010-06-13T13:40:57.000Z</time>
      </trkpt>
      <trkpt lat="44.03177" lon="7.03858">
        <ele>1107.5999755859</ele>
        <time>2010-06-13T13:40:58.000Z</time>
      </trkpt>
      <trkpt lat="44.03176" lon="7.03831">
        <ele>1104.5999755859</ele>
        <time>2010-06-13T13:41:03.000Z</time>
      </trkpt>
      <trkpt lat="44.03172" lon="7.03821">
        <ele>1101.1999511719</ele>
        <time>2010-06-13T13:41:06.000Z</time>
      </trkpt>
      <trkpt lat="44.0317" lon="7.03819">
        <ele>1100</ele>
        <time>2010-06-13T13:41:07.000Z</time>
      </trkpt>
      <trkpt lat="44.03167" lon="7.03816">
        <ele>1098</ele>
        <time>2010-06-13T13:41:09.000Z</time>
      </trkpt>
      <trkpt lat="44.03167" lon="7.0377">
        <ele>1097.5999755859</ele>
        <time>2010-06-13T13:41:25.000Z</time>
      </trkpt>
      <trkpt lat="44.03165" lon="7.03727">
        <ele>1096.4000244141</ele>
        <time>2010-06-13T13:41:37.000Z</time>
      </trkpt>
      <trkpt lat="44.03168" lon="7.03666">
        <ele>1096.4000244141</ele>
        <time>2010-06-13T13:41:51.000Z</time>
      </trkpt>
      <trkpt lat="44.03167" lon="7.03646">
        <ele>1095.8000488281</ele>
        <time>2010-06-13T13:42:06.000Z</time>
      </trkpt>
      <trkpt lat="44.03164" lon="7.03628">
        <ele>1094.5999755859</ele>
        <time>2010-06-13T13:42:41.000Z</time>
      </trkpt>
      <trkpt lat="44.03161" lon="7.03621">
        <ele>1093.8000488281</ele>
        <time>2010-06-13T13:42:45.000Z</time>
      </trkpt>
      <trkpt lat="44.03162" lon="7.03598">
        <ele>1093.8000488281</ele>
        <time>2010-06-13T13:42:57.000Z</time>
      </trkpt>
      <trkpt lat="44.0316" lon="7.03593">
        <ele>1093.1999511719</ele>
        <time>2010-06-13T13:43:01.000Z</time>
      </trkpt>
      <trkpt lat="44.03139" lon="7.03565">
        <ele>1084.5999755859</ele>
        <time>2010-06-13T13:43:10.000Z</time>
      </trkpt>
      <trkpt lat="44.03132" lon="7.03561">
        <ele>1082.5999755859</ele>
        <time>2010-06-13T13:43:11.000Z</time>
      </trkpt>
      <trkpt lat="44.03124" lon="7.0355">
        <ele>1080.1999511719</ele>
        <time>2010-06-13T13:43:14.000Z</time>
      </trkpt>
      <trkpt lat="44.03129" lon="7.03533">
        <ele>1078.8000488281</ele>
        <time>2010-06-13T13:43:20.000Z</time>
      </trkpt>
      <trkpt lat="44.03127" lon="7.03529">
        <ele>1078</ele>
        <time>2010-06-13T13:43:23.000Z</time>
      </trkpt>
      <trkpt lat="44.03136" lon="7.03518">
        <ele>1076.8000488281</ele>
        <time>2010-06-13T13:43:28.000Z</time>
      </trkpt>
      <trkpt lat="44.03145" lon="7.03515">
        <ele>1076.1999511719</ele>
        <time>2010-06-13T13:43:32.000Z</time>
      </trkpt>
      <trkpt lat="44.0318" lon="7.03536">
        <ele>1082.8000488281</ele>
        <time>2010-06-13T13:43:39.000Z</time>
      </trkpt>
      <trkpt lat="44.03192" lon="7.03545">
        <ele>1086.4000244141</ele>
        <time>2010-06-13T13:43:42.000Z</time>
      </trkpt>
      <trkpt lat="44.03207" lon="7.03551">
        <ele>1089.4000244141</ele>
        <time>2010-06-13T13:43:45.000Z</time>
      </trkpt>
      <trkpt lat="44.03253" lon="7.03537">
        <ele>1089</ele>
        <time>2010-06-13T13:43:53.000Z</time>
      </trkpt>
      <trkpt lat="44.03269" lon="7.03528">
        <ele>1088.5999755859</ele>
        <time>2010-06-13T13:43:56.000Z</time>
      </trkpt>
      <trkpt lat="44.03269" lon="7.03508">
        <ele>1081.1999511719</ele>
        <time>2010-06-13T13:44:01.000Z</time>
      </trkpt>
      <trkpt lat="44.03266" lon="7.03512">
        <ele>1082.1999511719</ele>
        <time>2010-06-13T13:44:02.000Z</time>
      </trkpt>
      <trkpt lat="44.03258" lon="7.03519">
        <ele>1083.4000244141</ele>
        <time>2010-06-13T13:44:06.000Z</time>
      </trkpt>
      <trkpt lat="44.03253" lon="7.0352">
        <ele>1083.1999511719</ele>
        <time>2010-06-13T13:44:20.000Z</time>
      </trkpt>
      <trkpt lat="44.03246" lon="7.03523">
        <ele>1083.1999511719</ele>
        <time>2010-06-13T13:44:43.000Z</time>
      </trkpt>
      <trkpt lat="44.03244" lon="7.03522">
        <ele>1083</ele>
        <time>2010-06-13T13:45:31.000Z</time>
      </trkpt>
      <trkpt lat="44.03244" lon="7.03522">
        <ele>1082.8000488281</ele>
        <time>2010-06-13T13:46:38.000Z</time>
      </trkpt>
      <trkpt lat="44.03244" lon="7.03522">
        <ele>1082.8000488281</ele>
        <time>2010-06-13T13:48:39.000Z</time>
      </trkpt>
      <trkpt lat="44.03244" lon="7.03522">
        <ele>1082.8000488281</ele>
        <time>2010-06-13T13:48:46.000Z</time>
      </trkpt>
    </trkseg>
  </trk>
</gpx>